[[{"header":{"parameterUnit":"m.s-1","parameterCategory":1,"la1":30.6,"la2":29.2853,"lo1":-89.7004,"lo2":-87.6739,"dy":0.0162,"dx":0.0183,"nx":112,"ny":82,"refTime":"2024-05-22T18:00:00:Z","depth":0,"parameterNumber":2,"parameterNumberName":"U-component_of_WINDS"},"data":[0.0,0.0,0.0,0.0,0.0,0.0,0.0,0.0,0.0,0.0,0.0,0.0,0.0,0.0,0.0,0.0,0.0,0.0,0.0,0.0,0.0,0.0,0.0,0.0,0.0,0.0,0.0,0.0,0.0,0.0,0.0,0.0,0.0,0.0,0.0,0.0,0.0,0.0,0.0,0.0,0.0,0.0,0.0,0.0,0.0,0.0,0.0,0.0,0.0,0.0,0.0,0.0,0.0,0.0,0.0,0.0,0.0,0.0,0.0,0.0,0.0,0.0,0.0,0.0,0.0,0.0,0.0,0.0,0.0,0.0,0.0,0.0,0.0,0.0,0.0,0.0,0.0,0.0,0.0,0.0,0.0,0.0,0.0,0.0,0.0,0.0,0.0,0.0,0.0,0.0,0.0,-4.5616,-5.0049,-5.243,-5.1867,-5.0694,-4.7323,-4.1063,0.0,0.0,0.0,0.0,0.0,0.0,0.0,0.0,0.0,0.0,0.0,0.0,0.0,0.0,0.0,0.0,0.0,0.0,0.0,0.0,0.0,0.0,0.0,0.0,0.0,0.0,0.0,0.0,0.0,0.0,0.0,0.0,0.0,0.0,0.0,0.0,0.0,0.0,0.0,0.0,0.0,0.0,0.0,0.0,0.0,0.0,0.0,0.0,0.0,0.0,0.0,0.0,0.0,0.0,0.0,0.0,0.0,0.0,0.0,0.0,0.0,0.0,0.0,0.0,0.0,0.0,0.0,0.0,0.0,0.0,0.0,0.0,0.0,0.0,0.0,0.0,0.0,0.0,0.0,0.0,0.0,0.0,0.0,0.0,0.0,0.0,0.0,0.0,0.0,0.0,0.0,0.0,0.0,0.0,0.0,0.0,0.0,0.0,0.0,0.0,0.0,0.0,0.0,0.0,-4.0844,-4.9022,-5.2447,-5.3534,-5.2009,-5.1027,-4.7893,-4.1816,0.0,0.0,0.0,0.0,0.0,0.0,0.0,0.0,0.0,0.0,0.0,0.0,0.0,0.0,0.0,0.0,0.0,0.0,0.0,0.0,0.0,0.0,0.0,0.0,0.0,0.0,0.0,0.0,0.0,0.0,0.0,0.0,0.0,0.0,0.0,0.0,0.0,0.0,0.0,0.0,0.0,0.0,0.0,0.0,0.0,0.0,0.0,0.0,0.0,0.0,0.0,0.0,0.0,0.0,0.0,0.0,0.0,0.0,0.0,0.0,0.0,0.0,0.0,0.0,0.0,0.0,0.0,0.0,0.0,0.0,0.0,0.0,0.0,0.0,0.0,0.0,0.0,0.0,0.0,0.0,0.0,0.0,0.0,0.0,0.0,0.0,0.0,0.0,0.0,0.0,0.0,0.0,0.0,0.0,0.0,0.0,0.0,0.0,0.0,0.0,0.0,0.0,0.0,-4.0215,-4.4256,-5.0418,-5.2871,-5.3549,-5.2296,-5.0778,-4.7512,-4.1962,-3.8054,0.0,0.0,0.0,0.0,0.0,0.0,0.0,0.0,0.0,0.0,0.0,0.0,0.0,0.0,0.0,0.0,0.0,0.0,0.0,0.0,0.0,0.0,0.0,0.0,0.0,0.0,0.0,0.0,0.0,0.0,0.0,0.0,0.0,0.0,0.0,0.0,0.0,0.0,0.0,0.0,0.0,0.0,0.0,0.0,0.0,0.0,0.0,0.0,0.0,0.0,0.0,0.0,0.0,0.0,0.0,0.0,0.0,0.0,0.0,0.0,0.0,0.0,0.0,0.0,0.0,0.0,0.0,0.0,0.0,0.0,0.0,0.0,0.0,0.0,0.0,0.0,0.0,0.0,0.0,0.0,0.0,0.0,0.0,0.0,0.0,0.0,0.0,0.0,0.0,0.0,0.0,0.0,0.0,0.0,0.0,0.0,0.0,0.0,0.0,0.0,0.0,0.0,-4.4445,-4.7591,-5.1021,-5.2791,-5.3289,-5.2317,-4.9956,-4.6479,-4.158,-3.6971,0.0,0.0,0.0,0.0,0.0,0.0,0.0,0.0,0.0,0.0,0.0,0.0,0.0,0.0,0.0,0.0,0.0,0.0,0.0,0.0,0.0,0.0,0.0,0.0,0.0,0.0,0.0,0.0,0.0,0.0,0.0,0.0,0.0,0.0,0.0,0.0,0.0,0.0,0.0,0.0,0.0,0.0,0.0,0.0,0.0,0.0,0.0,0.0,0.0,0.0,0.0,0.0,0.0,0.0,0.0,0.0,0.0,0.0,0.0,0.0,0.0,0.0,0.0,0.0,0.0,0.0,0.0,0.0,0.0,0.0,0.0,0.0,0.0,0.0,0.0,0.0,0.0,0.0,0.0,0.0,0.0,0.0,0.0,0.0,0.0,0.0,0.0,0.0,0.0,0.0,0.0,0.0,0.0,0.0,0.0,0.0,0.0,0.0,0.0,0.0,0.0,0.0,-4.4506,-4.8919,-5.1065,-5.2735,-5.3162,-5.186,-4.84,-4.4642,-4.0653,-3.4956,0.0,0.0,0.0,0.0,0.0,0.0,0.0,0.0,0.0,0.0,0.0,0.0,0.0,0.0,0.0,0.0,0.0,0.0,0.0,0.0,0.0,0.0,0.0,0.0,0.0,0.0,0.0,0.0,0.0,0.0,0.0,0.0,0.0,0.0,0.0,0.0,0.0,0.0,0.0,0.0,0.0,0.0,0.0,0.0,0.0,0.0,0.0,0.0,0.0,0.0,0.0,0.0,0.0,0.0,0.0,0.0,0.0,0.0,0.0,0.0,0.0,0.0,0.0,0.0,0.0,0.0,0.0,0.0,0.0,0.0,0.0,0.0,0.0,0.0,0.0,0.0,0.0,0.0,0.0,0.0,0.0,0.0,0.0,0.0,0.0,0.0,0.0,0.0,0.0,0.0,0.0,0.0,0.0,0.0,0.0,0.0,0.0,0.0,0.0,0.0,0.0,0.0,-4.3068,-4.7334,0.0,-5.2176,-5.2549,-5.1541,-4.91,-4.5419,-4.0311,0.0,0.0,0.0,0.0,0.0,0.0,0.0,0.0,0.0,0.0,0.0,0.0,0.0,0.0,0.0,0.0,0.0,0.0,0.0,0.0,0.0,0.0,0.0,0.0,0.0,0.0,0.0,0.0,0.0,0.0,0.0,0.0,0.0,0.0,0.0,0.0,0.0,0.0,0.0,0.0,0.0,0.0,0.0,0.0,0.0,0.0,0.0,0.0,0.0,0.0,0.0,0.0,0.0,0.0,0.0,0.0,0.0,0.0,0.0,0.0,0.0,0.0,0.0,0.0,0.0,0.0,0.0,0.0,0.0,0.0,0.0,0.0,0.0,0.0,0.0,0.0,0.0,0.0,0.0,0.0,0.0,0.0,0.0,0.0,0.0,0.0,0.0,0.0,0.0,0.0,0.0,0.0,0.0,0.0,0.0,0.0,0.0,0.0,0.0,0.0,0.0,0.0,-3.8065,-4.2873,-4.7131,0.0,-5.1704,-5.1991,-5.1115,-4.8664,-4.4865,-3.945,0.0,0.0,0.0,0.0,0.0,0.0,0.0,0.0,0.0,0.0,0.0,0.0,0.0,0.0,0.0,0.0,0.0,0.0,0.0,0.0,0.0,0.0,0.0,0.0,0.0,0.0,0.0,0.0,0.0,0.0,0.0,0.0,0.0,0.0,0.0,0.0,0.0,0.0,0.0,0.0,0.0,0.0,0.0,0.0,0.0,0.0,0.0,0.0,0.0,0.0,0.0,0.0,0.0,0.0,0.0,0.0,0.0,0.0,0.0,0.0,0.0,0.0,0.0,0.0,0.0,0.0,0.0,0.0,0.0,0.0,0.0,0.0,0.0,0.0,0.0,0.0,0.0,0.0,0.0,0.0,0.0,0.0,0.0,0.0,0.0,0.0,0.0,0.0,0.0,0.0,0.0,0.0,0.0,0.0,0.0,0.0,0.0,0.0,0.0,0.0,0.0,0.0,-3.83,-4.4305,-4.893,-5.0618,-5.1499,-5.156,-5.0584,-4.663,-4.236,0.0,0.0,0.0,0.0,0.0,0.0,0.0,0.0,0.0,0.0,0.0,0.0,0.0,0.0,0.0,0.0,0.0,0.0,0.0,0.0,0.0,0.0,0.0,0.0,0.0,0.0,0.0,0.0,0.0,0.0,0.0,0.0,0.0,0.0,0.0,0.0,0.0,0.0,0.0,0.0,0.0,0.0,0.0,0.0,0.0,0.0,0.0,0.0,0.0,0.0,0.0,0.0,0.0,0.0,0.0,0.0,0.0,0.0,0.0,0.0,0.0,0.0,0.0,0.0,0.0,0.0,0.0,0.0,0.0,0.0,0.0,0.0,0.0,0.0,0.0,0.0,0.0,0.0,0.0,0.0,0.0,0.0,0.0,0.0,0.0,0.0,0.0,0.0,0.0,0.0,0.0,0.0,0.0,0.0,0.0,0.0,0.0,0.0,0.0,0.0,0.0,0.0,0.0,-3.8285,-4.381,-4.8122,-4.9774,-5.0321,-5.0231,-4.9348,-4.7515,-4.3819,-3.7801,0.0,0.0,0.0,0.0,0.0,0.0,0.0,0.0,0.0,0.0,0.0,0.0,0.0,0.0,0.0,0.0,0.0,0.0,0.0,0.0,0.0,0.0,0.0,0.0,0.0,0.0,0.0,0.0,0.0,0.0,0.0,0.0,0.0,0.0,0.0,0.0,0.0,0.0,0.0,0.0,0.0,0.0,0.0,0.0,0.0,0.0,0.0,0.0,0.0,0.0,0.0,0.0,0.0,0.0,0.0,0.0,0.0,0.0,0.0,0.0,0.0,0.0,0.0,0.0,0.0,0.0,0.0,0.0,0.0,0.0,0.0,0.0,0.0,0.0,0.0,0.0,0.0,0.0,0.0,0.0,0.0,0.0,0.0,0.0,0.0,0.0,0.0,0.0,0.0,0.0,0.0,0.0,0.0,0.0,0.0,0.0,0.0,0.0,0.0,0.0,0.0,0.0,-3.8285,-4.3627,-4.7736,-4.9427,-4.9843,-4.9541,-4.841,-4.7686,-4.4423,-3.7736,0.0,0.0,0.0,0.0,0.0,0.0,0.0,0.0,0.0,0.0,0.0,0.0,0.0,0.0,0.0,0.0,0.0,0.0,0.0,0.0,0.0,0.0,0.0,0.0,0.0,0.0,0.0,0.0,0.0,0.0,0.0,0.0,0.0,0.0,0.0,0.0,0.0,0.0,0.0,0.0,0.0,0.0,0.0,0.0,0.0,0.0,0.0,0.0,0.0,0.0,0.0,0.0,0.0,0.0,0.0,0.0,0.0,0.0,0.0,0.0,0.0,0.0,0.0,0.0,0.0,0.0,0.0,0.0,0.0,0.0,0.0,0.0,0.0,0.0,0.0,0.0,0.0,0.0,0.0,0.0,0.0,0.0,0.0,0.0,0.0,0.0,0.0,0.0,0.0,0.0,0.0,0.0,0.0,0.0,0.0,0.0,0.0,0.0,0.0,0.0,0.0,0.0,-3.841,-4.359,-4.7645,-4.9317,-4.9732,-4.9299,-4.7793,-4.7437,-4.4511,-3.7995,0.0,0.0,0.0,0.0,0.0,0.0,0.0,0.0,0.0,0.0,0.0,0.0,0.0,0.0,0.0,0.0,0.0,0.0,0.0,0.0,0.0,0.0,0.0,0.0,0.0,0.0,0.0,0.0,0.0,0.0,0.0,0.0,0.0,0.0,0.0,0.0,0.0,0.0,0.0,0.0,0.0,0.0,0.0,0.0,0.0,0.0,0.0,0.0,0.0,0.0,0.0,0.0,0.0,0.0,0.0,0.0,0.0,0.0,0.0,0.0,-3.83,0.0,0.0,0.0,0.0,0.0,0.0,0.0,0.0,0.0,0.0,0.0,0.0,0.0,0.0,0.0,0.0,0.0,0.0,0.0,0.0,0.0,0.0,0.0,0.0,0.0,0.0,0.0,0.0,0.0,0.0,0.0,0.0,0.0,0.0,0.0,0.0,0.0,0.0,0.0,0.0,0.0,-3.9145,-4.3461,-4.6764,-4.8416,-4.8882,-4.877,-4.8059,-4.7565,-4.51,-3.9996,0.0,0.0,0.0,0.0,0.0,0.0,0.0,0.0,0.0,0.0,0.0,0.0,0.0,0.0,0.0,0.0,0.0,0.0,0.0,0.0,0.0,0.0,0.0,0.0,0.0,0.0,0.0,0.0,0.0,0.0,0.0,0.0,0.0,0.0,0.0,0.0,0.0,0.0,0.0,0.0,0.0,0.0,0.0,0.0,0.0,0.0,0.0,0.0,0.0,0.0,0.0,0.0,0.0,0.0,0.0,0.0,0.0,0.0,0.0,0.0,0.0,-4.1174,0.0,0.0,0.0,0.0,0.0,0.0,0.0,0.0,0.0,0.0,0.0,0.0,0.0,0.0,0.0,0.0,0.0,0.0,0.0,0.0,0.0,0.0,0.0,0.0,0.0,0.0,0.0,0.0,0.0,0.0,0.0,0.0,0.0,0.0,0.0,0.0,0.0,0.0,0.0,0.0,-4.0141,-4.3894,-4.6829,-4.8595,-4.8932,-4.8776,-4.8161,-4.7607,-4.5747,-4.2117,-3.8822,0.0,0.0,0.0,0.0,0.0,0.0,0.0,0.0,0.0,0.0,0.0,0.0,0.0,0.0,0.0,0.0,0.0,0.0,0.0,0.0,0.0,0.0,0.0,0.0,0.0,0.0,0.0,0.0,0.0,0.0,0.0,0.0,0.0,0.0,0.0,0.0,0.0,0.0,0.0,0.0,0.0,0.0,0.0,0.0,0.0,0.0,0.0,0.0,0.0,0.0,0.0,0.0,0.0,-5.101,-5.1625,-5.2482,-5.3154,-5.3336,-5.2979,-4.8642,-4.7097,-4.7367,0.0,0.0,0.0,0.0,0.0,0.0,0.0,0.0,0.0,0.0,0.0,0.0,0.0,0.0,0.0,0.0,0.0,0.0,0.0,0.0,0.0,0.0,0.0,0.0,0.0,-4.497,-4.4654,0.0,0.0,0.0,0.0,0.0,0.0,0.0,0.0,0.0,0.0,0.0,0.0,-4.1441,-4.4795,-4.7372,-4.9099,-4.9363,-4.9055,-4.828,-4.7689,-4.6404,-4.4026,-4.1111,-3.8006,0.0,0.0,0.0,0.0,0.0,0.0,0.0,0.0,0.0,0.0,0.0,0.0,0.0,0.0,0.0,0.0,0.0,0.0,0.0,0.0,0.0,0.0,0.0,0.0,0.0,0.0,0.0,0.0,0.0,0.0,0.0,0.0,-3.325,-3.643,0.0,0.0,0.0,0.0,0.0,0.0,0.0,0.0,0.0,0.0,0.0,0.0,0.0,-4.9433,-5.0885,-5.3318,-5.5011,-5.6022,-5.7473,-5.8627,-5.9473,-5.9542,-5.9122,-5.8392,-5.763,0.0,-5.099,-4.8221,0.0,0.0,0.0,0.0,0.0,0.0,0.0,0.0,0.0,0.0,0.0,0.0,0.0,0.0,0.0,0.0,0.0,0.0,0.0,0.0,0.0,0.0,-4.8432,-4.9327,-4.9788,-4.9308,0.0,-4.2373,-3.8485,-3.7218,-3.5109,0.0,0.0,0.0,0.0,0.0,0.0,0.0,-4.3478,-4.6269,-4.822,-4.9189,-4.9556,-4.9408,-4.8599,-4.8047,-4.698,-4.5197,-4.2631,-3.9976,-3.733,-3.4006,0.0,0.0,0.0,0.0,0.0,0.0,0.0,0.0,0.0,0.0,0.0,0.0,0.0,0.0,0.0,0.0,0.0,0.0,0.0,0.0,0.0,0.0,0.0,0.0,0.0,0.0,0.0,0.0,0.0,-3.3538,-3.7046,-3.8546,-3.8931,-3.8507,0.0,0.0,0.0,0.0,0.0,0.0,0.0,0.0,0.0,-5.1087,-5.2779,-5.4703,-5.6896,-5.8473,-5.9704,-6.055,-6.1281,-6.1858,-6.2204,-6.218,-6.1925,-6.1579,-6.1555,-6.008,-5.7319,-5.3287,-5.0442,-4.8355,0.0,0.0,0.0,0.0,-4.5402,-4.5278,-4.7586,-4.7586,0.0,0.0,0.0,0.0,0.0,0.0,0.0,0.0,0.0,0.0,0.0,0.0,0.0,-5.1164,-5.1741,-5.1895,-5.1144,-4.8539,-4.5245,0.0,-3.9755,-3.7853,-3.4437,0.0,0.0,0.0,0.0,0.0,-4.4915,-4.7157,-4.8748,-4.9768,-4.983,-4.9567,-4.8921,-4.8059,-4.7067,-4.6031,-4.4055,-4.2221,-4.0616,-3.733,-3.3922,0.0,0.0,0.0,0.0,0.0,0.0,0.0,0.0,0.0,0.0,0.0,0.0,0.0,0.0,0.0,0.0,0.0,0.0,0.0,0.0,0.0,0.0,0.0,0.0,0.0,0.0,0.0,0.0,-3.7007,-4.0162,-4.0823,-4.2393,-4.2739,0.0,0.0,0.0,0.0,0.0,0.0,-5.024,-5.1625,-5.3587,-5.6357,-5.7638,-5.9331,-6.1435,-6.2089,-6.282,-6.3628,-6.3628,-6.3743,-6.3974,-6.3974,-6.3858,-6.3628,-6.3628,-6.3166,-6.205,-5.7543,-5.4737,-5.3049,-5.1356,-4.9817,-4.8779,-5.0894,-5.1241,-5.1087,-5.3857,-5.4241,-5.3164,-5.1048,0.0,-4.6586,-4.3247,0.0,0.0,0.0,0.0,-4.674,-4.8856,-5.051,-5.1895,-5.2702,-5.3356,-5.378,-5.3587,-5.3018,-5.1104,0.0,-4.468,-4.2871,-3.8556,0.0,0.0,0.0,0.0,-4.3265,-4.6405,-4.8048,-4.9213,-5.0087,-5.0038,-4.9619,-4.882,-4.7931,-4.7058,-4.626,-4.501,-4.3978,-4.3138,-4.0234,-3.7101,-3.3731,0.0,0.0,0.0,0.0,0.0,0.0,0.0,0.0,0.0,0.0,0.0,0.0,0.0,0.0,0.0,0.0,0.0,0.0,0.0,0.0,0.0,0.0,0.0,0.0,0.0,0.0,0.0,0.0,0.0,-4.5017,-4.6778,0.0,0.0,0.0,0.0,-4.8933,-5.0587,-5.301,-5.6368,-5.6626,-5.8242,-6.1601,-6.1793,-6.2281,-6.3166,-6.3243,-6.3666,-6.4551,-6.4551,-6.4974,-6.5782,-6.5782,-6.532,-6.4551,-6.4551,-6.4051,-6.3038,-6.0358,-5.8242,-5.6599,-5.4895,-5.3703,-5.301,-5.3972,-5.428,-5.4395,-5.5318,-5.5126,-5.4664,-5.6099,-5.428,-5.1385,-5.0433,-4.8971,0.0,0.0,-5.0279,-5.1731,-5.2702,-5.3626,-5.4511,-5.5318,-5.5549,-5.5357,-5.4587,-5.4395,-5.378,0.0,-4.95,-4.7511,-4.6388,0.0,-4.3715,-4.4735,-4.5229,-4.6166,-4.821,-4.9235,-4.9779,-4.983,-5.0088,-4.9622,-4.7979,-4.7815,-4.7089,-4.5468,-4.5277,-4.4857,-4.3968,-4.2259,-3.9737,-3.6366,-3.221,0.0,0.0,0.0,0.0,0.0,0.0,0.0,0.0,0.0,0.0,0.0,0.0,0.0,0.0,0.0,0.0,0.0,0.0,0.0,0.0,0.0,0.0,0.0,0.0,0.0,0.0,0.0,0.0,-4.9356,-5.1164,0.0,0.0,-5.1548,-5.2779,-5.4213,-5.5857,-5.7819,-6.0177,-6.0781,-6.2127,-6.4474,-6.4551,-6.5205,-6.6577,-6.6577,-6.6744,-6.7051,-6.7051,-6.7205,-6.7475,-6.6936,-6.6513,-6.6167,-6.5667,-6.4936,-6.4089,-6.3166,-6.1781,-6.0215,-5.9638,-5.8511,-5.7357,-5.8242,-5.8204,-5.7857,-5.8704,-5.8434,-5.7627,-5.7176,-5.578,-5.428,-5.401,-5.3472,-5.3164,-5.4049,-5.4731,-5.5385,-5.628,-5.6703,-5.6896,-5.6599,-5.656,-5.6291,-5.5472,-5.528,-5.5088,-5.4472,-5.2277,-4.9862,-4.7695,-4.7301,-4.6772,-4.5322,-4.6686,-4.8134,-4.8843,-4.9605,-5.0113,-5.0113,-4.9778,-4.906,-4.7903,-4.7292,-4.65,-4.5364,-4.4781,-4.4312,-4.4006,-4.2374,-4.0157,-3.733,-3.4732,-3.1064,0.0,0.0,0.0,0.0,0.0,0.0,0.0,0.0,0.0,0.0,0.0,0.0,0.0,0.0,0.0,0.0,0.0,0.0,0.0,0.0,0.0,0.0,0.0,0.0,0.0,0.0,-4.9817,-5.2077,-5.4395,-5.5434,-5.4587,-5.578,-5.7203,-5.8638,-6.0012,-6.155,-6.3294,-6.3897,-6.4974,-6.6705,-6.6744,-6.7282,-6.8385,-6.8385,-6.8385,-6.8385,-6.8385,-6.8385,-6.8385,-6.7782,-6.7552,-6.7475,-6.6667,-6.5974,-6.5436,-6.5166,-6.4205,-6.2897,-6.2332,-6.1408,-6.0396,-6.0704,-6.0435,-6.0012,-6.0589,-6.0435,-5.9704,-5.828,-5.7434,-5.6934,-5.6665,-5.6588,-5.6703,-5.728,-5.7423,-5.7577,-5.8165,-5.8319,-5.8165,-5.7588,-5.7214,-5.683,-5.6252,-5.5895,-5.5703,-5.5703,-5.4143,-5.2186,-5.0254,-5.0259,-4.9789,-4.7579,-4.8697,-4.9689,-4.9363,-4.9808,-5.0113,-5.0113,-4.9778,-4.9022,-4.7903,-4.7253,-4.6462,-4.5364,-4.4475,-4.4006,-4.4006,-4.2144,-4.0157,-3.8171,-3.5381,-3.2012,-2.8077,0.0,0.0,0.0,0.0,0.0,0.0,0.0,0.0,0.0,0.0,0.0,0.0,0.0,0.0,0.0,0.0,0.0,0.0,0.0,0.0,0.0,0.0,0.0,-4.5633,-4.8711,-5.151,-5.3203,-5.6357,-5.8088,-5.7253,-5.9396,-6.1243,-6.2101,-6.2935,-6.4128,-6.5859,-6.5974,-6.6744,-6.8385,-6.8423,-6.8462,-6.8475,-6.8475,-6.8475,-6.8475,-6.8475,-6.8475,-6.8475,-6.8462,-6.8423,-6.8385,-6.7513,-6.7128,-6.7051,-6.6244,-6.5436,-6.4474,-6.2832,-6.2139,-6.1985,-6.1127,-6.0819,-6.0781,-6.0781,-6.0781,-6.0666,-5.9819,-5.955,-5.9396,-5.8627,-5.8396,-5.8396,-5.8396,-5.8396,-5.8396,-5.8396,-5.8396,-5.8357,-5.8357,-5.7703,-5.706,-5.7022,-5.6329,-5.5742,-5.5703,-5.5049,-5.4511,-5.4511,-5.3738,-5.2839,-5.1979,-5.1483,0.0,-4.9982,-4.9817,-4.9817,-4.9817,-5.01,-4.9595,-4.7941,-4.7788,-4.7035,-4.5354,-4.4437,-4.3968,-4.3968,-4.1638,-3.9919,-3.9011,-3.4159,-3.0751,-2.9025,0.0,0.0,0.0,0.0,0.0,0.0,0.0,0.0,0.0,0.0,0.0,0.0,0.0,0.0,0.0,0.0,0.0,0.0,0.0,0.0,0.0,0.0,-4.8279,-4.9173,-5.2751,-5.5906,-5.7588,-5.9704,-6.0947,-6.0716,-6.1858,-6.2974,-6.3858,-6.4705,-6.5628,-6.6705,-6.7359,-6.8205,-6.9321,-6.936,-6.9629,-7.0206,-7.0206,-7.0206,-7.0206,-7.0206,-7.0206,-7.0206,-6.9629,-6.936,-6.9283,-6.8436,-6.7667,-6.709,-6.6859,-6.6282,-6.5436,-6.432,-6.3166,-6.2062,-6.1831,-6.1331,-6.0781,-6.0781,-6.0781,-6.0742,-6.0512,-6.0435,-6.0396,-6.0165,-6.0127,-6.0127,-6.0127,-6.0127,-6.0127,-6.0127,-6.0127,-5.9935,-5.9319,-5.8973,-5.8473,-5.7253,-5.683,-5.6445,-5.5818,-5.5511,-5.5154,-5.4545,-5.4216,-5.3722,-5.2812,-5.2093,0.0,-5.1214,-5.0629,-5.0224,-5.0188,-4.9713,-4.8984,-4.7903,-4.7215,-4.6156,-4.4465,-4.3596,-4.3138,-4.3138,-4.1877,-4.0501,-3.9049,-3.584,-3.3349,0.0,0.0,0.0,0.0,0.0,0.0,0.0,0.0,0.0,0.0,0.0,0.0,0.0,0.0,0.0,0.0,0.0,0.0,0.0,0.0,0.0,0.0,-4.9337,-5.2472,-5.3703,-5.6011,-5.828,-6.0358,-6.1473,-6.237,-6.3089,-6.3589,-6.4359,-6.5551,-6.6128,-6.6936,-6.8129,-6.8667,-6.9321,-7.0167,-7.0206,-7.0437,-7.0898,-7.0898,-7.0898,-7.0898,-7.0898,-7.0898,-7.0898,-7.0437,-7.0206,0.0,-6.9321,-6.8436,-6.7628,-6.7244,-6.6628,0.0,0.0,0.0,0.0,0.0,-6.155,-6.0781,-6.0781,-6.0781,-6.0781,-6.0781,-6.0781,-6.0781,-6.0781,-6.0781,-6.0781,-6.0781,-6.0781,-6.0781,-6.0781,-6.0781,-6.0666,-6.0165,-5.9781,-5.9242,-5.8242,-5.7522,-5.6868,-5.6329,-5.5934,0.0,-5.5017,-5.4929,-5.4639,-5.3705,-5.2872,-5.2198,-5.1764,-5.0948,-5.039,-5.0356,-4.9912,-4.9251,-4.8411,-4.757,0.0,0.0,0.0,-4.2832,-4.18,-4.1266,0.0,0.0,0.0,0.0,0.0,0.0,0.0,0.0,-3.2863,-3.2482,0.0,0.0,0.0,0.0,0.0,0.0,0.0,0.0,0.0,0.0,0.0,0.0,0.0,0.0,0.0,0.0,-5.3408,-5.6588,-5.8357,-5.8665,-5.9588,-6.1831,-6.2178,-6.2858,-6.4436,-6.4782,-6.5513,-6.6974,-6.7282,-6.8052,-6.9629,0.0,0.0,0.0,0.0,-7.0898,-7.0898,-7.0898,-7.0898,-7.0898,-7.0898,-7.0898,-7.0898,-7.0898,-7.0898,-7.086,-7.0167,-6.936,-6.8475,-6.759,-6.6705,-6.582,-6.4936,-6.4589,-6.4397,-6.2716,-6.1601,-6.0935,-6.0819,0.0,0.0,-6.0781,-6.0781,-6.0781,-6.0781,-6.0781,-6.0781,-6.0781,-6.0781,-6.0781,-6.0781,-6.0781,-6.0781,-6.0781,-6.0204,-5.9627,-5.9511,-5.8242,-5.7137,-5.7022,-5.6291,-5.5703,-5.5703,-5.5703,-5.5401,-5.4572,-5.3788,-5.2894,-5.1978,-5.1101,-5.0516,-5.039,0.0,0.0,-4.9186,-4.8296,-4.7379,-4.6424,-4.4885,-4.3013,-4.0798,-4.0721,-4.0301,-3.947,-3.9431,-4.0119,-4.1495,-4.1609,-4.1686,-4.1648,-3.6681,-3.5389,0.0,0.0,0.0,0.0,0.0,0.0,0.0,0.0,0.0,0.0,0.0,0.0,0.0,0.0,0.0,-5.2919,-5.5961,-5.8396,-6.0089,-6.0935,-6.1562,-6.2062,-6.2666,-6.3474,-6.4512,-6.582,-6.6744,-6.709,-6.8398,-6.936,-6.9667,-7.0321,0.0,-7.0898,-7.0898,-7.0898,-7.0898,-7.0898,-7.0898,-7.0898,0.0,0.0,-7.0898,-7.0898,-7.0898,-7.0898,-7.0744,-7.0206,-6.9398,-6.8513,-6.7244,-6.582,-6.4936,-6.4589,-6.4397,-6.2716,-6.1985,-6.1755,-6.105,-6.0781,-6.0781,-6.0781,-6.0781,-6.0781,-6.0781,-6.0781,0.0,-6.0781,-6.0781,-6.0781,-6.0781,-6.0781,-6.0781,-6.0781,-6.0666,-6.0358,-5.9665,-5.8742,-5.7857,-5.7137,-5.6291,-5.5703,-5.5703,-5.5703,-5.5626,-5.5451,-5.4715,-5.3827,-5.2866,-5.1978,-5.1155,-5.0421,-5.0321,-4.9977,-4.9186,-4.8296,-4.715,-4.5621,-4.459,-4.3777,-4.3281,-4.3281,-4.2899,-4.2068,-4.2068,-4.1877,-4.1495,-4.2221,-4.287,-4.3433,-4.0821,-3.986,0.0,0.0,0.0,0.0,0.0,0.0,0.0,0.0,0.0,0.0,0.0,-4.3771,0.0,0.0,-5.3052,-5.6054,-5.787,-5.9358,-6.0627,-6.1166,-6.1743,-6.2589,-6.3435,-6.4282,-6.5166,-6.6359,-6.7282,-6.7705,-6.8975,-6.9898,-7.0283,-7.0667,-7.0898,-7.0898,-7.1321,-7.1552,-7.1552,-7.1975,-7.1975,-7.1552,-7.1552,-7.1321,-7.0898,-7.0898,-7.0898,-7.0898,-7.0898,-7.0437,-6.959,-6.8282,-6.7013,-6.5859,-6.5436,-6.4974,-6.4512,-6.3666,-6.2832,-6.2062,-6.1601,-6.1166,-6.0781,-6.0781,-6.0781,-6.0781,-6.0781,-6.0781,-6.0781,-6.0781,-6.0781,-6.0781,-6.0781,-6.0781,-6.0781,-6.0781,-6.0781,-6.0666,-6.0242,-5.9473,-5.8665,-5.7819,-5.6934,-5.6214,-5.578,-5.5703,-5.5692,-5.5671,-5.4968,-5.4101,-5.3152,-5.2302,-5.1414,-5.0489,-5.0356,-5.013,-4.971,-4.8525,-4.7264,-4.5965,-4.5125,-4.4437,-4.4006,-4.4006,-4.3815,-4.3395,-4.3395,-4.3405,-4.3405,-4.3825,-4.4246,-4.4618,-4.3464,-4.2957,0.0,0.0,0.0,0.0,0.0,0.0,0.0,0.0,-4.1304,-4.474,-4.7109,-4.9508,-5.2645,-5.4997,-5.6958,-5.8505,-5.9359,-6.003,-6.0716,-6.0935,-6.155,-6.2897,-6.382,-6.4743,-6.5782,-6.6782,-6.7628,-6.8359,-6.936,-7.0206,-7.086,-7.0898,-7.0975,-7.1168,-7.1822,-7.2283,-7.2437,-7.3168,-7.3168,-7.2437,-7.2283,-7.1822,-7.1168,-7.0975,-7.0898,-7.0898,-7.0898,-7.0437,-6.959,-6.8013,-6.6859,-6.6128,-6.5974,-6.5474,-6.482,-6.4666,-6.3743,-6.2563,-6.2216,-6.1639,-6.1012,-6.0858,-6.0781,-6.0781,-6.0781,-6.0781,-6.0781,-6.0781,-6.0781,-6.0781,-6.0781,-6.0781,-6.0781,-6.0781,-6.0781,-6.0781,-6.0781,-6.0127,-5.9281,-5.8473,-5.7588,-5.6714,-5.5857,-5.5703,-5.5692,-5.5638,-5.5083,-5.4363,-5.3464,-5.2576,-5.17,-5.0845,-5.0478,-5.0256,-5.0092,-4.8678,-4.7406,-4.6577,-4.5736,-4.4972,-4.4274,-4.4236,-4.4236,-4.4236,-4.4236,-4.459,-4.5288,-4.5288,-4.5288,-4.5277,-4.5004,-4.4849,-3.5621,-3.5579,-3.6586,-3.9627,-3.9897,-4.0991,0.0,0.0,-4.7549,-5.0986,-5.2425,-5.3658,-5.5533,-5.7264,-5.8683,-5.952,-6.0326,-6.0828,-6.0816,-6.1485,-6.2024,-6.2216,-6.2935,-6.4089,-6.5743,-6.7321,-6.8321,-6.8385,-6.986,-7.0821,-7.0898,-7.0898,-7.1245,-7.2014,-7.2129,-7.2552,-7.336,-7.3437,-7.3437,-7.336,-7.2552,-7.2129,-7.2014,-7.1245,-7.0898,-7.0898,-7.0898,-7.0437,-6.9629,-6.8667,-6.7744,-6.6898,-6.6167,-6.582,-6.5667,-6.4897,-6.4474,-6.4128,-6.2639,-6.2062,-6.1831,-6.105,-6.0781,-6.0781,-6.0781,-6.0781,-6.0781,-6.0781,-6.0781,-6.0781,-6.0781,-6.0781,-6.0781,-6.0781,-6.0781,-6.0781,-6.0781,-6.0127,-5.9281,-5.8473,-5.7588,-5.6714,-5.5857,-5.5703,-5.5703,-5.5703,-5.5583,-5.5165,-5.4359,-5.3459,-5.2532,-5.1738,-5.0905,-5.0073,-4.9301,-4.8334,-4.7406,-4.6577,-4.5736,-4.525,-4.5163,-4.5163,-4.5163,-4.5163,-4.5163,-4.5201,-4.5288,-4.5288,-4.5288,-4.5277,-4.5256,-4.5087,-4.1042,-4.0881,0.0,0.0,-4.5324,-4.6688,-5.0087,-5.1102,-5.2038,-5.4459,-5.5932,-5.7143,-5.8439,-5.9503,-6.024,0.0,-6.0842,-6.0963,-6.0816,-6.1089,-6.1524,-6.2062,-6.2397,-6.3281,-6.4974,-6.7128,-6.8385,-6.8385,-6.9937,-7.0898,-7.0898,-7.0898,-7.1283,-7.2168,-7.2706,-7.336,-7.4207,-7.4707,-7.4707,-7.4207,-7.336,-7.2706,-7.2168,-7.1283,-7.0898,-7.0898,-7.0898,-7.0437,-6.9629,-6.8783,-6.7898,-6.7013,-6.6205,-6.5897,-6.5859,-6.5474,-6.5051,-6.4436,-6.3205,-6.2474,-6.1947,-6.1089,-6.0781,-6.0781,-6.0781,-6.0781,-6.0781,-6.0781,-6.0781,-6.0781,-6.0781,-6.0781,-6.0781,-6.0781,-6.0781,-6.0781,-6.0781,-6.0512,-6.0012,-5.9165,-5.8319,-5.7473,-5.6599,-5.6049,-5.5703,-5.5703,-5.5682,-5.5363,-5.4556,-5.3629,-5.2538,-5.1201,-5.067,-5.0303,-4.9937,-4.9133,-4.8252,-4.7448,-4.6536,-4.5865,-4.5367,-4.5298,-4.5288,-4.5288,-4.5288,-4.5288,-4.5288,-4.5288,-4.5288,-4.5288,-4.5288,-4.5235,-4.4663,0.0,0.0,-4.7742,-4.9733,-5.1451,-5.2585,-5.399,-5.5474,-5.6996,-5.8172,-5.9244,-6.0229,-6.0703,0.0,-6.1161,-6.1322,-6.1263,-6.0866,-6.1012,-6.1281,-6.1678,-6.1947,-6.2589,-6.3782,-6.6205,-6.7898,-6.8359,-6.9744,-7.0667,-7.0898,-7.1129,-7.1668,-7.2514,-7.3399,-7.4245,-7.5053,-7.5668,-7.5668,-7.5053,-7.4207,-7.3399,-7.2514,-7.1398,-7.0898,-7.0898,-7.0898,-7.0552,-6.9937,-6.8859,-6.8013,-6.7359,-6.632,-6.5897,-6.5897,-6.5897,-6.5513,-6.482,-6.3974,-6.3128,-6.2281,-6.1435,-6.1012,-6.0781,-6.0781,-6.0781,-6.0781,-6.0781,-6.0781,-6.0781,-6.0781,-6.0781,-6.0781,-6.0781,-6.0781,-6.0781,-6.0781,-6.0781,-6.055,-5.9665,-5.8858,-5.8011,-5.7137,-5.6291,-5.5703,-5.5703,-5.5703,-5.5472,-5.4895,-5.3825,-5.2476,-5.0724,-5.0521,-5.0521,-5.05,-4.9705,-4.8938,-4.8363,-4.7228,-4.6355,-4.5742,-4.5462,-4.5288,-4.5288,-4.5288,-4.5288,-4.5288,-4.5288,-4.5288,-4.5288,-4.5288,-4.5288,0.0,0.0,-4.8876,-4.9772,-5.1958,-5.4342,-5.6059,-5.7074,-5.7933,-5.8831,-5.9063,-5.9375,-6.0237,-6.039,-6.0581,-6.1117,-6.1917,-6.2064,-6.0965,-6.1524,-6.1755,-6.0935,-6.1601,-6.2139,0.0,-6.4474,-6.6667,-6.8269,-6.9244,-7.009,-7.086,-7.1706,-7.2552,-7.3437,-7.4245,-7.5091,-7.5938,-7.5976,-7.5976,-7.5938,-7.5091,-7.4245,-7.3399,-7.1668,-7.0898,-7.0898,-7.0898,-7.0898,-7.0744,-6.909,-6.8385,-6.8205,-6.6551,-6.5897,-6.5897,-6.5897,-6.5859,-6.5743,-6.4859,-6.3974,-6.3128,-6.232,-6.1473,-6.0781,-6.0781,-6.0781,-6.0781,-6.0781,-6.0781,-6.0781,-6.0781,-6.0781,-6.0781,-6.0781,-6.0781,-6.0781,-6.0781,-6.0781,-6.055,-5.9665,-5.8858,-5.8011,-5.7137,-5.6291,-5.5703,-5.5703,-5.5703,-5.5703,-5.5665,-5.4203,-5.2518,-5.0776,-5.0612,-5.0553,-5.0511,-4.9705,-4.9207,-4.9168,-4.7535,-4.6585,-4.6546,-4.5768,-4.5288,-4.5288,-4.5288,-4.5288,-4.5288,-4.5288,-4.5288,-4.5288,-4.5288,-4.5288,-4.7045,0.0,-5.1726,-5.3171,-5.5044,-5.6996,-5.8714,-5.887,-5.8909,-5.9768,-5.9026,-5.8324,-5.8636,-5.9143,-5.9531,-5.9555,-6.1211,-6.2112,-6.0965,-6.2012,-6.2358,-6.0973,-6.1562,0.0,0.0,0.0,0.0,-6.7436,-6.8898,-7.0052,-7.086,-7.1745,-7.2591,-7.3476,-7.4284,-7.513,-7.5976,-7.6015,-7.6015,-7.5976,-7.4591,-7.3476,-7.2591,-7.1437,-7.0898,-7.0898,-7.0898,-7.0898,-7.0821,-6.9706,-6.8936,-6.8269,-6.7128,-6.6359,-6.5897,-6.5897,-6.5897,-6.5782,-6.4897,-6.4051,-6.3166,-6.2358,-6.1524,-6.0781,-6.0781,-6.0781,-6.0781,-6.0781,-6.0781,-6.0781,-6.0781,-6.0781,-6.0781,-6.0781,-6.0781,-6.0781,-6.0781,-6.0781,-6.0704,-6.0435,-5.9665,-5.8819,-5.8011,-5.7126,-5.6368,-5.578,-5.5703,-5.5511,-5.4972,-5.3895,-5.2769,-5.1595,-5.098,-5.0673,-5.0614,-5.0345,-4.9961,-4.9384,-4.869,-4.7834,-4.6712,-4.6286,-4.5851,-4.5326,-4.5288,-4.5288,-4.5288,-4.5288,-4.5288,-4.5288,-4.5288,-4.5288,-4.9505,-5.1882,-5.4031,-5.5747,-5.7465,-5.8948,-5.9768,-5.9495,-5.8987,-5.8636,-5.7426,-5.6333,-5.602,-5.645,-5.7161,-5.8132,-6.0151,-6.1538,-6.1345,-6.2764,-6.3243,-6.1858,-6.2204,0.0,0.0,0.0,0.0,-6.7475,-6.859,-6.9706,-7.0821,-7.2014,-7.2937,-7.3462,-7.4591,-7.5438,-7.5976,-7.6015,-7.6015,-7.5976,-7.4322,-7.3206,-7.2629,-7.1437,-7.0898,-7.0898,-7.0898,-7.0898,-7.0821,-7.0014,-6.9206,-6.8321,-6.7436,-6.659,-6.5897,-6.5897,-6.5897,-6.582,-6.5243,-6.4282,-6.3205,-6.2704,-6.1743,-6.0781,-6.0781,-6.0781,-6.0781,-6.0781,-6.0781,-6.0781,-6.0781,-6.0781,-6.0781,-6.0781,-6.0781,-6.0781,-6.0781,-6.0781,-6.0781,-6.0781,-6.0089,-5.9242,-5.8434,-5.7319,-5.6368,-5.578,-5.5703,-5.5395,-5.4587,-5.3741,-5.2856,-5.2,-5.1164,-5.0712,-5.0712,-5.0712,-5.0481,-4.9894,-4.946,-4.8718,-4.7654,-4.7176,-4.674,-4.6237,-4.6205,-4.6194,-4.6194,-4.6194,-4.6205,-4.6237,-4.6205,-4.6205,-5.212,-5.4188,-5.5942,-5.7543,-5.9183,-6.0159,-5.93,-5.8985,-5.8207,-5.5747,-5.442,-5.3483,0.0,0.0,-5.3738,-5.6896,-5.8874,-6.0554,-6.2104,-6.3665,-6.4359,0.0,0.0,0.0,0.0,0.0,0.0,-6.8269,0.0,-6.9129,-7.0821,-7.2552,-7.3514,-7.3514,-7.513,-7.6015,-7.6015,-7.6015,-7.6015,-7.5976,-7.4322,-7.3514,-7.3437,-7.1706,-7.0898,-7.0898,-7.0898,-7.0898,-7.0821,-7.009,-6.9206,-6.8321,-6.7475,-6.6628,-6.5897,-6.5897,-6.5897,-6.5897,-6.5897,-6.4782,-6.3346,-6.3308,-6.2204,-6.0858,-6.0819,-6.0781,-6.0781,-6.0781,-6.0781,-6.0781,-6.0781,-6.0781,-6.0781,-6.0781,-6.0781,-6.0781,-6.0781,-6.0781,-6.0781,-6.0781,-6.0089,-5.9242,-5.8434,-5.6896,-5.5742,-5.5703,-5.5703,-5.5434,-5.4664,-5.3818,-5.2933,-5.2038,-5.1241,-5.075,-5.0712,-5.0712,-5.0712,-5.0712,-4.9805,-4.9276,-4.9278,-4.8394,-4.787,-4.7897,-4.7832,-4.7799,-4.7799,-4.7799,-4.7832,-4.7897,-4.7832,-4.7832,-5.411,-5.6801,-5.9183,-5.9612,-6.008,-6.0159,-5.93,-5.7621,-5.5903,-5.4615,-5.2078,-5.0048,0.0,0.0,0.0,-5.4554,-5.8758,0.0,-6.2259,-6.4205,0.0,-6.4359,0.0,-6.5474,-6.6051,-6.632,0.0,0.0,-6.8783,-6.9129,-7.0821,-7.2552,-7.3514,-7.3514,-7.513,-7.6015,-7.6015,-7.6015,-7.6015,-7.5976,-7.4322,-7.3514,-7.3437,-7.1706,-7.0898,-7.0898,-7.0898,-7.0898,-7.0898,-7.0667,-6.9744,-6.8398,-6.8167,-6.7167,-6.5897,-6.5897,-6.5897,-6.5897,-6.5897,-6.5166,-6.4166,-6.3512,-6.2627,-6.1639,-6.1012,-6.0781,-6.0781,-6.0781,-6.0781,-6.0781,-6.0781,-6.0781,-6.0781,-6.0781,-6.0781,-6.0781,-6.0781,-6.0781,-6.0781,-6.0781,-6.0089,-5.9242,-5.8434,-5.7396,-5.6445,-5.578,-5.5703,-5.5626,-5.5434,-5.4664,-5.3818,-5.2972,-5.2087,-5.1356,-5.075,-5.0712,-5.0712,-5.0712,-5.0412,-4.9959,-4.9326,-4.9015,-4.8552,-4.7997,-4.7977,-4.7966,-4.7966,-4.7966,-4.7977,-4.7959,-4.7977,-4.7918,-5.6411,-5.8636,-6.0471,-6.0861,-6.0393,-5.9417,-5.7816,-5.5435,-5.2936,-5.0555,-4.8486,0.0,0.0,0.0,0.0,0.0,0.0,0.0,-6.2637,-6.4337,-6.5436,0.0,-6.6128,0.0,-6.759,-6.7667,-6.8244,0.0,-6.9244,-6.9552,-7.0821,-7.2552,-7.3514,-7.3514,-7.513,-7.6015,-7.6015,-7.6015,-7.6015,-7.5976,-7.4322,-7.3514,-7.3437,-7.1706,-7.0898,-7.0898,0.0,-7.0898,-7.0898,-7.0898,-7.0129,-6.8936,-6.8552,-6.759,-6.6359,-6.6013,-6.5897,-6.5897,-6.5897,-6.559,-6.5013,-6.4166,-6.3051,-6.2024,-6.1524,-6.1089,-6.0781,-6.0781,-6.0781,-6.0781,-6.0781,-6.0781,-6.0781,-6.0781,-6.0781,-6.0781,-6.0781,-6.0781,-6.0781,-6.0781,-6.0089,-5.9358,-5.8896,-5.7819,-5.683,-5.6329,-5.5934,-5.5703,-5.5703,-5.5011,-5.4164,-5.328,-5.2423,-5.1587,-5.0789,-5.0712,-5.0712,-5.0712,-5.0653,-5.0402,-4.9932,-4.9823,-4.9562,-4.9161,-4.9102,-4.9081,-4.9081,-4.9081,-4.9102,-4.9161,-4.9092,-4.9071,-5.8597,-5.9924,-6.0744,-6.1369,-6.0156,-5.8089,-5.5552,-5.2741,-4.9618,-4.5636,0.0,-4.3645,-4.15,0.0,-4.7276,-5.0828,0.0,-5.8065,-6.3136,-6.4406,-6.5445,-6.7115,-6.7423,-6.7783,-6.8667,-6.8744,-6.9052,-6.9821,-6.986,-7.0167,-7.086,-7.2437,-7.3437,-7.3654,-7.5168,-7.6015,-7.6015,-7.6015,-7.6015,-7.5976,-7.4322,-7.3514,-7.3437,-7.1706,-7.0898,-7.0898,0.0,0.0,-7.0898,-7.0898,-7.0437,-6.9629,-6.8744,-6.7859,-6.7013,-6.6205,-6.5897,-6.5897,-6.5897,-6.5897,-6.5743,-6.4897,-6.3551,-6.2255,-6.2139,-6.1473,-6.0781,-6.0781,-6.0781,-6.0781,-6.0781,-6.0781,-6.0781,-6.0781,-6.0781,-6.0781,-6.0781,-6.0781,-6.0781,-6.0781,-6.0204,-5.9627,-5.9511,-5.828,-5.7253,-5.7022,-5.6368,-5.5818,-5.5703,-5.5088,-5.4318,-5.3472,-5.2702,-5.1856,-5.0933,-5.0856,-5.0827,-5.0712,-5.0663,-5.0653,-5.0702,-5.0584,-5.0542,-5.0594,-5.0553,-5.0521,-5.0521,-5.0521,-5.0553,-5.0594,-5.0542,-5.0521,-5.9651,-6.0822,-6.133,-6.0783,-5.8792,-5.6333,-5.3756,-5.0048,0.0,0.0,0.0,-4.0795,-4.1031,-4.3372,0.0,-5.0711,0.0,0.0,0.0,0.0,-6.6591,0.0,0.0,0.0,0.0,0.0,0.0,0.0,0.0,0.0,-7.0898,-7.186,-7.3053,-7.4437,-7.5476,-7.6015,-7.6015,-7.6015,-7.6015,-7.5976,-7.4322,-7.3514,-7.3437,-7.1706,-7.0898,-7.0898,-7.0898,0.0,-7.0898,-7.0898,-7.0437,-6.9629,-6.8744,-6.7859,-6.7013,-6.6205,-6.5897,-6.5897,-6.5897,-6.5897,-6.5743,-6.4897,-6.3935,-6.2974,-6.2293,-6.1473,-6.0781,-6.0781,-6.0781,-6.0781,-6.0781,-6.0781,-6.0781,-6.0781,-6.0781,-6.0781,-6.0781,-6.0781,-6.0781,-6.0781,-6.0666,-6.0358,-5.9627,-5.9242,-5.8588,-5.7214,-5.6868,-5.6522,-5.578,-5.5588,-5.5164,-5.4357,-5.4126,-5.3395,-5.1808,-5.1692,-5.1395,-5.075,-5.0702,-5.0702,-5.0712,-5.0692,-5.0682,-5.0692,-5.0682,-5.0682,-5.0682,-5.0682,-5.0682,-5.0692,-5.0682,-5.0653,-6.0588,-6.1369,-6.1483,-6.0627,-5.8128,-5.5123,-5.2038,0.0,0.0,0.0,0.0,-3.9039,-3.8531,0.0,0.0,0.0,0.0,0.0,0.0,0.0,0.0,0.0,0.0,0.0,0.0,0.0,0.0,0.0,0.0,0.0,-7.0898,-7.2168,-7.3437,-7.4668,-7.5553,-7.6015,-7.6015,-7.6015,-7.5784,-7.5322,-7.4091,-7.3283,-7.2783,-7.1475,-7.0898,-7.0898,-7.0898,0.0,-7.0898,-7.0898,-7.0667,-7.0206,-6.8898,-6.8129,-6.7628,-6.6359,-6.5897,-6.5897,-6.5897,-6.5897,-6.582,-6.5397,-6.4397,-6.3243,-6.2858,-6.182,-6.0781,-6.0781,-6.0781,-6.0781,-6.0781,-6.0781,-6.0781,-6.0781,-6.0781,-6.0781,-6.0781,-6.0781,-6.0781,-6.0781,-6.0781,-6.0666,-6.0242,-5.9819,-5.9088,-5.7857,-5.728,-5.6676,-5.5818,-5.5703,-5.5395,-5.4587,-5.4511,-5.3972,-5.2692,-5.2154,-5.1731,-5.1356,-5.0933,-5.0712,-5.0712,-5.0712,-5.0712,-5.0712,-5.0712,-5.0712,-5.0712,-5.0712,-5.0712,-5.0712,-5.0712,-5.0673,-6.0939,-6.1562,-6.1444,-6.0393,-5.7543,-5.4068,-5.0397,-4.6222,0.0,0.0,-3.8181,-3.7672,-3.65,0.0,0.0,0.0,0.0,0.0,0.0,0.0,0.0,0.0,0.0,0.0,0.0,0.0,0.0,0.0,0.0,0.0,-7.0898,-7.2399,-7.3591,-7.4437,-7.5284,-7.5822,-7.6015,-7.5822,-7.5399,-7.4707,-7.3707,-7.286,-7.2168,-7.1283,-7.0898,-7.0898,-7.0898,0.0,0.0,-7.0898,-7.0898,-7.0744,-6.9052,-6.8385,-6.8205,-6.6513,-6.5897,-6.5897,-6.5897,-6.5897,-6.5897,-6.5897,-6.4705,-6.3308,-6.3308,-6.2127,-6.0781,-6.0781,-6.0781,-6.0781,-6.0781,-6.0781,-6.0781,-6.0781,-6.0781,-6.0781,-6.0781,-6.0781,-6.0781,-6.0781,-6.0781,-6.0781,-6.0781,-6.0242,-5.9511,-5.8665,-5.7819,-5.6983,-5.6088,-5.5818,-5.5472,-5.4818,-5.4741,-5.4395,-5.3549,-5.2856,-5.2308,-5.1923,-5.1318,-5.0894,-5.0712,-5.0712,-5.0712,-5.0712,-5.0712,-5.0712,-5.0712,-5.0712,-5.0712,-5.0712,-5.0712,-5.0682,-6.0041,-6.1095,-6.1288,-5.961,-5.6645,-5.3014,-4.8796,0.0,0.0,-3.7946,-3.6774,-3.6422,-3.7048,-3.8142,0.0,0.0,0.0,-5.1288,0.0,0.0,0.0,0.0,0.0,0.0,0.0,0.0,0.0,0.0,0.0,0.0,0.0,-7.1783,-7.2706,-7.3591,-7.4399,-7.5207,-7.5976,-7.5207,-7.4784,-7.4668,-7.3091,-7.2283,-7.2168,-7.1283,-7.0898,-7.0898,-7.0898,0.0,0.0,-7.0898,-7.0898,-7.0744,-6.9052,-6.8385,-6.8205,-6.6513,-6.5897,-6.5897,-6.5897,-6.5897,-6.5897,-6.5897,-6.4705,-6.3308,-6.3308,-6.2127,-6.0781,-6.0781,-6.0781,-6.0781,-6.0781,-6.0781,-6.0781,-6.0781,-6.0781,-6.0781,-6.0781,-6.0781,-6.0781,-6.0781,-6.0781,-6.0781,-6.0781,-6.0742,-6.0396,-5.9511,-5.8704,-5.7857,-5.6983,-5.6214,-5.5665,-5.5588,-5.5588,-5.5241,-5.4434,-5.4318,-5.3587,-5.2,-5.1846,-5.1471,-5.075,-5.0712,-5.0712,-5.0712,-5.0712,-5.0712,-5.0712,-5.0712,-5.0712,-5.0712,-5.0712,-5.0702,-5.9143,-6.0627,-6.1288,-5.9532,-5.6528,-5.3014,-4.9189,0.0,-4.0524,-3.8494,-3.697,-3.6109,-3.6461,-3.7243,-3.9001,-4.2593,-4.4153,-4.7002,0.0,0.0,0.0,0.0,0.0,0.0,0.0,0.0,0.0,0.0,0.0,0.0,0.0,-7.1745,-7.236,-7.2706,-7.3553,-7.413,-7.4476,-7.4168,-7.3707,-7.3206,-7.2514,-7.1937,-7.1398,-7.1052,-7.0898,-7.0898,-7.0898,0.0,0.0,-7.0898,-7.0591,-7.0052,-6.8859,-6.809,-6.7475,-6.632,-6.5897,-6.5897,-6.5897,-6.5897,-6.5897,-6.5897,-6.4705,-6.3308,-6.3308,-6.2127,-6.0781,-6.0781,-6.0781,-6.0781,-6.0781,-6.0781,-6.0781,-6.0781,-6.0781,-6.0781,-6.0781,-6.0781,-6.0781,-6.0781,-6.0781,-6.0781,-6.0781,-6.0781,-6.0512,-5.9627,-5.8819,-5.7973,-5.7099,-5.6252,-5.5703,-5.5703,-5.5703,-5.5549,-5.5241,-5.478,-5.4203,-5.351,-5.2972,-5.2318,-5.1471,-5.1433,-5.1202,-5.0712,-5.0712,-5.0712,-5.0712,-5.0712,-5.0712,-5.0712,-5.0712,-5.0712,-5.7465,-5.9222,-6.0198,-5.8714,-5.5981,-5.2624,0.0,0.0,-4.0563,-3.8611,-3.7048,-3.5992,-3.5992,-3.6696,-3.8063,-4.0327,-4.1888,-4.4582,-4.9772,0.0,0.0,0.0,0.0,0.0,0.0,0.0,0.0,0.0,0.0,0.0,0.0,-7.1475,-7.1937,-7.2168,-7.2783,-7.3245,-7.3514,-7.3245,-7.2822,-7.2206,-7.1937,-7.1475,-7.0898,-7.0898,-7.0898,-7.0898,0.0,0.0,0.0,-7.0898,-7.0437,-6.9629,-6.8744,-6.7859,-6.7013,-6.6205,-6.5897,-6.5897,-6.5897,-6.5897,-6.5897,-6.5897,-6.4705,-6.3308,-6.3308,-6.2127,-6.0781,-6.0781,-6.0781,-6.0781,-6.0781,-6.0781,-6.0781,-6.0781,-6.0781,-6.0781,-6.0781,-6.0781,-6.0781,-6.0781,-6.0781,-6.0781,-6.0781,-6.0781,-6.0589,-5.9973,-5.9165,-5.8357,-5.7473,-5.6626,-5.5972,-5.5742,-5.5703,-5.5703,-5.5703,-5.5164,-5.4741,-5.4511,-5.3933,-5.3203,-5.2308,-5.2269,-5.1895,-5.1087,-5.1048,-5.0933,-5.0712,-5.0712,-5.0712,-5.0712,-5.0712,-5.0712,-5.4619,-5.6567,-5.766,-5.684,-5.4654,-5.1572,0.0,-4.3608,-4.0367,-3.7828,-3.6617,-3.5992,-3.5992,-3.6696,-3.7867,-3.9546,-4.2006,-4.548,-5.0672,0.0,0.0,0.0,0.0,0.0,0.0,0.0,0.0,0.0,0.0,0.0,0.0,-7.0898,-7.1321,-7.2168,-7.2206,-7.2629,-7.35,-7.2629,-7.2206,-7.2168,-7.1321,-7.0898,-7.0898,-7.0898,-7.0898,0.0,0.0,0.0,0.0,-7.0898,-7.0437,-6.9629,-6.8744,-6.7859,-6.7013,-6.6205,-6.5897,-6.5897,-6.5897,-6.5897,-6.5897,-6.5897,-6.4705,-6.3308,-6.3308,-6.2127,-6.0781,-6.0781,-6.0781,-6.0781,-6.0781,-6.0781,-6.0781,-6.0781,-6.0781,-6.0781,-6.0781,-6.0781,-6.0781,-6.0781,-6.0781,-6.0781,-6.0781,-6.0781,-6.0781,-6.0781,-6.005,-5.9204,-5.8396,-5.7511,-5.6676,-5.578,-5.5703,-5.5703,-5.5703,-5.5703,-5.5357,-5.4549,-5.4472,-5.4087,-5.3241,-5.3203,-5.2779,-5.1885,-5.1885,-5.151,-5.0712,-5.0712,-5.0712,-5.0712,-5.0712,-5.0712,-5.0531,-5.2561,-5.3967,-5.2522,-5.0687,-4.8384,-4.5259,-4.2329,-3.971,-3.7718,-3.6621,-3.5992,-3.5992,-3.6226,-3.775,-4.181,-4.3177,0.0,0.0,0.0,0.0,0.0,0.0,0.0,0.0,0.0,0.0,0.0,0.0,0.0,0.0,-7.0898,-7.1014,-7.1283,-7.1321,-7.1437,-7.1706,-7.1437,-7.1321,-7.1321,-7.1014,-7.0898,-7.0898,-7.0898,0.0,0.0,0.0,0.0,0.0,-7.0321,-6.959,-6.8744,-6.7859,-6.7013,-6.6244,-6.5974,-6.5897,-6.5897,-6.5897,-6.5897,-6.5897,-6.5897,-6.4705,-6.3308,-6.3308,-6.2127,-6.0781,-6.0781,-6.0781,-6.0781,-6.0781,-6.0781,-6.0781,-6.0781,-6.0781,-6.0781,-6.0781,-6.0781,-6.0781,-6.0781,-6.0781,-6.0781,-6.0781,-6.0781,-6.0781,-6.0781,-6.005,-5.9396,-5.9165,-5.7857,-5.6907,-5.6637,-5.6049,-5.5703,-5.5703,-5.5703,-5.5588,-5.5318,-5.5318,-5.4934,-5.4126,-5.4087,-5.3664,-5.2818,-5.2779,-5.2664,-5.2395,-5.1818,-5.1241,-5.075,-5.1856,-5.2087,0.0,-4.9052,-5.0537,-4.9443,-4.7881,-4.6007,-4.3741,-4.1239,-3.9011,-3.7604,-3.6622,-3.5992,-3.5992,-3.6265,-3.7633,-4.1187,-4.2591,0.0,0.0,0.0,0.0,0.0,0.0,0.0,0.0,0.0,0.0,0.0,0.0,0.0,0.0,0.0,-7.0898,-7.0898,-7.0898,-7.0898,-7.0898,-7.0898,-7.0898,-7.0898,-7.0898,-7.0898,-7.0898,-7.0898,0.0,0.0,0.0,0.0,0.0,-6.9898,-6.8975,-6.7859,-6.7321,-6.659,-6.5897,-6.5897,-6.5897,-6.5897,-6.5897,-6.5897,-6.5859,-6.5513,-6.4243,-6.2781,-6.2474,-6.1627,-6.0781,-6.0781,-6.0781,-6.0781,-6.0781,-6.0781,-6.0781,-6.0781,-6.0781,-6.0781,-6.0781,-6.0781,-6.0781,-6.0781,-6.0781,-6.0781,-6.0781,-6.0781,-6.0781,-6.0781,-6.0319,-5.9858,-5.955,-5.8319,-5.7368,-5.706,-5.6214,-5.5703,-5.5703,-5.5703,-5.5703,-5.5703,-5.5703,-5.5472,-5.4972,-5.4934,-5.4549,-5.3703,-5.3703,-5.3549,-5.3203,-5.2654,-5.2125,-5.1664,-5.2702,-5.2933,0.0,-4.5734,0.0,0.0,-4.5734,-4.4094,-4.2415,-4.0226,0.0,-3.7409,-3.6545,-3.6033,-3.6148,-3.6813,-3.7711,-3.8962,-4.1186,0.0,0.0,0.0,0.0,0.0,0.0,0.0,0.0,0.0,0.0,0.0,0.0,0.0,0.0,0.0,-7.0925,-7.0898,-7.0898,-7.0898,-7.0898,-7.0898,-7.0898,-7.0898,-7.0898,-7.0898,-7.0898,-7.0898,0.0,0.0,0.0,0.0,0.0,-6.9552,-6.8552,-6.709,-6.7051,-6.6551,-6.5897,-6.5897,-6.5897,-6.5897,-6.5897,-6.5897,-6.5743,-6.482,-6.3435,-6.1947,-6.105,-6.0781,-6.0781,-6.0781,-6.0781,-6.0781,-6.0781,-6.0781,-6.0781,-6.0781,-6.0781,-6.0781,-6.0781,-6.0781,-6.0781,-6.0781,-6.0781,-6.0781,-6.0781,-6.0781,-6.0781,-6.0781,-6.0781,-6.0512,-5.9704,-5.8896,-5.805,-5.7176,-5.6329,-5.578,-5.5703,-5.5703,-5.5703,-5.5703,-5.5703,-5.5703,-5.5703,-5.5703,-5.5357,-5.4587,-5.4587,-5.4164,-5.328,-5.3356,-5.3318,-5.3203,-5.3318,-5.3356,-3.8828,0.0,-4.1562,-4.0898,-4.0429,-3.9804,0.0,-3.8045,-3.738,-3.6478,-3.6122,-3.639,-3.7752,-3.7594,-3.8882,-4.3723,0.0,0.0,0.0,0.0,0.0,0.0,0.0,0.0,0.0,0.0,0.0,0.0,0.0,0.0,0.0,0.0,-7.1079,-7.0912,-7.0898,-7.0898,-7.0898,-7.0898,-7.0898,-7.0898,-7.0898,-7.0898,-7.0898,-7.0898,0.0,0.0,0.0,0.0,-6.959,-6.8244,-6.7475,-6.7051,-6.6397,-6.6051,-6.5897,-6.5897,-6.5897,-6.5897,-6.5897,-6.5897,-6.5628,-6.4128,-6.2935,-6.1947,-6.105,-6.0781,-6.0781,-6.0781,-6.0781,-6.0781,-6.0781,-6.0781,-6.0781,-6.0781,-6.0781,-6.0781,-6.0781,-6.0781,-6.0781,-6.0781,-6.0781,-6.0781,-6.0781,-6.0781,-6.0781,-6.0781,-6.0781,-6.0742,-6.0512,-5.9742,-5.8896,-5.8088,-5.7203,-5.6406,-5.5742,-5.5703,-5.5703,-5.5703,-5.5703,-5.5703,-5.5703,-5.5703,-5.5588,-5.5434,-5.5434,-5.5011,-5.4203,-5.4818,-5.4434,-5.3241,-5.4511,-5.478,-3.6719,-3.8555,-4.0391,-3.9922,-3.9492,-3.9062,-3.8594,-3.7578,-3.6561,-3.6089,0.0,0.0,0.0,0.0,0.0,0.0,0.0,0.0,0.0,0.0,0.0,0.0,0.0,0.0,0.0,0.0,0.0,0.0,0.0,0.0,0.0,0.0,-7.1101,-7.0912,-7.0898,-7.0898,-7.0898,-7.0898,-7.0898,-7.0898,-7.0898,-7.0898,-7.0898,-7.0898,-7.0706,0.0,0.0,0.0,-6.8436,-6.7475,-6.6859,-6.6513,-6.6051,-6.5897,-6.5897,-6.5897,-6.5897,-6.5897,-6.5897,-6.5397,-6.4474,-6.3166,-6.2166,-6.1408,-6.0935,-6.0781,-6.0781,-6.0781,-6.0781,-6.0781,-6.0781,-6.0781,-6.0781,-6.0781,-6.0781,-6.0781,-6.0781,-6.0781,-6.0781,-6.0781,-6.0781,-6.0781,-6.0781,-6.0781,-6.0781,-6.0781,-6.0781,-6.0781,-6.0781,-6.005,-5.9319,-5.8896,-5.7742,-5.6819,-5.6329,-5.5934,-5.5703,-5.5703,-5.5703,-5.5703,-5.5703,-5.5703,-5.5703,-5.5703,-5.5703,-5.5472,-5.5049,-5.5472,-5.5241,-5.4357,-5.528,-5.5472,-3.6094,-3.8633,-4.1094,-4.0703,-4.0234,-3.9883,-3.9726,0.0,0.0,0.0,0.0,0.0,0.0,0.0,0.0,0.0,0.0,0.0,0.0,0.0,0.0,0.0,0.0,0.0,0.0,0.0,0.0,0.0,0.0,0.0,0.0,0.0,0.0,-7.094,-7.0965,-7.0939,-7.0898,-7.0898,-7.0898,-7.0898,-7.0898,-7.0821,-7.0706,-7.0706,-7.0283,0.0,0.0,0.0,-6.709,-6.6974,-6.6513,-6.5897,-6.5897,-6.5897,-6.5897,-6.5897,-6.5897,-6.5859,-6.5743,-6.4589,-6.3012,-6.232,-6.1524,-6.0781,-6.0781,-6.0781,-6.0781,-6.0781,-6.0781,-6.0781,-6.0781,-6.0781,-6.0781,-6.0781,-6.0781,-6.0781,-6.0781,-6.0781,-6.0781,-6.0781,-6.0781,-6.0781,-6.0781,-6.0781,-6.0781,-6.0781,-6.0781,-6.0781,-6.0781,-6.0165,-5.9665,-5.9511,-5.8242,-5.728,-5.7022,-5.6329,-5.5818,-5.5703,-5.5703,-5.5703,-5.5703,-5.5703,-5.5703,-5.5703,-5.5703,-5.5703,-5.5703,-5.5703,-5.5703,-5.5703,-5.5703,-5.5703,-3.6484,-3.9101,-4.0664,-3.8437,-3.8906,-3.9726,-3.8984,-3.8476,0.0,0.0,0.0,0.0,0.0,0.0,0.0,0.0,0.0,0.0,0.0,0.0,0.0,0.0,0.0,0.0,0.0,0.0,0.0,0.0,0.0,0.0,0.0,0.0,0.0,-7.117,-7.1158,-7.1053,-7.0898,-7.0898,-7.0898,-7.0898,-7.0898,-7.0552,-6.9898,-6.9898,-6.9398,0.0,0.0,-6.7359,-6.7051,-6.6359,-6.6013,-6.5897,-6.5897,-6.5897,-6.5897,-6.5897,-6.5897,-6.5782,-6.5051,-6.3705,-6.2255,-6.2139,-6.1524,-6.0781,-6.0781,-6.0781,-6.0781,-6.0781,-6.0781,-6.0781,-6.0781,-6.0781,-6.0781,-6.0781,-6.0781,-6.0781,-6.0781,-6.0781,-6.0781,-6.0781,-6.0781,-6.0781,-6.0781,-6.0781,-6.0781,-6.0781,-6.0781,-6.0781,-6.0781,-6.0666,-6.0319,-5.9588,-5.9281,-5.855,-5.7137,-5.6868,-5.6483,-5.5742,-5.5703,-5.5703,-5.5703,-5.5703,-5.5703,-5.5703,-5.5703,-5.5703,-5.5703,-5.5703,-5.5703,-5.5703,-5.5703,-5.5703,-3.5586,-3.7812,-3.9726,-3.9453,-4.1054,-4.2538,-4.2148,-4.0975,-4.0075,0.0,0.0,0.0,0.0,0.0,0.0,0.0,0.0,0.0,0.0,0.0,0.0,0.0,0.0,0.0,0.0,0.0,0.0,0.0,0.0,0.0,0.0,0.0,0.0,0.0,-6.9835,-6.9767,-6.9652,-6.9579,-6.9783,-7.0244,-7.0244,-6.9821,-6.9013,-6.9013,-6.8513,-6.7667,0.0,-6.6859,-6.6397,-6.6051,-6.5897,-6.5897,-6.5897,-6.5897,-6.5897,-6.5897,-6.559,-6.5051,-6.4205,-6.3128,-6.2024,-6.155,-6.1127,-6.0781,-6.0781,-6.0781,-6.0781,-6.0781,-6.0781,-6.0781,-6.0781,-6.0781,-6.0781,-6.0781,-6.0781,-6.0781,-6.0781,-6.0781,-6.0781,-6.0781,-6.0781,-6.0781,-6.0781,-6.0781,-6.0781,-6.0781,-6.0781,-6.0781,-6.0781,-6.0781,-6.0666,-6.0242,-5.9781,-5.9204,-5.8434,-5.7934,-5.7126,-5.578,-5.5703,-5.5703,-5.5703,-5.5703,-5.5703,-5.5703,-5.5703,-5.5703,-5.5703,-5.5703,-5.5703,-5.5703,-5.5703,-5.5703,-3.5391,-3.707,-3.9062,-4.1016,-4.2968,-4.4608,-4.5428,-4.3902,-4.261,0.0,0.0,0.0,0.0,0.0,0.0,0.0,0.0,0.0,0.0,0.0,0.0,0.0,0.0,0.0,0.0,0.0,0.0,0.0,0.0,0.0,0.0,0.0,0.0,0.0,-6.8795,-6.8675,-6.8612,-6.8509,-6.8758,-6.9398,-6.9398,-6.8936,-6.809,-6.809,-6.7628,-6.6821,-6.6821,-6.6474,-6.5897,-6.5897,-6.5897,-6.5897,-6.5897,-6.5897,-6.5859,-6.5667,-6.5051,-6.4166,-6.332,-6.2474,-6.1678,-6.1012,-6.0781,-6.0781,-6.0781,-6.0781,-6.0781,-6.0781,-6.0781,-6.0781,-6.0781,-6.0781,-6.0781,-6.0781,-6.0781,-6.0781,-6.0781,-6.0781,-6.0781,-6.0781,-6.0781,-6.0781,-6.0781,-6.0781,-6.0781,-6.0781,-6.0781,-6.0781,-6.0781,-6.0781,-6.0781,-6.0781,-6.0204,-5.9704,-5.9511,-5.8781,-5.7627,-5.6088,-5.5818,-5.5703,-5.5703,-5.5703,-5.5703,-5.5703,-5.5703,-5.5703,-5.5703,-5.5703,-5.5703,-5.5703,-5.5703,-5.5703,-3.7422,-3.8476,-3.9219,-4.168,-4.2461,-4.3437,-4.6678,-4.6638,-4.6402,-4.8077,0.0,0.0,0.0,0.0,0.0,0.0,0.0,0.0,0.0,0.0,0.0,0.0,0.0,0.0,0.0,0.0,0.0,0.0,0.0,0.0,0.0,0.0,0.0,0.0,0.0,-6.8893,-6.8622,-6.8601,-6.8556,-6.8513,-6.8513,-6.8052,-6.7167,-6.7167,-6.6744,-6.5974,-6.5974,-6.5936,-6.5897,-6.5897,-6.5897,-6.5897,-6.5897,-6.5897,-6.5782,-6.4974,-6.4128,-6.3281,-6.2474,-6.1639,-6.0858,-6.0819,-6.0781,-6.0781,-6.0781,-6.0781,-6.0781,-6.0781,-6.0781,-6.0781,-6.0781,-6.0781,-6.0781,-6.0781,-6.0781,-6.0781,-6.0781,-6.0781,-6.0781,-6.0781,-6.0781,-6.0781,-6.0781,-6.0781,-6.0781,-6.0781,-6.0781,-6.0781,-6.0781,-6.0781,-6.0781,-6.0781,-6.0742,-6.0396,-5.9588,-5.8781,-5.7896,-5.6983,-5.6137,-5.5703,-5.5703,-5.5703,-5.5703,-5.5703,-5.5703,-5.5703,-5.5703,-5.5703,-5.5703,-5.5703,-5.5703,-5.5703,-3.582,-3.7344,-3.9219,-4.1758,-4.3633,-4.5586,-4.8472,-4.8898,-4.948,-5.2284,-5.2944,0.0,0.0,0.0,0.0,0.0,0.0,0.0,0.0,0.0,0.0,0.0,0.0,0.0,0.0,0.0,0.0,0.0,0.0,0.0,0.0,0.0,0.0,0.0,0.0,-6.7481,-6.7376,-6.7238,-6.7077,-6.6973,-6.7397,-6.7167,-6.6359,-6.6359,-6.6205,-6.5897,-6.5897,-6.5897,-6.5897,-6.5897,-6.5897,-6.5859,-6.5282,-6.5089,-6.4974,-6.4128,-6.3281,-6.2512,-6.2216,-6.1524,-6.0781,-6.0781,-6.0781,-6.0781,-6.0781,-6.0781,-6.0781,-6.0781,-6.0781,-6.0781,-6.0781,-6.0781,-6.0781,-6.0781,-6.0781,-6.0781,-6.0781,-6.0781,-6.0781,-6.0781,-6.0781,-6.0781,-6.0781,-6.0781,-6.0781,-6.0781,-6.0781,-6.0781,-6.0781,-6.0781,-6.0781,-6.0781,-6.0781,-6.0666,-6.0319,-5.9511,-5.8896,-5.8588,-5.728,-5.6291,-5.5703,-5.5703,-5.5703,-5.5703,-5.5703,-5.5703,-5.5703,-5.5703,-5.5703,-5.5703,-5.5703,-5.5703,-3.5937,-3.7656,-3.9961,-4.2226,-4.4766,0.0,-5.062,-5.1317,-5.2249,-5.5443,-5.5398,0.0,0.0,0.0,0.0,0.0,0.0,0.0,0.0,0.0,0.0,0.0,0.0,0.0,0.0,0.0,0.0,0.0,0.0,0.0,0.0,0.0,0.0,0.0,0.0,-6.6624,-6.659,-6.6471,-6.6307,-6.6167,-6.6636,-6.6518,-6.5897,-6.5897,-6.5897,-6.5897,-6.5897,-6.5897,-6.5859,-6.559,-6.532,-6.5013,-6.4436,-6.4205,-6.4089,-6.3243,-6.2551,-6.2074,-6.1835,-6.1357,-6.0856,-6.0856,-6.0856,-6.0845,-6.0804,-6.0781,-6.0781,-6.0781,-6.0781,-6.0781,-6.0781,-6.0781,-6.0781,-6.0781,-6.0781,-6.0781,-6.0781,-6.0781,-6.0781,-6.0781,-6.0781,-6.0781,-6.0781,-6.0781,-6.0781,-6.0781,-6.0781,-6.0781,-6.0781,-6.0781,-6.0781,-6.0781,-6.0781,-6.0781,-6.0781,-6.0242,-5.9781,-5.9511,-5.8434,-5.728,-5.6165,-5.5857,-5.5703,-5.5703,-5.5703,-5.5703,-5.5703,-5.5703,-5.5703,-5.5703,-5.5703,-5.5703,-3.8594,-3.9883,-4.1601,-4.3281,0.0,0.0,-5.3045,-5.4017,-5.4752,-5.7326,0.0,-5.7153,-5.879,0.0,0.0,0.0,0.0,0.0,0.0,0.0,0.0,0.0,0.0,0.0,0.0,0.0,0.0,0.0,0.0,0.0,0.0,0.0,0.0,0.0,0.0,0.0,-6.6595,-6.6595,-6.6495,-6.6314,-6.6314,-6.6167,-6.591,-6.591,-6.591,-6.591,-6.591,-6.591,-6.582,-6.4936,-6.4089,-6.3308,-6.3281,-6.3281,-6.3205,-6.2409,-6.2101,-6.1982,-6.1244,-6.1002,-6.1002,-6.1002,-6.0993,-6.0954,-6.0861,-6.0781,-6.0781,-6.0781,-6.0781,-6.0781,-6.0781,-6.0781,-6.0781,-6.0781,-6.0781,-6.0781,-6.0781,-6.0781,-6.0781,-6.0781,-6.0781,-6.0781,-6.0781,-6.0781,-6.0781,-6.0781,-6.0781,-6.0781,-6.0781,-6.0781,-6.0781,-6.0781,-6.0781,-6.0781,-6.0781,-6.0781,-6.0435,-5.9588,-5.9511,-5.8742,-5.706,-5.6175,-5.5703,-5.5703,-5.5703,-5.5703,-5.5703,-5.5703,-5.5703,-5.5703,-5.5703,-5.5703,-3.7851,-3.9414,0.0,-4.4023,0.0,0.0,0.0,-5.5389,0.0,0.0,0.0,0.0,0.0,0.0,0.0,0.0,0.0,0.0,0.0,0.0,0.0,0.0,0.0,0.0,0.0,0.0,0.0,0.0,0.0,0.0,0.0,0.0,0.0,0.0,0.0,0.0,-6.5907,-6.5907,-6.61,-6.6501,-6.6501,-6.6411,-6.6194,-6.6194,-6.6194,-6.6156,-6.5565,-6.5258,-6.5065,-6.4085,-6.3538,-6.3255,-6.2772,-6.2604,-6.2509,-6.1763,-6.1466,-6.1436,-6.1221,-6.1079,-6.1002,-6.1002,-6.0943,-6.0834,-6.0804,-6.0781,-6.0781,-6.0781,-6.0781,-6.0781,-6.0781,-6.0781,-6.0781,-6.0781,-6.0781,-6.0781,-6.0781,-6.0781,-6.0781,-6.0781,-6.0781,-6.0781,-6.0781,-6.0781,-6.0781,-6.0781,-6.0781,-6.0781,-6.0781,-6.0781,-6.0781,-6.0781,-6.0781,-6.0781,-6.0781,-6.0781,-6.0704,-6.0435,-5.9858,-5.8742,-5.706,-5.6753,-5.6329,-5.5703,-5.5703,-5.5703,-5.5703,-5.5703,-5.5703,-5.5703,-5.5703,-5.5703,-3.9726,-4.1992,0.0,-4.7422,-5.0937,-5.4375,-5.6797,0.0,0.0,0.0,0.0,0.0,0.0,0.0,0.0,0.0,0.0,0.0,0.0,0.0,0.0,0.0,0.0,0.0,0.0,0.0,0.0,0.0,0.0,0.0,0.0,0.0,0.0,0.0,0.0,0.0,-6.5077,-6.5077,-6.5292,-6.5675,-6.5675,-6.5606,-6.55,-6.5743,-6.5646,-6.5297,-6.4784,-6.4302,-6.3851,-6.3226,-6.2779,-6.2413,-6.2034,-6.1845,-6.1823,-6.1344,-6.1186,-6.12,-6.1292,-6.1218,-6.1087,-6.1151,-6.1048,-6.0899,-6.0953,-6.0923,-6.091,-6.0953,-6.0945,-6.0963,-6.0871,-6.0888,-6.0867,-6.0804,-6.0781,-6.0781,-6.0781,-6.0781,-6.0781,-6.0781,-6.0781,-6.0781,-6.0781,-6.0781,-6.0781,-6.0781,-6.0781,-6.0781,-6.0781,-6.0781,-6.0781,-6.0781,-6.0781,-6.0781,-6.0781,-6.0781,-6.0781,-6.0781,-6.0319,-5.9396,-5.805,-5.7368,-5.6753,-5.6252,-5.5857,-5.5703,-5.5703,-5.5703,-5.5703,-5.5703,-5.5703,-5.5703,-4.2812,0.0,0.0,-5.2031,-5.4258,0.0,0.0,0.0,0.0,0.0,0.0,0.0,0.0,0.0,0.0,0.0,0.0,0.0,0.0,0.0,0.0,0.0,0.0,0.0,0.0,0.0,0.0,0.0,0.0,0.0,0.0,0.0,0.0,0.0,0.0,-6.4104,-6.4182,-6.4182,-6.4221,0.0,-6.4299,-6.426,-6.4216,-6.4755,-6.4556,-6.3733,-6.3719,-6.3214,-6.2398,-6.2383,-6.1917,-6.1193,-6.1207,-6.1246,-6.1214,-6.1227,-6.1266,-6.1285,-6.1432,-6.1395,-6.1272,-6.1422,-6.1291,-6.1018,-6.1143,-6.112,-6.1027,-6.1189,-6.1186,-6.1158,-6.1036,-6.103,-6.0983,-6.0867,-6.0816,-6.0781,-6.0781,-6.0781,-6.0781,-6.0781,-6.0781,-6.0781,-6.0781,-6.0781,-6.0781,-6.0781,-6.0781,-6.0781,-6.0781,-6.0781,-6.0781,-6.0781,-6.0781,-6.0781,-6.0781,-6.0781,-6.0781,-6.0781,-6.0781,-6.0435,-5.9665,-5.8011,-5.7099,-5.6983,-5.6126,-5.5703,-5.5703,-5.5703,-5.5703,-5.5703,-5.5703,-5.5703,-4.1406,-4.4258,0.0,0.0,0.0,0.0,0.0,0.0,0.0,0.0,0.0,0.0,0.0,0.0,0.0,0.0,0.0,0.0,0.0,0.0,0.0,0.0,0.0,0.0,0.0,0.0,0.0,0.0,0.0,0.0,0.0,0.0,0.0,0.0,0.0,-6.2579,-6.3282,-6.3282,-6.3633,0.0,-6.4299,-6.3945,-6.3321,-6.4115,-6.3982,-6.3159,-6.3049,-6.2507,-6.1679,-6.1545,-6.1381,-6.12,-6.1384,-6.1456,-6.1466,-6.1541,-6.1602,-6.1602,-6.1657,-6.1576,-6.1422,-6.1486,-6.1361,-6.1143,-6.1179,-6.1165,-6.1143,-6.1179,-6.1186,-6.1179,-6.115,-6.1174,-6.1167,-6.1136,-6.0935,-6.0781,-6.0781,-6.0781,-6.0781,-6.0781,-6.0781,-6.0781,-6.0781,-6.0781,-6.0781,-6.0781,-6.0781,-6.0781,-6.0781,-6.0781,-6.0781,-6.0781,-6.0781,-6.0781,-6.0781,-6.0781,-6.0781,-6.0781,-6.0781,-6.0704,-6.0512,-5.8896,-5.7703,-5.7022,-5.6126,-5.5703,-5.5703,-5.5703,-5.5703,-5.5703,-5.5703,-5.5703,0.0,0.0,0.0,0.0,0.0,0.0,0.0,0.0,0.0,0.0,0.0,0.0,0.0,0.0,0.0,0.0,0.0,0.0,0.0,0.0,0.0,0.0,0.0,0.0,0.0,0.0,0.0,0.0,0.0,0.0,0.0,0.0,0.0,0.0,-6.169,-6.192,-6.2384,-6.2384,-6.2618,-6.3047,-6.3047,-6.2813,-6.2384,-6.2852,-6.2813,-6.2381,-6.2311,-6.2021,-6.1588,-6.1465,-6.1447,-6.1451,-6.1537,-6.1591,-6.1595,-6.1668,-6.1718,-6.1718,-6.1718,-6.1602,-6.15,-6.158,-6.1422,-6.1214,-6.1373,-6.1412,-6.1379,-6.1432,-6.1447,-6.1432,-6.134,-6.1328,-6.131,-6.1207,-6.1095,-6.0993,-6.0993,-6.0953,-6.091,-6.091,-6.0823,-6.0781,-6.0781,-6.0781,-6.0781,-6.0781,-6.0781,-6.0781,-6.0781,-6.0781,-6.0781,-6.0781,-6.0781,-6.0781,-6.0781,-6.0781,-6.0781,-6.0781,-6.0781,-6.0781,-6.0781,-5.955,-5.8473,-5.7627,-5.678,-5.6126,-5.5703,-5.5703,-5.5703,-5.5703,-5.5703,-5.5703,0.0,0.0,0.0,0.0,0.0,0.0,0.0,0.0,0.0,0.0,0.0,0.0,0.0,0.0,0.0,0.0,0.0,0.0,0.0,0.0,0.0,0.0,0.0,0.0,0.0,0.0,0.0,0.0,0.0,0.0,0.0,0.0,-6.1707,-6.1701,-6.1701,-6.1696,-6.1683,-6.1683,-6.1681,-6.1718,-6.1718,-6.1718,-6.1718,-6.1718,-6.1718,-6.1718,-6.1718,-6.1718,-6.1718,-6.1718,-6.1718,-6.1718,-6.1718,-6.1718,-6.1718,-6.1718,-6.1718,-6.1718,-6.1718,-6.1648,-6.1564,-6.1666,-6.1526,-6.134,-6.1612,-6.1605,-6.1569,-6.1666,-6.1718,-6.1668,-6.1573,-6.1513,-6.1495,-6.1328,-6.1298,-6.1285,-6.12,-6.112,-6.1009,-6.1009,-6.0953,-6.0856,-6.085,-6.085,-6.0827,-6.0793,-6.0781,-6.0781,-6.0781,-6.0781,-6.0781,-6.0781,-6.0781,-6.0781,-6.0781,-6.0781,-6.0781,-6.0781,-6.0781,-6.0781,-6.0781,-6.0127,-5.9281,-5.8319,-5.7434,-5.656,-5.5703,-5.5703,-5.5703,-5.5703,-5.5703,-5.5703,0.0,0.0,0.0,0.0,0.0,0.0,0.0,0.0,0.0,0.0,0.0,0.0,0.0,0.0,0.0,0.0,0.0,0.0,0.0,0.0,0.0,0.0,0.0,0.0,0.0,0.0,0.0,0.0,0.0,0.0,0.0,-6.1711,-6.1708,-6.1708,-6.1708,-6.1704,-6.1696,-6.1696,-6.169,-6.1718,-6.1718,-6.1718,-6.1718,-6.1718,-6.1718,-6.1718,-6.1718,-6.1718,-6.1718,-6.1718,-6.1718,-6.1718,-6.1718,-6.1718,-6.1718,-6.1718,-6.1718,-6.1718,-6.1718,-6.1674,-6.1671,-6.1676,-6.1671,-6.1621,-6.1676,-6.1674,-6.1671,-6.1679,-6.1718,-6.1718,-6.1671,-6.1668,-6.1666,-6.166,-6.1618,-6.1545,-6.124,-6.1172,-6.1158,-6.1158,-6.1143,-6.112,-6.0993,-6.0954,-6.0933,-6.0816,-6.0781,-6.0781,-6.0781,-6.0781,-6.0781,-6.0781,-6.0781,-6.0781,-6.0781,-6.0781,-6.0781,-6.0781,-6.0781,-6.0781,-6.0781,-6.0704,-5.9896,-5.8319,-5.7434,-5.656,-5.5703,-5.5703,-5.5703,-5.5703,-5.5703,-5.5703,-3.9648,0.0,0.0,0.0,0.0,0.0,0.0,0.0,0.0,0.0,0.0,0.0,0.0,0.0,0.0,0.0,0.0,0.0,0.0,0.0,0.0,0.0,0.0,0.0,0.0,0.0,0.0,0.0,0.0,0.0,-6.1718,-6.1717,-6.1716,-6.1714,-6.1714,-6.1711,-6.1704,-6.1704,-6.1702,-6.1697,-6.1697,-6.1697,-6.1697,-6.1697,-6.1692,-6.1718,-6.1718,-6.1718,-6.1718,-6.1718,-6.1718,-6.172,-6.1688,-6.169,-6.169,-6.169,-6.169,-6.169,-6.169,-6.169,-6.1692,-6.1697,-6.1697,-6.1697,-6.1697,-6.1697,-6.1697,-6.1697,-6.1697,-6.1697,-6.1697,-6.1697,-6.1697,-6.1692,-6.169,-6.1676,-6.1526,-6.1422,-6.1322,-6.1207,-6.1186,-6.1165,-6.1136,-6.112,-6.1095,-6.1018,-6.0945,-6.0902,-6.0902,-6.0872,-6.0781,-6.0781,-6.0781,-6.0781,-6.0781,-6.0781,-6.0781,-6.0781,-6.0781,-6.0781,-6.0781,-6.0781,-6.0204,-5.9011,-5.8165,-5.7049,-5.5703,-5.5703,-5.5703,-5.5703,-5.5703,-5.5703,0.0,0.0,0.0,0.0,0.0,0.0,0.0,0.0,0.0,0.0,0.0,0.0,0.0,0.0,0.0,0.0,0.0,0.0,0.0,0.0,0.0,0.0,0.0,0.0,0.0,0.0,0.0,0.0,0.0,0.0,-6.1719,-6.1719,-6.1718,-6.1718,-6.1717,-6.1716,-6.1711,-6.1709,-6.1709,-6.1709,-6.1709,-6.1709,-6.1709,-6.1709,-6.1702,-6.1688,-6.1688,-6.1688,-6.1688,-6.1688,-6.1688,-6.169,-6.1697,-6.1701,-6.1701,-6.1701,-6.1701,-6.1701,-6.1701,-6.1701,-6.1702,-6.1707,-6.1709,-6.1709,-6.1709,-6.1709,-6.1709,-6.1709,-6.1709,-6.1709,-6.1709,-6.1709,-6.1708,-6.1702,-6.1699,-6.1696,-6.1683,-6.1605,-6.1504,-6.1351,-6.1328,-6.1322,-6.1285,-6.1285,-6.1272,-6.1193,-6.112,-6.1036,-6.1036,-6.0933,-6.0834,-6.0834,-6.0816,-6.0781,-6.0781,-6.0781,-6.0781,-6.0781,-6.0781,-6.0781,-6.0781,-6.0781,-6.0396,-5.9511,-5.8704,-5.755,-5.6011,-5.5818,-5.5703,-5.5703,-5.5703,-5.5703,0.0,0.0,0.0,0.0,0.0,0.0,0.0,0.0,0.0,0.0,0.0,0.0,0.0,0.0,0.0,0.0,0.0,0.0,0.0,0.0,0.0,0.0,0.0,0.0,0.0,0.0,0.0,0.0,0.0,0.0,-6.1719,-6.1719,-6.1719,-6.1719,-6.1719,-6.1718,-6.1716,-6.1711,-6.1709,-6.1709,-6.1709,-6.1709,-6.1709,-6.1709,-6.1708,-6.1708,-6.1708,-6.1708,-6.1708,-6.1708,-6.1708,-6.1708,-6.1708,-6.1708,-6.1708,-6.1708,-6.1708,-6.1708,-6.1708,-6.1708,-6.1708,-6.1709,-6.1709,-6.1709,-6.1709,-6.1709,-6.1709,-6.1709,-6.1709,-6.1709,-6.1709,-6.1709,-6.1709,-6.1708,-6.1704,-6.1696,-6.1683,-6.1676,-6.1674,-6.1671,-6.1671,-6.1615,-6.15,-6.1481,-6.1412,-6.1253,-6.1186,-6.1179,-6.1179,-6.107,-6.0983,-6.0983,-6.0877,-6.0781,-6.0781,-6.0781,-6.0781,-6.0781,-6.0781,-6.0781,-6.0781,-6.0781,-6.0396,-5.9511,-5.8704,-5.7857,-5.6945,-5.6088,-5.5703,-5.5703,-5.5703,-5.5703,0.0,0.0,0.0,0.0,0.0,0.0,0.0,0.0,0.0,0.0,0.0,0.0,0.0,0.0,0.0,0.0,0.0,0.0,0.0,0.0,0.0,0.0,0.0,0.0,0.0,0.0,0.0,0.0,0.0,0.0,-6.1719,-6.1719,-6.1719,-6.1719,-6.1719,-6.1719,-6.1718,-6.1718,-6.1717,-6.1717,-6.1717,-6.1717,-6.1717,-6.1717,-6.1717,-6.1717,-6.1717,-6.1715,-6.1709,-6.1709,-6.1709,-6.1709,-6.1713,-6.1714,-6.1714,-6.1714,-6.1714,-6.1714,-6.1714,-6.1714,-6.1715,-6.1717,-6.1717,-6.1717,-6.1717,-6.1717,-6.1717,-6.1717,-6.1717,-6.1717,-6.1717,-6.1717,-6.1716,-6.171,-6.1699,-6.1686,-6.1681,-6.1718,-6.1718,-6.1718,-6.1718,-6.1674,-6.1651,-6.1648,-6.1602,-6.1534,-6.1437,-6.1395,-6.1395,-6.1239,-6.1095,-6.1011,-6.0973,-6.091,-6.0793,-6.0781,-6.0781,-6.0781,-6.0781,-6.0781,-6.0781,-6.0781,-6.0666,-6.0319,-5.9511,-5.8396,-5.6983,-5.6137,-5.5703,-5.5703,-5.5703,-5.5703,-3.0937,0.0,0.0,0.0,0.0,0.0,0.0,0.0,0.0,0.0,0.0,0.0,0.0,0.0,0.0,0.0,0.0,0.0,0.0,0.0,0.0,0.0,0.0,0.0,0.0,0.0,0.0,0.0,0.0,0.0,-6.1719,-6.1719,-6.1719,-6.1719,-6.1719,-6.1719,-6.1719,-6.1719,-6.1719,-6.1719,-6.1719,-6.1719,-6.1719,-6.1719,-6.1719,-6.1719,-6.1719,-6.1718,-6.1714,-6.1714,-6.1714,-6.1715,-6.1717,-6.1718,-6.1718,-6.1718,-6.1718,-6.1718,-6.1718,-6.1718,-6.1718,-6.1719,-6.1719,-6.1719,-6.1719,-6.1719,-6.1719,-6.1719,-6.1719,-6.1719,-6.1719,-6.1719,-6.1718,-6.1711,-6.1699,-6.1686,-6.1681,-6.1718,-6.1718,-6.1718,-6.1718,-6.1718,-6.1718,-6.1718,-6.1718,-6.1718,-6.1605,-6.1576,-6.1576,-6.1412,-6.1259,-6.1198,-6.1095,-6.1048,-6.0953,-6.0871,-6.0867,-6.0867,-6.0827,-6.0781,-6.0781,-6.0781,-6.0781,-6.0781,-5.9935,-5.8934,-5.7819,-5.6703,-5.5972,-5.5703,-5.5703,-5.5857,0.0,0.0,0.0,0.0,0.0,0.0,0.0,0.0,0.0,0.0,0.0,0.0,0.0,0.0,0.0,0.0,0.0,0.0,0.0,0.0,0.0,0.0,0.0,0.0,0.0,0.0,0.0,0.0,0.0,-6.1719,-6.1719,-6.1719,-6.1719,-6.1719,-6.1719,-6.1719,-6.1719,-6.1719,-6.1719,-6.1719,-6.1719,-6.1719,-6.1719,-6.1719,-6.1719,-6.1719,-6.1719,-6.1719,-6.1719,-6.1719,-6.1719,-6.1719,-6.1719,-6.1719,-6.1719,-6.1719,-6.1719,-6.1719,-6.1719,-6.1719,-6.1719,-6.1719,-6.1719,-6.1719,-6.1719,-6.1719,-6.1719,-6.1719,-6.1719,-6.1719,-6.1719,-6.1718,-6.1716,-6.171,-6.1704,-6.1696,-6.1683,-6.172,-6.172,-6.1718,-6.1718,-6.1718,-6.1718,-6.1718,-6.1718,-6.1718,-6.1718,-6.1718,-6.1718,-6.1588,-6.1495,-6.149,-6.1316,-6.1193,-6.1193,-6.1079,-6.1002,-6.1002,-6.0877,-6.0793,-6.0781,-6.0781,-6.0781,-6.0781,-5.9973,-5.9511,-5.9511,-5.7819,-5.6599,-5.578,-5.578,-5.6214,-3.0039,0.0,0.0,0.0,0.0,0.0,0.0,0.0,0.0,0.0,0.0,0.0,0.0,0.0,0.0,0.0,0.0,0.0,0.0,0.0,0.0,0.0,0.0,0.0,0.0,0.0,0.0,0.0,-6.1719,-6.1719,-6.1719,-6.1719,-6.1719,-6.1719,-6.1719,-6.1719,-6.1719,-6.1719,-6.1719,-6.1719,-6.1719,-6.1719,-6.1719,-6.1719,-6.1719,-6.1719,-6.1719,-6.1719,-6.1719,-6.1719,-6.1719,-6.1719,-6.1719,-6.1719,-6.1719,-6.1719,-6.1719,-6.1719,-6.1719,-6.1719,-6.1719,-6.1719,-6.1719,-6.1719,-6.1719,-6.1719,-6.1719,-6.1719,-6.1719,-6.1719,-6.1719,-6.1718,-6.1716,-6.1715,-6.1711,-6.1704,-6.1696,-6.1694,-6.169,-6.1681,-6.1718,-6.1718,-6.1718,-6.1718,-6.1718,-6.1718,-6.1718,-6.1718,-6.1718,-6.1666,-6.1598,-6.15,-6.1466,-6.1373,-6.12,-6.1189,-6.1112,-6.1011,-6.0983,-6.0882,-6.0793,-6.0781,-6.0781,-6.0781,-6.055,-6.0127,-5.9511,-5.8434,-5.7819,-5.7588,-5.7588,-5.7762,-3.2773,-3.3711,0.0,0.0,0.0,0.0,0.0,0.0,0.0,0.0,0.0,0.0,0.0,0.0,0.0,0.0,0.0,0.0,0.0,0.0,0.0,0.0,0.0,0.0,0.0,0.0,0.0,0.0,-6.0664,-6.0781,-6.1133,-6.1484,-6.1719,-6.1719,-6.1719,-6.1719,-6.1719,-6.1719,-6.1719,-6.1719,-6.1719,-6.1719,-6.1719,-6.1719,-6.1719,-6.1719,-6.1719,-6.1719,-6.1719,-6.1719,-6.1719,-6.1719,-6.1719,-6.1719,-6.1719,-6.1719,-6.1719,-6.1719,-6.1719,-6.1719,-6.1719,-6.1719,-6.1719,-6.1719,-6.1719,-6.1719,-6.1719,-6.1719,-6.1719,-6.1719,-6.1719,-6.1718,-6.1717,-6.1717,-6.1713,-6.1708,-6.1704,-6.1702,-6.1699,-6.1683,-6.1718,-6.1718,-6.1718,-6.1718,-6.1718,-6.1718,-6.1718,-6.1718,-6.1718,-6.1718,-6.1668,-6.1588,-6.1584,-6.1526,-6.1432,-6.1345,-6.1279,-6.1189,-6.112,-6.1039,-6.0899,-6.0888,-6.0845,-6.0781,-6.0781,-6.055,-6.005,-5.9204,-5.8682,-5.8392,-5.8671,-5.8924,-3.668,-3.6484,-3.707,0.0,0.0,0.0,0.0,-4.1016,0.0,0.0,0.0,0.0,0.0,0.0,0.0,0.0,0.0,0.0,0.0,0.0,0.0,0.0,0.0,0.0,0.0,0.0,-5.9219,-5.9219,-5.9219,-5.9492,-6.0234,-6.1015,-6.1406,-6.1406,-6.1406,-6.1484,-6.1562,-6.1562,-6.1601,-6.1719,-6.1719,-6.1719,-6.1719,-6.1719,-6.1719,-6.1719,-6.1719,-6.1719,-6.1719,-6.1719,-6.1719,-6.1719,-6.1719,-6.1719,-6.1719,-6.1719,-6.1719,-6.1719,-6.1719,-6.1719,-6.1719,-6.1719,-6.1719,-6.1719,-6.1719,-6.1719,-6.1719,-6.1719,-6.1719,-6.1719,-6.1719,-6.1718,-6.1717,-6.1717,-6.1714,-6.171,-6.171,-6.171,-6.1707,-6.1688,-6.1683,-6.1681,-6.1681,-6.1681,-6.1718,-6.1718,-6.1718,-6.1718,-6.1718,-6.1718,-6.1718,-6.1718,-6.1718,-6.1718,-6.1718,-6.1588,-6.15,-6.149,-6.1316,-6.1182,-6.1039,-6.103,-6.0973,-6.0827,-6.0793,-6.0793,-6.0827,-6.0057,-5.9335,-5.8779,-5.9395,-5.9843,-3.9531,0.0,0.0,0.0,0.0,0.0,0.0,-3.6641,0.0,0.0,0.0,0.0,0.0,0.0,0.0,0.0,0.0,0.0,0.0,0.0,0.0,0.0,0.0,0.0,0.0,0.0,-5.9219,-5.9219,-5.9219,-5.9258,-5.9414,-5.9609,-5.9687,-5.9687,-5.9687,-6.0,-6.0664,-6.0664,-6.1015,-6.1719,-6.1719,-6.1719,-6.1719,-6.1719,-6.1719,-6.1719,-6.1719,-6.1719,-6.1719,-6.1719,-6.1719,-6.1719,-6.1719,-6.1719,-6.1719,-6.1719,-6.1719,-6.1719,-6.1719,-6.1719,-6.1719,-6.1719,-6.1719,-6.1719,-6.1719,-6.1719,-6.1719,-6.1719,-6.1719,-6.1719,-6.1719,-6.1719,-6.1719,-6.1719,-6.1718,-6.1718,-6.1716,-6.1716,-6.1714,-6.1707,-6.1699,-6.1694,-6.1694,-6.1688,-6.1718,-6.1718,-6.1718,-6.1718,-6.1718,-6.1718,-6.1718,-6.1718,-6.1718,-6.1718,-6.1718,-6.1671,-6.1602,-6.1495,-6.1471,-6.1367,-6.1189,-6.1143,-6.1103,-6.0945,-6.0845,-6.0845,-6.0973,-6.079,-6.0565,-6.036,-6.0708,-6.0902,0.0,0.0,0.0,-4.082,0.0,0.0,0.0,0.0,0.0,0.0,0.0,0.0,0.0,0.0,0.0,0.0,0.0,0.0,0.0,0.0,0.0,0.0,0.0,0.0,0.0,0.0,-5.6797,-5.7226,-5.8047,-5.8555,-5.8555,-5.8945,-5.9219,-5.9219,-5.9219,-5.9375,-5.9805,-5.9805,-6.0234,-6.1055,-6.1055,-6.1289,-6.1719,-6.1719,-6.1719,-6.1719,-6.1719,-6.1719,-6.1719,-6.1719,-6.1719,-6.1719,-6.1719,-6.1719,-6.1719,-6.1719,-6.1719,-6.1719,-6.1719,-6.1719,-6.1719,-6.1719,-6.1719,-6.1719,-6.1719,-6.1719,-6.1719,-6.1719,-6.1719,-6.1719,-6.1719,-6.1719,-6.1719,-6.1719,-6.1719,-6.1719,-6.1718,-6.1718,-6.1718,-6.1716,-6.1713,-6.1708,-6.1704,-6.1696,-6.169,-6.169,-6.1683,-6.1718,-6.1718,-6.1718,-6.1718,-6.1718,-6.1718,-6.1718,-6.1718,-6.1718,-6.1668,-6.1595,-6.1595,-6.1517,-6.1373,-6.1367,-6.1266,-6.1103,-6.1018,-6.1009,-6.1103,-6.1189,-6.1221,-6.1142,-6.1189,-6.1304,0.0,0.0,0.0,0.0,0.0,-4.1561,0.0,0.0,0.0,-4.1875,0.0,0.0,0.0,0.0,0.0,0.0,0.0,0.0,0.0,0.0,0.0,0.0,0.0,0.0,0.0,0.0,-5.3594,-5.4961,-5.5898,-5.6719,-5.7344,-5.8086,-5.8515,-5.8672,-5.8711,-5.8789,-5.8945,-5.8945,-5.9375,-6.0156,-6.0156,-6.0625,-6.1445,-6.1445,-6.1523,-6.1719,-6.1719,-6.1719,-6.1719,-6.1719,-6.1719,-6.1719,-6.1719,-6.1719,-6.1719,-6.1719,-6.1719,-6.1719,-6.1719,-6.1719,-6.1719,-6.1719,-6.1719,-6.1719,-6.1719,-6.1719,-6.1719,-6.1719,-6.1719,-6.1719,-6.1719,-6.1719,-6.1719,-6.1719,-6.1719,-6.1719,-6.1719,-6.1719,-6.1719,-6.1719,-6.1718,-6.1716,-6.1711,-6.1705,-6.1699,-6.1697,-6.169,-6.1683,-6.1718,-6.1718,-6.1718,-6.1718,-6.1718,-6.1718,-6.1718,-6.1718,-6.1718,-6.1718,-6.1718,-6.166,-6.156,-6.15,-6.1412,-6.1272,-6.1207,-6.12,-6.1272,-6.1412,-6.1481,-6.1422,-6.1334,-6.1437,0.0,0.0,0.0,0.0,-4.5672,0.0,0.0,0.0,-4.1094,-3.8555,0.0,0.0,0.0,0.0,0.0,0.0,0.0,0.0,0.0,0.0,0.0,0.0,0.0,0.0,0.0,0.0,0.0,-5.3906,-5.2226,-5.2383,-5.543,-5.5703,-5.6094,-5.6875,-5.6914,-5.7265,-5.8047,-5.8047,-5.8476,-5.9336,-5.9336,-5.9765,-6.0547,-6.0547,-6.0976,-6.1719,-6.1719,-6.1719,-6.1719,-6.1719,-6.1719,-6.1719,-6.1719,-6.1719,-6.1719,-6.1719,-6.1719,-6.1719,-6.1719,-6.1719,-6.1719,-6.1719,-6.1719,-6.1719,-6.1719,-6.1719,-6.1719,-6.1719,-6.1719,-6.1719,-6.1719,-6.1719,-6.1719,-6.1719,-6.1719,-6.1719,-6.1719,-6.1719,-6.1719,-6.1719,-6.1719,-6.1718,-6.1716,-6.1712,-6.1705,-6.1699,-6.1697,-6.1692,-6.1681,-6.1718,-6.1718,-6.1718,-6.1718,-6.1718,-6.1718,-6.1718,-6.1718,-6.1718,-6.1718,-6.1676,-6.1671,-6.1573,-6.1486,-6.1471,-6.1292,-6.1292,-6.1471,-6.1486,-6.1401,-6.1259,-6.1526,-6.1598,0.0,0.0,0.0,0.0,0.0,0.0,0.0,0.0,-4.082,0.0,0.0,0.0,0.0,0.0,0.0,0.0,0.0,0.0,0.0,0.0,0.0,0.0,0.0,0.0,0.0,0.0,0.0,0.0,0.0,-5.125,-5.3672,-5.4765,-5.5469,-5.582,-5.6328,-5.6797,-5.7148,-5.7148,-5.7578,-5.8437,-5.8437,-5.8906,-5.9726,-6.0195,-6.0586,-6.0976,-6.1484,-6.1719,-6.1719,-6.1719,-6.1719,-6.1719,-6.1719,-6.1719,-6.1719,-6.1719,-6.1719,-6.1719,-6.1719,-6.1719,-6.1719,-6.1719,-6.1719,-6.1719,-6.1719,-6.1719,-6.1719,-6.1719,-6.1719,-6.1719,-6.1719,-6.1719,-6.1719,-6.1719,-6.1719,-6.1719,-6.1719,-6.1719,-6.1719,-6.1719,-6.1719,-6.1719,-6.1718,-6.1716,-6.1713,-6.1711,-6.1708,-6.1702,-6.1692,-6.169,-6.1688,-6.172,-6.1718,-6.1718,-6.1718,-6.1718,-6.1718,-6.1718,-6.1718,-6.1718,-6.1718,-6.1657,-6.1602,-6.1602,-6.1534,-6.153,-6.1602,-6.1602,-6.1588,-6.1474,-6.1618,-6.1668,-5.2239,0.0,0.0,0.0,0.0,0.0,0.0,0.0,0.0,0.0,0.0,0.0,0.0,0.0,0.0,0.0,0.0,0.0,0.0,0.0,0.0,0.0,0.0,0.0,0.0,0.0,0.0,0.0,0.0,0.0,-5.2187,-5.3789,-5.4805,-5.5273,-5.6133,-5.6601,-5.6601,-5.6601,-5.6914,-5.7539,-5.7539,-5.8008,-5.8867,-5.9453,-5.9844,-6.0117,-6.0976,-6.1328,-6.1367,-6.1601,-6.1719,-6.1719,-6.1719,-6.1719,-6.1719,-6.1719,-6.1719,-6.1719,-6.1719,-6.1719,-6.1719,-6.1719,-6.1719,-6.1719,-6.1719,-6.1719,-6.1719,-6.1719,-6.1719,-6.1719,-6.1719,-6.1719,-6.1719,-6.1719,-6.1719,-6.1719,-6.1719,-6.1719,-6.1719,-6.1719,-6.1719,-6.1719,-6.1719,-6.1718,-6.1717,-6.1717,-6.1714,-6.1709,-6.1702,-6.1701,-6.1697,-6.1686,-6.1686,-6.1683,-6.1718,-6.1718,-6.1718,-6.1718,-6.1718,-6.1718,-6.1718,-6.1718,-6.1718,-6.1718,-6.1718,-6.1718,-6.1718,-6.1718,-6.1718,-6.1718,-6.1718,-6.1718,0.0,0.0,0.0,-4.7794,0.0,0.0,0.0,0.0,-4.4276,0.0,0.0,0.0,0.0,0.0,-4.082,-4.0,0.0,0.0,0.0,0.0,0.0,0.0,0.0,0.0,0.0,0.0,0.0,0.0,0.0,0.0,-5.1133,-5.2305,-5.3555,-5.5234,-5.6133,-5.6601,-5.6601,-5.6601,-5.6601,-5.664,-5.664,-5.7109,-5.793,-5.7969,-5.8437,-5.9297,-6.0078,-6.043,-6.0508,-6.1367,-6.1719,-6.1719,-6.1719,-6.1719,-6.1719,-6.1719,-6.1719,-6.1719,-6.1719,-6.1719,-6.1719,-6.1719,-6.1719,-6.1719,-6.1719,-6.1719,-6.1719,-6.1719,-6.1719,-6.1719,-6.1719,-6.1719,-6.1719,-6.1719,-6.1719,-6.1719,-6.1719,-6.1719,-6.1719,-6.1719,-6.1719,-6.1719,-6.1719,-6.1719,-6.1718,-6.1717,-6.1716,-6.1715,-6.1709,-6.1708,-6.1707,-6.1697,-6.1697,-6.1694,-6.1681,-6.1718,-6.1718,-6.1718,-6.1718,-6.1718,-6.1718,-6.1718,-6.1718,-6.1718,-6.1718,-6.1718,-6.1718,-6.1718,-6.1718,-6.1718,-6.1718,-6.1718,0.0,0.0,-5.6498,-5.0863,0.0,0.0,0.0,0.0,0.0,0.0,0.0,0.0,0.0,0.0,-4.1627,-4.0767,-3.9489,0.0,0.0,0.0,0.0,0.0,0.0,0.0,0.0,0.0,0.0,0.0,0.0,0.0,0.0,-5.0742,-5.2383,-5.3555,-5.4961,-5.6015,-5.6601,-5.6601,-5.6601,-5.6601,-5.6601,-5.6758,-5.707,-5.7656,-5.8047,-5.8437,-5.9805,-6.039,-6.0469,-6.1328,-6.1719,-6.1719,-6.1719,-6.1719,-6.1719,-6.1719,-6.1719,-6.1719,-6.1719,-6.1719,-6.1719,-6.1719,-6.1719,-6.1719,-6.1719,-6.1719,-6.1719,-6.1719,-6.1719,-6.1719,-6.1719,-6.1719,-6.1719,-6.1719,-6.1719,-6.1719,-6.1719,-6.1719,-6.1719,-6.1719,-6.1719,-6.1719,-6.1719,-6.1719,-6.1719,-6.1718,-6.1718,-6.1718,-6.1715,-6.1715,-6.1712,-6.1707,-6.1705,-6.1702,-6.1694,-6.1686,-6.1718,-6.1718,-6.1718,-6.1718,-6.1718,-6.1718,-6.1718,-6.1718,-6.1718,-6.1718,-6.1718,-6.1718,-6.1718,-6.1718,-6.1718,-6.1718,-5.8165,-5.8357,0.0,-5.3151,-5.2028,0.0,-4.5896,0.0,0.0,0.0,0.0,0.0,0.0,0.0,-4.2917,-4.2015,-4.0294,-3.7928,0.0,0.0,0.0,0.0,0.0,0.0,0.0,0.0,-3.8945,-4.2148,0.0,0.0,0.0,0.0,-5.1367,-5.2226,-5.4219,-5.5586,-5.6133,-5.6445,-5.6601,-5.6601,-5.6601,-5.6601,-5.6601,-5.7187,-5.7422,-5.7539,-5.8906,-5.9687,-6.0039,-6.0898,-6.1406,-6.1719,-6.1719,-6.1719,-6.1719,-6.1719,-6.1719,-6.1719,-6.1719,-6.1719,-6.1719,-6.1719,-6.1719,-6.1719,-6.1719,-6.1719,-6.1719,-6.1719,-6.1719,-6.1719,-6.1719,-6.1719,-6.1719,-6.1719,-6.1719,-6.1719,-6.1719,-6.1719,-6.1719,-6.1719,-6.1719,-6.1719,-6.1719,-6.1719,-6.1719,-6.1719,-6.1719,-6.1719,-6.1718,-6.1718,-6.1717,-6.1712,-6.1712,-6.1709,-6.1699,-6.1692,-6.1686,-6.1718,-6.1718,-6.1718,-6.1718,-6.1718,-6.1718,-6.1718,-6.1718,-6.1718,-6.1718,-6.1718,-6.1718,-6.1718,-6.1718,-6.1718]},{"header":{"parameterUnit":"m.s-1","parameterCategory":1,"la1":30.6,"la2":29.2853,"lo1":-89.7004,"lo2":-87.6739,"dy":0.0162,"dx":0.0183,"nx":112,"ny":82,"refTime":"2024-05-22T18:00:00:Z","depth":0,"parameterNumber":3,"parameterNumberName":"V-component_of_WINDS"},"data":[0.0,0.0,0.0,0.0,0.0,0.0,0.0,0.0,0.0,0.0,0.0,0.0,0.0,0.0,0.0,0.0,0.0,0.0,0.0,0.0,0.0,0.0,0.0,0.0,0.0,0.0,0.0,0.0,0.0,0.0,0.0,0.0,0.0,0.0,0.0,0.0,0.0,0.0,0.0,0.0,0.0,0.0,0.0,0.0,0.0,0.0,0.0,0.0,0.0,0.0,0.0,0.0,0.0,0.0,0.0,0.0,0.0,0.0,0.0,0.0,0.0,0.0,0.0,0.0,0.0,0.0,0.0,0.0,0.0,0.0,0.0,0.0,0.0,0.0,0.0,0.0,0.0,0.0,0.0,0.0,0.0,0.0,0.0,0.0,0.0,0.0,0.0,0.0,0.0,0.0,0.0,-1.027,-1.2073,-1.2527,-1.0552,-1.1007,-1.0329,-0.7796,0.0,0.0,0.0,0.0,0.0,0.0,0.0,0.0,0.0,0.0,0.0,0.0,0.0,0.0,0.0,0.0,0.0,0.0,0.0,0.0,0.0,0.0,0.0,0.0,0.0,0.0,0.0,0.0,0.0,0.0,0.0,0.0,0.0,0.0,0.0,0.0,0.0,0.0,0.0,0.0,0.0,0.0,0.0,0.0,0.0,0.0,0.0,0.0,0.0,0.0,0.0,0.0,0.0,0.0,0.0,0.0,0.0,0.0,0.0,0.0,0.0,0.0,0.0,0.0,0.0,0.0,0.0,0.0,0.0,0.0,0.0,0.0,0.0,0.0,0.0,0.0,0.0,0.0,0.0,0.0,0.0,0.0,0.0,0.0,0.0,0.0,0.0,0.0,0.0,0.0,0.0,0.0,0.0,0.0,0.0,0.0,0.0,0.0,0.0,0.0,0.0,0.0,0.0,0.0,-1.0563,-1.325,-1.4053,-1.4219,-1.3875,-1.1312,-0.9309,-0.8223,0.0,0.0,0.0,0.0,0.0,0.0,0.0,0.0,0.0,0.0,0.0,0.0,0.0,0.0,0.0,0.0,0.0,0.0,0.0,0.0,0.0,0.0,0.0,0.0,0.0,0.0,0.0,0.0,0.0,0.0,0.0,0.0,0.0,0.0,0.0,0.0,0.0,0.0,0.0,0.0,0.0,0.0,0.0,0.0,0.0,0.0,0.0,0.0,0.0,0.0,0.0,0.0,0.0,0.0,0.0,0.0,0.0,0.0,0.0,0.0,0.0,0.0,0.0,0.0,0.0,0.0,0.0,0.0,0.0,0.0,0.0,0.0,0.0,0.0,0.0,0.0,0.0,0.0,0.0,0.0,0.0,0.0,0.0,0.0,0.0,0.0,0.0,0.0,0.0,0.0,0.0,0.0,0.0,0.0,0.0,0.0,0.0,0.0,0.0,0.0,0.0,0.0,0.0,-1.1389,-1.2169,-1.5054,-1.5849,-1.5481,-1.3707,-1.2543,-1.0915,-0.849,-0.7311,0.0,0.0,0.0,0.0,0.0,0.0,0.0,0.0,0.0,0.0,0.0,0.0,0.0,0.0,0.0,0.0,0.0,0.0,0.0,0.0,0.0,0.0,0.0,0.0,0.0,0.0,0.0,0.0,0.0,0.0,0.0,0.0,0.0,0.0,0.0,0.0,0.0,0.0,0.0,0.0,0.0,0.0,0.0,0.0,0.0,0.0,0.0,0.0,0.0,0.0,0.0,0.0,0.0,0.0,0.0,0.0,0.0,0.0,0.0,0.0,0.0,0.0,0.0,0.0,0.0,0.0,0.0,0.0,0.0,0.0,0.0,0.0,0.0,0.0,0.0,0.0,0.0,0.0,0.0,0.0,0.0,0.0,0.0,0.0,0.0,0.0,0.0,0.0,0.0,0.0,0.0,0.0,0.0,0.0,0.0,0.0,0.0,0.0,0.0,0.0,0.0,0.0,-1.4013,-1.455,-1.6148,-1.7026,-1.6356,-1.3469,-1.3386,-1.202,-0.8601,-0.7354,0.0,0.0,0.0,0.0,0.0,0.0,0.0,0.0,0.0,0.0,0.0,0.0,0.0,0.0,0.0,0.0,0.0,0.0,0.0,0.0,0.0,0.0,0.0,0.0,0.0,0.0,0.0,0.0,0.0,0.0,0.0,0.0,0.0,0.0,0.0,0.0,0.0,0.0,0.0,0.0,0.0,0.0,0.0,0.0,0.0,0.0,0.0,0.0,0.0,0.0,0.0,0.0,0.0,0.0,0.0,0.0,0.0,0.0,0.0,0.0,0.0,0.0,0.0,0.0,0.0,0.0,0.0,0.0,0.0,0.0,0.0,0.0,0.0,0.0,0.0,0.0,0.0,0.0,0.0,0.0,0.0,0.0,0.0,0.0,0.0,0.0,0.0,0.0,0.0,0.0,0.0,0.0,0.0,0.0,0.0,0.0,0.0,0.0,0.0,0.0,0.0,0.0,-1.5325,-1.7143,-1.6777,-1.7198,-1.6762,-1.4993,-1.2856,-1.0666,-0.8456,-0.7072,0.0,0.0,0.0,0.0,0.0,0.0,0.0,0.0,0.0,0.0,0.0,0.0,0.0,0.0,0.0,0.0,0.0,0.0,0.0,0.0,0.0,0.0,0.0,0.0,0.0,0.0,0.0,0.0,0.0,0.0,0.0,0.0,0.0,0.0,0.0,0.0,0.0,0.0,0.0,0.0,0.0,0.0,0.0,0.0,0.0,0.0,0.0,0.0,0.0,0.0,0.0,0.0,0.0,0.0,0.0,0.0,0.0,0.0,0.0,0.0,0.0,0.0,0.0,0.0,0.0,0.0,0.0,0.0,0.0,0.0,0.0,0.0,0.0,0.0,0.0,0.0,0.0,0.0,0.0,0.0,0.0,0.0,0.0,0.0,0.0,0.0,0.0,0.0,0.0,0.0,0.0,0.0,0.0,0.0,0.0,0.0,0.0,0.0,0.0,0.0,0.0,0.0,-1.541,-1.7053,0.0,-1.7521,-1.7011,-1.6189,-1.3559,-1.1272,-0.9631,0.0,0.0,0.0,0.0,0.0,0.0,0.0,0.0,0.0,0.0,0.0,0.0,0.0,0.0,0.0,0.0,0.0,0.0,0.0,0.0,0.0,0.0,0.0,0.0,0.0,0.0,0.0,0.0,0.0,0.0,0.0,0.0,0.0,0.0,0.0,0.0,0.0,0.0,0.0,0.0,0.0,0.0,0.0,0.0,0.0,0.0,0.0,0.0,0.0,0.0,0.0,0.0,0.0,0.0,0.0,0.0,0.0,0.0,0.0,0.0,0.0,0.0,0.0,0.0,0.0,0.0,0.0,0.0,0.0,0.0,0.0,0.0,0.0,0.0,0.0,0.0,0.0,0.0,0.0,0.0,0.0,0.0,0.0,0.0,0.0,0.0,0.0,0.0,0.0,0.0,0.0,0.0,0.0,0.0,0.0,0.0,0.0,0.0,0.0,0.0,0.0,0.0,-1.3854,-1.5605,-1.7154,0.0,-1.8056,-1.7333,-1.6239,-1.3954,-1.1707,-0.9699,0.0,0.0,0.0,0.0,0.0,0.0,0.0,0.0,0.0,0.0,0.0,0.0,0.0,0.0,0.0,0.0,0.0,0.0,0.0,0.0,0.0,0.0,0.0,0.0,0.0,0.0,0.0,0.0,0.0,0.0,0.0,0.0,0.0,0.0,0.0,0.0,0.0,0.0,0.0,0.0,0.0,0.0,0.0,0.0,0.0,0.0,0.0,0.0,0.0,0.0,0.0,0.0,0.0,0.0,0.0,0.0,0.0,0.0,0.0,0.0,0.0,0.0,0.0,0.0,0.0,0.0,0.0,0.0,0.0,0.0,0.0,0.0,0.0,0.0,0.0,0.0,0.0,0.0,0.0,0.0,0.0,0.0,0.0,0.0,0.0,0.0,0.0,0.0,0.0,0.0,0.0,0.0,0.0,0.0,0.0,0.0,0.0,0.0,0.0,0.0,0.0,0.0,-1.3893,-1.6126,-1.7809,-1.8424,-1.8744,-1.7754,-1.5044,-1.3812,-1.1698,0.0,0.0,0.0,0.0,0.0,0.0,0.0,0.0,0.0,0.0,0.0,0.0,0.0,0.0,0.0,0.0,0.0,0.0,0.0,0.0,0.0,0.0,0.0,0.0,0.0,0.0,0.0,0.0,0.0,0.0,0.0,0.0,0.0,0.0,0.0,0.0,0.0,0.0,0.0,0.0,0.0,0.0,0.0,0.0,0.0,0.0,0.0,0.0,0.0,0.0,0.0,0.0,0.0,0.0,0.0,0.0,0.0,0.0,0.0,0.0,0.0,0.0,0.0,0.0,0.0,0.0,0.0,0.0,0.0,0.0,0.0,0.0,0.0,0.0,0.0,0.0,0.0,0.0,0.0,0.0,0.0,0.0,0.0,0.0,0.0,0.0,0.0,0.0,0.0,0.0,0.0,0.0,0.0,0.0,0.0,0.0,0.0,0.0,0.0,0.0,0.0,0.0,0.0,-1.3935,-1.6,-1.7515,-1.8116,-1.7511,-1.6685,-1.5737,-1.3569,-1.1383,-0.9206,0.0,0.0,0.0,0.0,0.0,0.0,0.0,0.0,0.0,0.0,0.0,0.0,0.0,0.0,0.0,0.0,0.0,0.0,0.0,0.0,0.0,0.0,0.0,0.0,0.0,0.0,0.0,0.0,0.0,0.0,0.0,0.0,0.0,0.0,0.0,0.0,0.0,0.0,0.0,0.0,0.0,0.0,0.0,0.0,0.0,0.0,0.0,0.0,0.0,0.0,0.0,0.0,0.0,0.0,0.0,0.0,0.0,0.0,0.0,0.0,0.0,0.0,0.0,0.0,0.0,0.0,0.0,0.0,0.0,0.0,0.0,0.0,0.0,0.0,0.0,0.0,0.0,0.0,0.0,0.0,0.0,0.0,0.0,0.0,0.0,0.0,0.0,0.0,0.0,0.0,0.0,0.0,0.0,0.0,0.0,0.0,0.0,0.0,0.0,0.0,0.0,0.0,-1.3935,-1.5933,-1.7434,-1.7929,-1.698,-1.6157,-1.5846,-1.3393,-1.123,-0.9628,0.0,0.0,0.0,0.0,0.0,0.0,0.0,0.0,0.0,0.0,0.0,0.0,0.0,0.0,0.0,0.0,0.0,0.0,0.0,0.0,0.0,0.0,0.0,0.0,0.0,0.0,0.0,0.0,0.0,0.0,0.0,0.0,0.0,0.0,0.0,0.0,0.0,0.0,0.0,0.0,0.0,0.0,0.0,0.0,0.0,0.0,0.0,0.0,0.0,0.0,0.0,0.0,0.0,0.0,0.0,0.0,0.0,0.0,0.0,0.0,0.0,0.0,0.0,0.0,0.0,0.0,0.0,0.0,0.0,0.0,0.0,0.0,0.0,0.0,0.0,0.0,0.0,0.0,0.0,0.0,0.0,0.0,0.0,0.0,0.0,0.0,0.0,0.0,0.0,0.0,0.0,0.0,0.0,0.0,0.0,0.0,0.0,0.0,0.0,0.0,0.0,0.0,-1.3933,-1.5919,-1.7341,-1.7889,-1.6942,-1.6018,-1.5471,-1.3267,-1.1201,-0.9561,0.0,0.0,0.0,0.0,0.0,0.0,0.0,0.0,0.0,0.0,0.0,0.0,0.0,0.0,0.0,0.0,0.0,0.0,0.0,0.0,0.0,0.0,0.0,0.0,0.0,0.0,0.0,0.0,0.0,0.0,0.0,0.0,0.0,0.0,0.0,0.0,0.0,0.0,0.0,0.0,0.0,0.0,0.0,0.0,0.0,0.0,0.0,0.0,0.0,0.0,0.0,0.0,0.0,0.0,0.0,0.0,0.0,0.0,0.0,0.0,-0.684,0.0,0.0,0.0,0.0,0.0,0.0,0.0,0.0,0.0,0.0,0.0,0.0,0.0,0.0,0.0,0.0,0.0,0.0,0.0,0.0,0.0,0.0,0.0,0.0,0.0,0.0,0.0,0.0,0.0,0.0,0.0,0.0,0.0,0.0,0.0,0.0,0.0,0.0,0.0,0.0,0.0,-1.4199,-1.5818,-1.7021,-1.7622,-1.6653,-1.5494,-1.435,-1.2801,-1.0932,-0.873,0.0,0.0,0.0,0.0,0.0,0.0,0.0,0.0,0.0,0.0,0.0,0.0,0.0,0.0,0.0,0.0,0.0,0.0,0.0,0.0,0.0,0.0,0.0,0.0,0.0,0.0,0.0,0.0,0.0,0.0,0.0,0.0,0.0,0.0,0.0,0.0,0.0,0.0,0.0,0.0,0.0,0.0,0.0,0.0,0.0,0.0,0.0,0.0,0.0,0.0,0.0,0.0,0.0,0.0,0.0,0.0,0.0,0.0,0.0,0.0,0.0,-0.7631,0.0,0.0,0.0,0.0,0.0,0.0,0.0,0.0,0.0,0.0,0.0,0.0,0.0,0.0,0.0,0.0,0.0,0.0,0.0,0.0,0.0,0.0,0.0,0.0,0.0,0.0,0.0,0.0,0.0,0.0,0.0,0.0,0.0,0.0,0.0,0.0,0.0,0.0,0.0,0.0,-1.3724,-1.506,-1.5896,-1.5907,-1.537,-1.468,-1.3867,-1.2645,-1.1247,-0.9627,-0.8429,0.0,0.0,0.0,0.0,0.0,0.0,0.0,0.0,0.0,0.0,0.0,0.0,0.0,0.0,0.0,0.0,0.0,0.0,0.0,0.0,0.0,0.0,0.0,0.0,0.0,0.0,0.0,0.0,0.0,0.0,0.0,0.0,0.0,0.0,0.0,0.0,0.0,0.0,0.0,0.0,0.0,0.0,0.0,0.0,0.0,0.0,0.0,0.0,0.0,0.0,0.0,0.0,0.0,-0.8994,-0.9103,-0.9195,-0.9432,-0.9525,-0.9521,-0.9345,-0.9101,-0.8726,0.0,0.0,0.0,0.0,0.0,0.0,0.0,0.0,0.0,0.0,0.0,0.0,0.0,0.0,0.0,0.0,0.0,0.0,0.0,0.0,0.0,0.0,0.0,0.0,0.0,-0.7929,-0.7924,0.0,0.0,0.0,0.0,0.0,0.0,0.0,0.0,0.0,0.0,0.0,0.0,-1.3017,-1.407,-1.4596,-1.4137,-1.3922,-1.3719,-1.3446,-1.2333,-1.1355,-1.0722,-0.9114,-0.7948,0.0,0.0,0.0,0.0,0.0,0.0,0.0,0.0,0.0,0.0,0.0,0.0,0.0,0.0,0.0,0.0,0.0,0.0,0.0,0.0,0.0,0.0,0.0,0.0,0.0,0.0,0.0,0.0,0.0,0.0,0.0,0.0,-0.5788,-0.6424,0.0,0.0,0.0,0.0,0.0,0.0,0.0,0.0,0.0,0.0,0.0,0.0,0.0,-0.8716,-0.903,-0.9401,-0.97,-0.9815,-1.0134,-1.0337,-1.0487,-1.0767,-1.0891,-1.0757,-1.1007,0.0,-0.9106,-0.8611,0.0,0.0,0.0,0.0,0.0,0.0,0.0,0.0,0.0,0.0,0.0,0.0,0.0,0.0,0.0,0.0,0.0,0.0,0.0,0.0,0.0,0.0,-0.854,-0.8642,-0.8723,-0.875,0.0,-0.7806,-0.7133,-0.6898,-0.7103,0.0,0.0,0.0,0.0,0.0,0.0,0.0,-1.2621,-1.3377,-1.3941,-1.4105,-1.3221,-1.2548,-1.2399,-1.1203,-1.0254,-0.9813,-0.911,-0.8452,-0.7935,-0.7228,0.0,0.0,0.0,0.0,0.0,0.0,0.0,0.0,0.0,0.0,0.0,0.0,0.0,0.0,0.0,0.0,0.0,0.0,0.0,0.0,0.0,0.0,0.0,0.0,0.0,0.0,0.0,0.0,0.0,-0.5725,-0.6532,-0.6797,-0.6865,-0.679,0.0,0.0,0.0,0.0,0.0,0.0,0.0,0.0,0.0,-0.9008,-0.9306,-0.9646,-1.0032,-1.031,-1.0527,-1.0677,-1.0806,-1.0907,-1.0968,-1.1104,-1.1198,-1.1135,-1.127,-1.0864,-1.0107,-0.9576,-0.9065,-0.8526,0.0,0.0,0.0,0.0,-0.7955,-0.7984,-0.8391,-0.8391,0.0,0.0,0.0,0.0,0.0,0.0,0.0,0.0,0.0,0.0,0.0,0.0,0.0,-0.9022,-0.9123,-0.915,-0.9133,-0.8832,-0.8386,0.0,-0.7773,-0.7916,-0.799,0.0,0.0,0.0,0.0,0.0,-1.1825,-1.236,-1.2607,-1.2236,-1.2309,-1.2072,-1.1238,-1.1151,-1.0758,-0.9837,-0.9364,-0.8974,-0.8633,-0.7935,-0.7249,0.0,0.0,0.0,0.0,0.0,0.0,0.0,0.0,0.0,0.0,0.0,0.0,0.0,0.0,0.0,0.0,0.0,0.0,0.0,0.0,0.0,0.0,0.0,0.0,0.0,0.0,0.0,0.0,-0.6525,-0.7082,-0.7152,-0.7475,-0.7536,0.0,0.0,0.0,0.0,0.0,0.0,-0.8859,-0.9103,-0.9449,-0.9937,-1.0098,-1.0395,-1.0833,-1.0948,-1.1077,-1.1219,-1.1219,-1.124,-1.128,-1.128,-1.126,-1.1219,-1.1219,-1.1138,-1.0941,-1.0406,-0.9898,-0.9354,-0.9055,-0.8784,-0.8601,-0.8974,-0.9035,-0.9008,-0.9496,-0.9564,-0.9374,-0.9001,0.0,-0.8214,-0.7577,0.0,0.0,0.0,0.0,-0.8241,-0.8615,-0.8906,-0.915,-0.9293,-0.9408,-0.9483,-0.9449,-0.9527,-0.9356,0.0,-0.8432,-0.8528,-0.8901,0.0,0.0,0.0,0.0,-1.134,-1.1516,-1.1868,-1.1872,-1.1219,-1.161,-1.1513,-1.0433,-1.1011,-1.0972,-0.9886,-0.9567,-0.9348,-0.9169,-0.8552,-0.7886,-0.7208,0.0,0.0,0.0,0.0,0.0,0.0,0.0,0.0,0.0,0.0,0.0,0.0,0.0,0.0,0.0,0.0,0.0,0.0,0.0,0.0,0.0,0.0,0.0,0.0,0.0,0.0,0.0,0.0,0.0,-0.7887,-0.8248,0.0,0.0,0.0,0.0,-0.8628,-0.892,-0.9347,-0.9876,-0.9985,-1.027,-1.0793,-1.0826,-1.0982,-1.1138,-1.1151,-1.1226,-1.1382,-1.1382,-1.1457,-1.1599,-1.1599,-1.1518,-1.1382,-1.1382,-1.1294,-1.1186,-1.0643,-1.027,-0.9916,-0.968,-0.9469,-0.9347,-0.9517,-0.9571,-0.9591,-0.9754,-0.972,-0.9639,-0.9829,-0.9571,-0.9118,-0.8893,-0.8635,0.0,0.0,-0.8866,-0.918,-0.9293,-0.9456,-0.9612,-0.9754,-0.9795,-0.9761,-0.9625,-0.9591,-0.9483,0.0,-0.9007,-0.8806,-0.865,0.0,-0.9641,-0.9356,-1.1225,-1.2586,-1.2188,-1.2276,-1.2354,-1.2309,-1.1391,-1.0604,-1.0253,-1.0272,-1.0117,-0.9665,-0.9624,-0.9535,-0.9396,-0.8982,-0.8446,-0.7771,-0.6846,0.0,0.0,0.0,0.0,0.0,0.0,0.0,0.0,0.0,0.0,0.0,0.0,0.0,0.0,0.0,0.0,0.0,0.0,0.0,0.0,0.0,0.0,0.0,0.0,0.0,0.0,0.0,0.0,-0.8703,-0.9022,0.0,0.0,-0.9089,-0.9306,-0.9498,-0.9849,-1.0195,-1.0543,-1.0717,-1.0955,-1.1369,-1.1382,-1.1497,-1.1814,-1.1814,-1.1769,-1.1823,-1.1823,-1.185,-1.1898,-1.1803,-1.1728,-1.1667,-1.1579,-1.145,-1.1301,-1.1138,-1.0894,-1.055,-1.0449,-1.0317,-1.0114,-1.027,-1.0263,-1.0202,-1.0351,-1.0304,-1.0161,-1.0017,-0.9836,-0.9571,-0.9523,-0.9429,-0.9374,-0.953,-0.9712,-0.9828,-0.9924,-0.9998,-1.0032,-0.9916,-0.9909,-0.9862,-0.9781,-0.9747,-0.9713,-0.9605,-0.9453,-0.941,-0.9704,-0.9677,-0.9729,-1.0151,-1.0671,-1.1002,-1.1052,-1.1225,-1.1282,-1.1282,-1.0808,-1.0428,-1.0237,-1.0106,-0.9884,-0.9591,-0.9518,-0.9469,-0.9404,-0.9007,-0.8536,-0.7935,-0.7382,-0.6603,0.0,0.0,0.0,0.0,0.0,0.0,0.0,0.0,0.0,0.0,0.0,0.0,0.0,0.0,0.0,0.0,0.0,0.0,0.0,0.0,0.0,0.0,0.0,0.0,0.0,0.0,-0.8784,-0.9241,-0.9591,-0.9774,-0.9625,-0.9836,-1.0086,-1.0274,-1.0582,-1.0853,-1.1089,-1.1267,-1.1457,-1.1762,-1.1769,-1.1864,-1.2135,-1.2135,-1.2135,-1.2135,-1.2135,-1.2135,-1.2135,-1.1952,-1.1911,-1.1898,-1.1755,-1.1633,-1.1538,-1.1491,-1.1321,-1.109,-1.0921,-1.0759,-1.0649,-1.0704,-1.0656,-1.0582,-1.0683,-1.0656,-1.0527,-1.0276,-1.0127,-1.0039,-0.9992,-0.9978,-0.9998,-1.01,-1.019,-1.0217,-1.0256,-1.0283,-1.0256,-1.0154,-1.0024,-0.9957,-0.9856,-0.9856,-0.9822,-0.9822,-0.9669,-0.9731,-1.0053,-0.9826,-0.9791,-1.0439,-1.0629,-1.0845,-1.1056,-1.1213,-1.1282,-1.1282,-1.0808,-1.042,-1.0237,-1.0098,-0.9876,-0.9591,-0.9453,-0.9404,-0.9404,-0.8958,-0.8536,-0.8113,-0.7521,-0.6841,-0.6,0.0,0.0,0.0,0.0,0.0,0.0,0.0,0.0,0.0,0.0,0.0,0.0,0.0,0.0,0.0,0.0,0.0,0.0,0.0,0.0,0.0,0.0,0.0,-0.7995,-0.8534,-0.9083,-0.9381,-0.9937,-1.0243,-1.0031,-1.0473,-1.0799,-1.088,-1.1097,-1.1307,-1.1613,-1.1633,-1.1769,-1.2135,-1.2142,-1.2149,-1.2074,-1.2074,-1.2074,-1.2074,-1.2074,-1.2074,-1.2074,-1.2149,-1.2142,-1.2135,-1.1904,-1.1837,-1.1823,-1.1681,-1.1538,-1.1369,-1.1008,-1.0887,-1.086,-1.0778,-1.0724,-1.0717,-1.0717,-1.0717,-1.0697,-1.0548,-1.05,-1.0473,-1.0337,-1.0297,-1.0297,-1.0297,-1.0297,-1.0297,-1.0297,-1.0297,-1.029,-1.029,-1.0175,-0.9997,-0.999,-0.9869,-0.9829,-0.9822,-0.9707,-0.9612,-0.9612,-0.9717,-0.9853,-0.9986,-1.1237,0.0,-1.2346,-1.2363,-1.2363,-1.2363,-1.1337,-1.0542,-1.0245,-1.0212,-0.9998,-0.964,-0.9445,-0.9396,-0.9396,-0.8898,-0.8531,-0.8292,-0.7261,-0.6571,-0.6236,0.0,0.0,0.0,0.0,0.0,0.0,0.0,0.0,0.0,0.0,0.0,0.0,0.0,0.0,0.0,0.0,0.0,0.0,0.0,0.0,0.0,0.0,-0.8513,-0.8615,-0.9242,-0.9795,-1.0154,-1.0527,-1.0678,-1.0638,-1.0907,-1.1104,-1.126,-1.1409,-1.1572,-1.1762,-1.1877,-1.2026,-1.2223,-1.223,-1.2277,-1.2379,-1.2379,-1.2379,-1.2379,-1.2379,-1.2379,-1.2379,-1.2277,-1.223,-1.2216,-1.2067,-1.1932,-1.183,-1.1789,-1.1687,-1.1538,-1.1341,-1.1138,-1.0873,-1.0833,-1.0745,-1.0717,-1.0717,-1.0717,-1.0711,-1.067,-1.0656,-1.0649,-1.0609,-1.0602,-1.0602,-1.0602,-1.0602,-1.0602,-1.0602,-1.0602,-1.0568,-1.046,-1.0399,-1.031,-1.0031,-0.9957,-0.9889,-0.9842,-0.9788,-0.9787,-0.9863,-0.9926,-1.0017,-1.0206,-1.0421,0.0,-1.1003,-1.0935,-1.0962,-1.1126,-1.0737,-1.0412,-1.0237,-1.009,-0.9811,-0.9502,-0.9267,-0.9169,-0.9169,-0.8901,-0.8609,-0.83,-0.7618,-0.7126,0.0,0.0,0.0,0.0,0.0,0.0,0.0,0.0,0.0,0.0,0.0,0.0,0.0,0.0,0.0,0.0,0.0,0.0,0.0,0.0,0.0,0.0,-0.7869,-0.9252,-0.9469,-0.9876,-1.0276,-1.0643,-1.0839,-1.0927,-1.1124,-1.1212,-1.1348,-1.1558,-1.166,-1.1803,-1.2013,-1.2108,-1.2223,-1.2372,-1.2379,-1.242,-1.2501,-1.2501,-1.2501,-1.2501,-1.2501,-1.2501,-1.2501,-1.242,-1.2379,0.0,-1.2223,-1.2067,-1.1925,-1.1857,-1.1748,0.0,0.0,0.0,0.0,0.0,-1.0853,-1.0717,-1.0717,-1.0717,-1.0717,-1.0717,-1.0717,-1.0717,-1.0717,-1.0717,-1.0717,-1.0717,-1.0717,-1.0717,-1.0717,-1.0717,-1.0697,-1.0609,-1.0541,-1.0446,-1.027,-1.0078,-0.9963,-0.9869,-0.9863,0.0,-0.9887,-0.9933,-1.0003,-1.0318,-1.0098,-1.0087,-1.0473,-1.0366,-1.0366,-1.0531,-1.0552,-1.0469,-1.029,-1.0111,0.0,0.0,0.0,-0.9104,-0.8885,-0.8771,0.0,0.0,0.0,0.0,0.0,0.0,0.0,0.0,-0.7512,-0.8099,0.0,0.0,0.0,0.0,0.0,0.0,0.0,0.0,0.0,0.0,0.0,0.0,0.0,0.0,0.0,0.0,-0.8878,-0.9978,-1.029,-1.0344,-1.0507,-1.0833,-1.0894,-1.1084,-1.1362,-1.1423,-1.1552,-1.1809,-1.1864,-1.1999,-1.2277,0.0,0.0,0.0,0.0,-1.2501,-1.2501,-1.2501,-1.2501,-1.2501,-1.2501,-1.2501,-1.2501,-1.2501,-1.2501,-1.2494,-1.2372,-1.223,-1.2074,-1.1918,-1.1762,-1.1606,-1.145,-1.1389,-1.1355,-1.0988,-1.0793,-1.0744,-1.0724,0.0,0.0,-1.0717,-1.0717,-1.0717,-1.0717,-1.0717,-1.0717,-1.0717,-1.0717,-1.0717,-1.0717,-1.0717,-1.0717,-1.0717,-1.0616,-1.0514,-1.0493,-1.027,-1.0011,-0.999,-0.9862,-0.9822,-0.9822,-0.9822,-0.9956,-1.0361,-1.009,-0.9983,-1.0398,-1.0397,-1.0335,-1.0366,0.0,0.0,-1.0399,-1.0266,-1.0071,-0.9868,-0.9592,-0.9192,-0.8718,-0.8702,-0.8612,-0.839,-0.8381,-0.8528,-0.882,-0.8844,-0.8861,-0.8852,-0.9018,-0.9939,0.0,0.0,0.0,0.0,0.0,0.0,0.0,0.0,0.0,0.0,0.0,0.0,0.0,0.0,0.0,-0.7968,-0.9239,-1.0297,-1.0595,-1.0744,-1.0786,-1.0873,-1.105,-1.1192,-1.1375,-1.1606,-1.1769,-1.183,-1.206,-1.223,-1.2284,-1.24,0.0,-1.2501,-1.2501,-1.2501,-1.2501,-1.2501,-1.2501,-1.2501,0.0,0.0,-1.2501,-1.2501,-1.2501,-1.2501,-1.2474,-1.2379,-1.2237,-1.2081,-1.1857,-1.1606,-1.145,-1.1389,-1.1355,-1.0988,-1.086,-1.082,-1.0765,-1.0717,-1.0717,-1.0717,-1.0717,-1.0717,-1.0717,-1.0717,0.0,-1.0717,-1.0717,-1.0717,-1.0717,-1.0717,-1.0717,-1.0717,-1.0697,-1.0643,-1.0521,-1.0358,-1.0202,-1.0011,-0.9862,-0.9822,-0.9822,-0.9822,-0.9808,-0.9902,-1.0017,-1.0098,-1.0336,-1.0398,-1.0524,-1.0602,-1.0696,-1.0623,-1.0399,-1.0266,-1.0022,-0.9697,-0.9478,-0.9355,-0.9249,-0.9249,-0.9167,-0.8942,-0.8942,-0.8901,-0.882,-0.8974,-0.9112,-0.9282,-0.9847,-1.0309,0.0,0.0,0.0,0.0,0.0,0.0,0.0,0.0,0.0,0.0,0.0,-0.3445,0.0,0.0,-0.787,-0.8127,-0.9425,-1.0466,-1.069,-1.0785,-1.0887,-1.1036,-1.1185,-1.1335,-1.1491,-1.1701,-1.1864,-1.1938,-1.2162,-1.2325,-1.2393,-1.2461,-1.2501,-1.2501,-1.2576,-1.2617,-1.2617,-1.2691,-1.2691,-1.2617,-1.2617,-1.2576,-1.2501,-1.2501,-1.2501,-1.2501,-1.2501,-1.242,-1.2271,-1.204,-1.1816,-1.1613,-1.1538,-1.1457,-1.1375,-1.1226,-1.1008,-1.0873,-1.0793,-1.0785,-1.0717,-1.0717,-1.0717,-1.0717,-1.0717,-1.0717,-1.0717,-1.0717,-1.0717,-1.0717,-1.0717,-1.0717,-1.0717,-1.0717,-1.0717,-1.0697,-1.0622,-1.0487,-1.0344,-1.0195,-1.0039,-0.9849,-0.9836,-0.9822,-0.9883,-1.0004,-0.994,-0.9905,-1.0091,-1.0167,-1.0227,-1.0272,-1.0531,-1.0655,-1.0566,-1.0314,-1.0046,-0.977,-0.9592,-0.9445,-0.9404,-0.9404,-0.9363,-0.9273,-0.9273,-0.9226,-0.9226,-0.9315,-0.9405,-0.9535,-1.0385,-1.081,0.0,0.0,0.0,0.0,0.0,0.0,0.0,0.0,-0.1397,-0.1513,-0.2727,-0.3733,-0.3681,-0.5902,-0.7878,-0.8092,-0.9269,-1.0248,-1.0638,-1.0744,-1.0853,-1.109,-1.1253,-1.1416,-1.1599,-1.1775,-1.1925,-1.2054,-1.223,-1.2379,-1.2494,-1.2501,-1.2515,-1.2549,-1.2664,-1.2745,-1.2773,-1.2901,-1.2901,-1.2773,-1.2745,-1.2664,-1.2549,-1.2515,-1.2501,-1.2501,-1.2501,-1.242,-1.2271,-1.1993,-1.1789,-1.166,-1.1633,-1.1545,-1.143,-1.1402,-1.124,-1.0961,-1.09,-1.0799,-1.0758,-1.0731,-1.0717,-1.0717,-1.0717,-1.0717,-1.0717,-1.0717,-1.0717,-1.0717,-1.0717,-1.0717,-1.0717,-1.0717,-1.0717,-1.0717,-1.0717,-1.0602,-1.0453,-1.031,-1.0154,-0.9936,-0.9849,-0.9822,-0.9883,-1.0186,-0.9961,-0.9769,-0.9909,-0.9982,-0.9991,-0.9883,-1.0327,-1.0625,-1.0647,-1.0347,-1.0131,-0.99,-0.9721,-0.9559,-0.9461,-0.9453,-0.9453,-0.9453,-0.9453,-0.9478,-0.9575,-0.9575,-0.9575,-0.9624,-1.0493,-1.0974,-0.0505,-0.0699,-0.1078,-0.1297,-0.1393,-0.1431,0.0,0.0,-0.166,-0.1725,-0.2805,-0.3752,-0.3822,-0.5199,-0.6686,-0.8167,-0.8612,-0.9226,-1.0518,-1.0772,-1.0867,-1.09,-1.1097,-1.1301,-1.1592,-1.187,-1.2047,-1.2135,-1.2318,-1.2488,-1.2501,-1.2501,-1.2562,-1.2698,-1.2718,-1.2793,-1.2935,-1.2949,-1.2949,-1.2935,-1.2793,-1.2718,-1.2698,-1.2562,-1.2501,-1.2501,-1.2501,-1.242,-1.2277,-1.2108,-1.1945,-1.1796,-1.1667,-1.1606,-1.1579,-1.1443,-1.1369,-1.1307,-1.0975,-1.0873,-1.0833,-1.0765,-1.0717,-1.0717,-1.0717,-1.0717,-1.0717,-1.0717,-1.0717,-1.0717,-1.0717,-1.0717,-1.0717,-1.0717,-1.0717,-1.0717,-1.0717,-1.0602,-1.0453,-1.031,-1.0154,-0.9936,-0.9849,-0.9822,-0.9822,-0.9822,-1.0051,-1.0162,-1.0013,-1.015,-1.0211,-0.9998,-1.0183,-1.0358,-1.0423,-1.0274,-1.0131,-0.99,-0.9721,-0.9567,-0.96,-0.96,-0.96,-0.96,-0.96,-0.9608,-0.9575,-0.9575,-0.9575,-0.9624,-0.9723,-1.0306,-0.103,-0.1204,0.0,0.0,-0.1583,-0.1681,-0.1749,-0.1785,-0.1817,-0.1902,-0.3054,-0.3745,-0.2999,-0.4683,-0.6464,0.0,-0.801,-0.9111,-1.0518,-1.0772,-1.0779,-1.0873,-1.1002,-1.1158,-1.1457,-1.1837,-1.2135,-1.2135,-1.2332,-1.2501,-1.2501,-1.2501,-1.2569,-1.2725,-1.282,-1.2935,-1.3085,-1.3173,-1.3173,-1.3085,-1.2935,-1.282,-1.2725,-1.2569,-1.2501,-1.2501,-1.2501,-1.242,-1.2277,-1.2128,-1.1972,-1.1816,-1.1674,-1.1619,-1.1613,-1.1545,-1.147,-1.1362,-1.1145,-1.1016,-1.0853,-1.0772,-1.0717,-1.0717,-1.0717,-1.0717,-1.0717,-1.0717,-1.0717,-1.0717,-1.0717,-1.0717,-1.0717,-1.0717,-1.0717,-1.0717,-1.0717,-1.067,-1.0582,-1.0432,-1.0283,-1.0134,-0.9916,-0.9883,-0.9822,-0.9822,-0.9943,-0.9949,-0.9804,-0.9879,-0.9975,-0.9895,-0.9964,-1.0006,-1.0046,-0.9885,-0.9707,-0.9546,-0.9521,-0.9488,-0.9385,-0.9525,-0.9575,-0.9575,-0.9575,-0.9575,-0.9575,-0.9575,-0.9575,-0.9575,-0.9575,-0.9821,-0.1462,0.0,0.0,-0.1719,-0.1791,-0.1853,-0.1836,-0.1885,-0.1937,-0.199,-0.2858,-0.3299,-0.2301,-0.3779,0.0,-0.6293,-0.7326,-0.8678,-1.0459,-1.0758,-1.0806,-1.0806,-1.0853,-1.1036,-1.1246,-1.1674,-1.1972,-1.2054,-1.2298,-1.2461,-1.2501,-1.2542,-1.2637,-1.2786,-1.2942,-1.3091,-1.3234,-1.3342,-1.3342,-1.3234,-1.3085,-1.2942,-1.2786,-1.2589,-1.2501,-1.2501,-1.2501,-1.244,-1.2332,-1.2142,-1.1993,-1.1877,-1.1694,-1.1619,-1.1619,-1.1619,-1.1552,-1.143,-1.128,-1.1131,-1.0982,-1.0833,-1.0758,-1.0717,-1.0717,-1.0717,-1.0717,-1.0717,-1.0717,-1.0717,-1.0717,-1.0717,-1.0717,-1.0717,-1.0717,-1.0717,-1.0717,-1.0717,-1.0677,-1.0521,-1.0378,-1.0229,-1.0011,-0.9862,-0.9822,-0.9822,-0.9822,-0.9781,-0.968,-0.9673,-0.9667,-0.9688,-0.9706,-0.9706,-0.9816,-0.9605,-0.9457,-0.9346,-0.9448,-0.9431,-0.9306,-0.9508,-0.9575,-0.9575,-0.9575,-0.9575,-0.9575,-0.9575,-0.9575,-0.9575,-0.9575,-0.9575,0.0,0.0,-0.1707,-0.1792,-0.1871,-0.1898,-0.1958,-0.1993,-0.2023,-0.2054,-0.2127,-0.2138,-0.2104,-0.2175,-0.3175,-0.5952,-0.6576,-0.7689,-1.0339,-1.0779,-1.082,-1.0744,-1.0793,-1.0887,0.0,-1.1369,-1.1755,-1.2115,-1.221,-1.2359,-1.2494,-1.2644,-1.2793,-1.2949,-1.3091,-1.3241,-1.339,-1.3397,-1.3397,-1.339,-1.3241,-1.3091,-1.2942,-1.2637,-1.2501,-1.2501,-1.2501,-1.2501,-1.2474,-1.2182,-1.2135,-1.2026,-1.1735,-1.1619,-1.1619,-1.1619,-1.1613,-1.1592,-1.1436,-1.128,-1.1131,-1.0989,-1.0839,-1.0717,-1.0717,-1.0717,-1.0717,-1.0717,-1.0717,-1.0717,-1.0717,-1.0717,-1.0717,-1.0717,-1.0717,-1.0717,-1.0717,-1.0717,-1.0677,-1.0521,-1.0378,-1.0229,-1.0011,-0.9862,-0.9822,-0.9822,-0.9822,-0.9822,-0.9815,-0.9557,-0.9438,-0.9411,-0.9437,-0.9541,-0.9761,-0.9605,-0.9509,-0.9502,-0.9509,-0.9478,-0.947,-0.9572,-0.9575,-0.9575,-0.9575,-0.9575,-0.9575,-0.9575,-0.9575,-0.9575,-0.9575,-0.9575,-0.154,0.0,-0.1806,-0.1857,-0.1922,-0.199,-0.205,-0.2056,-0.2057,-0.2087,-0.2061,-0.2037,-0.2048,-0.2065,-0.3055,-0.5866,-0.6569,-0.7626,-1.0339,-1.0934,-1.0995,-1.0751,-1.0786,0.0,0.0,0.0,0.0,-1.1891,-1.2149,-1.2352,-1.2494,-1.2651,-1.28,-1.2956,-1.3098,-1.3247,-1.3397,-1.3403,-1.3403,-1.3397,-1.3152,-1.2956,-1.28,-1.2596,-1.2501,-1.2501,-1.2501,-1.2501,-1.2488,-1.2291,-1.2155,-1.2115,-1.1837,-1.1701,-1.1619,-1.1619,-1.1619,-1.1599,-1.1443,-1.1294,-1.1138,-1.0995,-1.0779,-1.0717,-1.0717,-1.0717,-1.0717,-1.0717,-1.0717,-1.0717,-1.0717,-1.0717,-1.0717,-1.0717,-1.0717,-1.0717,-1.0717,-1.0717,-1.0704,-1.0656,-1.0521,-1.0371,-1.0229,-1.0073,-0.9876,-0.9836,-0.9822,-0.9788,-0.9693,-0.9503,-0.9364,-0.9272,-0.9161,-0.9106,-0.921,-0.9161,-0.9091,-0.8986,-0.9299,-0.9406,-0.9239,-0.9575,-0.9746,-0.9583,-0.9575,-0.9575,-0.9575,-0.9575,-0.9575,-0.9575,-0.9575,-0.9575,-0.1621,-0.1812,-0.1828,-0.1947,-0.2007,-0.2059,-0.2087,-0.2078,-0.206,-0.2048,-0.2005,-0.1967,-0.1956,-0.1971,-0.2746,-0.515,-0.6189,-0.7488,-0.9716,-1.0714,-1.1151,-1.0907,-1.0968,0.0,0.0,0.0,0.0,-1.1898,-1.2094,-1.2291,-1.2488,-1.2698,-1.2861,-1.3036,-1.3152,-1.3302,-1.3397,-1.3403,-1.3403,-1.3397,-1.3105,-1.2908,-1.2807,-1.2596,-1.2501,-1.2501,-1.2501,-1.2501,-1.2488,-1.2345,-1.2203,-1.2047,-1.1891,-1.1742,-1.1619,-1.1619,-1.1619,-1.1606,-1.1504,-1.1335,-1.1145,-1.1056,-1.0887,-1.0717,-1.0717,-1.0717,-1.0717,-1.0717,-1.0717,-1.0717,-1.0717,-1.0717,-1.0717,-1.0717,-1.0717,-1.0717,-1.0717,-1.0717,-1.0717,-1.0717,-1.0595,-1.0446,-1.0304,-1.0107,-0.9876,-0.9836,-0.9822,-0.9768,-0.9625,-0.9476,-0.932,-0.9228,-0.9022,-0.8885,-0.8885,-0.8885,-0.8844,-0.8798,-0.9223,-0.936,-0.9101,-0.9705,-0.9882,-0.9617,-0.9769,-0.9819,-0.9819,-0.9819,-0.9769,-0.9617,-0.9769,-0.9769,-0.1706,-0.1833,-0.1954,-0.2009,-0.2067,-0.2101,-0.2071,-0.2124,-0.2033,-0.1947,-0.19,-0.1868,0.0,0.0,-0.2346,-0.3916,-0.5604,-0.7167,-0.859,-1.0297,-1.1348,0.0,0.0,0.0,0.0,0.0,0.0,-1.2115,0.0,-1.2189,-1.2488,-1.2793,-1.2963,-1.2963,-1.3247,-1.3403,-1.3403,-1.3403,-1.3403,-1.3397,-1.3105,-1.2963,-1.2949,-1.2644,-1.2501,-1.2501,-1.2501,-1.2501,-1.2488,-1.2359,-1.2203,-1.2047,-1.1898,-1.1748,-1.1619,-1.1619,-1.1619,-1.1619,-1.1619,-1.1423,-1.1241,-1.1234,-1.0968,-1.0731,-1.0724,-1.0717,-1.0717,-1.0717,-1.0717,-1.0717,-1.0717,-1.0717,-1.0717,-1.0717,-1.0717,-1.0717,-1.0717,-1.0717,-1.0717,-1.0717,-1.0595,-1.0446,-1.0304,-1.0032,-0.9829,-0.9822,-0.9822,-0.9774,-0.9639,-0.949,-0.9334,-0.9234,-0.9035,-0.8892,-0.8885,-0.8885,-0.8885,-0.8885,-0.9287,-0.9355,-0.9133,-0.9791,-1.0012,-0.969,-1.0004,-1.016,-1.016,-1.016,-1.0004,-0.969,-1.0004,-1.0004,-0.183,-0.1984,-0.2067,-0.2082,-0.2098,-0.2101,-0.2071,-0.2012,-0.1952,-0.1907,-0.1819,-0.1748,0.0,0.0,0.0,-0.3815,-0.5593,0.0,-0.8611,-1.0384,0.0,-1.1348,0.0,-1.1545,-1.1647,-1.1694,0.0,0.0,-1.2128,-1.2189,-1.2488,-1.2793,-1.2963,-1.2963,-1.3247,-1.3403,-1.3403,-1.3403,-1.3403,-1.3397,-1.3105,-1.2963,-1.2949,-1.2644,-1.2501,-1.2501,-1.2501,-1.2501,-1.2501,-1.2461,-1.2298,-1.206,-1.202,-1.1843,-1.1619,-1.1619,-1.1619,-1.1619,-1.1619,-1.1491,-1.1314,-1.1199,-1.1043,-1.0799,-1.0758,-1.0717,-1.0717,-1.0717,-1.0717,-1.0717,-1.0717,-1.0717,-1.0717,-1.0717,-1.0717,-1.0717,-1.0717,-1.0717,-1.0717,-1.0717,-1.0595,-1.0446,-1.0304,-1.012,-0.9889,-0.9836,-0.9822,-0.9808,-0.9774,-0.9639,-0.949,-0.934,-0.9184,-0.9055,-0.8892,-0.8885,-0.8885,-0.8885,-0.923,-0.9316,-0.9086,-0.9472,-0.9602,-0.9384,-0.9489,-0.9541,-0.9541,-0.9541,-0.9489,-0.9377,-0.9489,-0.9586,-0.197,-0.2048,-0.2112,-0.2125,-0.2109,-0.2075,-0.2019,-0.1936,-0.1849,-0.1765,-0.1693,0.0,0.0,0.0,0.0,0.0,0.0,0.0,-0.783,-1.0046,-1.1538,0.0,-1.166,0.0,-1.1918,-1.1932,-1.2033,0.0,-1.221,-1.2264,-1.2488,-1.2793,-1.2963,-1.2963,-1.3247,-1.3403,-1.3403,-1.3403,-1.3403,-1.3397,-1.3105,-1.2963,-1.2949,-1.2644,-1.2501,-1.2501,0.0,-1.2501,-1.2501,-1.2501,-1.2366,-1.2155,-1.2088,-1.1918,-1.1701,-1.164,-1.1619,-1.1619,-1.1619,-1.1565,-1.1463,-1.1314,-1.1118,-1.0867,-1.0779,-1.0772,-1.0717,-1.0717,-1.0717,-1.0717,-1.0717,-1.0717,-1.0717,-1.0717,-1.0717,-1.0717,-1.0717,-1.0717,-1.0717,-1.0717,-1.0595,-1.0466,-1.0385,-1.0195,-0.9957,-0.9869,-0.9863,-0.9822,-0.9822,-0.97,-0.9551,-0.9395,-0.9303,-0.9096,-0.8898,-0.8885,-0.8885,-0.8885,-0.9217,-0.9285,-0.9029,-0.9403,-0.9522,-0.9333,-0.9433,-0.954,-0.954,-0.954,-0.9433,-0.9333,-0.9487,-0.9594,-0.2046,-0.2093,-0.2121,-0.2143,-0.2166,-0.2029,-0.194,-0.1842,-0.1733,-0.1594,0.0,-0.1524,-0.1404,0.0,-0.1651,-0.1775,0.0,-0.6231,-0.6566,-0.9052,-1.1025,-1.1457,-1.151,-1.1723,-1.2108,-1.2121,-1.2176,-1.2311,-1.2318,-1.2372,-1.2494,-1.2773,-1.2949,-1.307,-1.3254,-1.3403,-1.3403,-1.3403,-1.3403,-1.3397,-1.3105,-1.2963,-1.2949,-1.2644,-1.2501,-1.2501,0.0,0.0,-1.2501,-1.2501,-1.242,-1.2277,-1.2121,-1.1965,-1.1816,-1.1674,-1.1619,-1.1619,-1.1619,-1.1619,-1.1592,-1.1443,-1.1206,-1.0907,-1.0887,-1.0839,-1.0717,-1.0717,-1.0717,-1.0717,-1.0717,-1.0717,-1.0717,-1.0717,-1.0717,-1.0717,-1.0717,-1.0717,-1.0717,-1.0717,-1.0616,-1.0514,-1.0493,-1.0276,-1.0031,-0.999,-0.9876,-0.9842,-0.9822,-0.9713,-0.9578,-0.9429,-0.9293,-0.9144,-0.8981,-0.8967,-0.8905,-0.8885,-0.9161,-0.9217,-0.894,-0.9375,-0.9596,-0.932,-0.9541,-0.9706,-0.9706,-0.9706,-0.9541,-0.932,-0.9596,-0.9706,-0.2083,-0.2124,-0.2142,-0.2123,-0.2053,-0.1967,-0.1877,-0.1748,0.0,0.0,0.0,-0.1425,-0.1388,-0.1515,0.0,-0.1771,0.0,0.0,0.0,0.0,-0.8324,0.0,0.0,0.0,0.0,0.0,0.0,0.0,0.0,0.0,-1.2501,-1.2671,-1.2881,-1.3125,-1.3308,-1.3403,-1.3403,-1.3403,-1.3403,-1.3397,-1.3105,-1.2963,-1.2949,-1.2644,-1.2501,-1.2501,-1.2501,0.0,-1.2501,-1.2501,-1.242,-1.2277,-1.2121,-1.1965,-1.1816,-1.1674,-1.1619,-1.1619,-1.1619,-1.1619,-1.1592,-1.1443,-1.1274,-1.1104,-1.0914,-1.0839,-1.0717,-1.0717,-1.0717,-1.0717,-1.0717,-1.0717,-1.0717,-1.0717,-1.0717,-1.0717,-1.0717,-1.0717,-1.0717,-1.0717,-1.0697,-1.0643,-1.0514,-1.0446,-1.0331,-1.0024,-0.9963,-0.9903,-0.9836,-0.9802,-0.9727,-0.9585,-0.9544,-0.9415,-0.9193,-0.9173,-0.9062,-0.8892,-0.894,-0.894,-0.8885,-0.8995,-0.9051,-0.8995,-0.9051,-0.9051,-0.9051,-0.9051,-0.9051,-0.8995,-0.9051,-0.9217,-0.2116,-0.2143,-0.2214,-0.2117,-0.203,-0.1925,-0.1817,0.0,0.0,0.0,0.0,-0.1363,-0.1346,0.0,0.0,0.0,0.0,0.0,0.0,0.0,0.0,0.0,0.0,0.0,0.0,0.0,0.0,0.0,0.0,0.0,-1.2501,-1.2725,-1.2949,-1.3166,-1.3322,-1.3403,-1.3403,-1.3403,-1.3363,-1.3281,-1.3064,-1.2922,-1.2834,-1.2603,-1.2501,-1.2501,-1.2501,0.0,-1.2501,-1.2501,-1.2461,-1.2379,-1.2149,-1.2013,-1.1925,-1.1701,-1.1619,-1.1619,-1.1619,-1.1619,-1.1606,-1.1531,-1.1355,-1.1151,-1.1084,-1.09,-1.0717,-1.0717,-1.0717,-1.0717,-1.0717,-1.0717,-1.0717,-1.0717,-1.0717,-1.0717,-1.0717,-1.0717,-1.0717,-1.0717,-1.0717,-1.0697,-1.0622,-1.0548,-1.0419,-1.0202,-1.01,-0.993,-0.9842,-0.9822,-0.9768,-0.9625,-0.9612,-0.9517,-0.935,-0.9255,-0.918,-0.9055,-0.8981,-0.8885,-0.8885,-0.8885,-0.8885,-0.8885,-0.8885,-0.8885,-0.8885,-0.8885,-0.8885,-0.8885,-0.8885,-0.9106,-0.2128,-0.2217,-0.2213,-0.2109,-0.2009,-0.1888,-0.1815,-0.1614,0.0,0.0,-0.1292,-0.1316,-0.1314,0.0,0.0,0.0,0.0,0.0,0.0,0.0,0.0,0.0,0.0,0.0,0.0,0.0,0.0,0.0,0.0,0.0,-1.2501,-1.2766,-1.2976,-1.3125,-1.3275,-1.337,-1.3403,-1.337,-1.3295,-1.3173,-1.2996,-1.2847,-1.2725,-1.2569,-1.2501,-1.2501,-1.2501,0.0,0.0,-1.2501,-1.2501,-1.2474,-1.2176,-1.2135,-1.2026,-1.1728,-1.1619,-1.1619,-1.1619,-1.1619,-1.1619,-1.1619,-1.1409,-1.1234,-1.1234,-1.0955,-1.0717,-1.0717,-1.0717,-1.0717,-1.0717,-1.0717,-1.0717,-1.0717,-1.0717,-1.0717,-1.0717,-1.0717,-1.0717,-1.0717,-1.0717,-1.0717,-1.0717,-1.0622,-1.0493,-1.0344,-1.0195,-0.9984,-0.989,-0.9842,-0.9781,-0.9666,-0.9652,-0.9591,-0.9442,-0.932,-0.9282,-0.9214,-0.9049,-0.8974,-0.8885,-0.8885,-0.8885,-0.8885,-0.8885,-0.8885,-0.8885,-0.8885,-0.8885,-0.8885,-0.8885,-0.9051,-0.2097,-0.2133,-0.2207,-0.2147,-0.1978,-0.1851,-0.1757,0.0,0.0,-0.1325,-0.1284,-0.1312,-0.1294,-0.129,0.0,0.0,0.0,-0.2015,0.0,0.0,0.0,0.0,0.0,0.0,0.0,0.0,0.0,0.0,0.0,0.0,0.0,-1.2657,-1.282,-1.2976,-1.3119,-1.3261,-1.3397,-1.3261,-1.3186,-1.3166,-1.2888,-1.2745,-1.2725,-1.2569,-1.2501,-1.2501,-1.2501,0.0,0.0,-1.2501,-1.2501,-1.2474,-1.2176,-1.2135,-1.2026,-1.1728,-1.1619,-1.1619,-1.1619,-1.1619,-1.1619,-1.1619,-1.1409,-1.1234,-1.1234,-1.0955,-1.0717,-1.0717,-1.0717,-1.0717,-1.0717,-1.0717,-1.0717,-1.0717,-1.0717,-1.0717,-1.0717,-1.0717,-1.0717,-1.0717,-1.0717,-1.0717,-1.0717,-1.0711,-1.0649,-1.0493,-1.0351,-1.0202,-0.9984,-0.9849,-0.9815,-0.9802,-0.9802,-0.9741,-0.9598,-0.9578,-0.9449,-0.9228,-0.92,-0.9076,-0.8892,-0.8885,-0.8885,-0.8885,-0.8885,-0.8885,-0.8885,-0.8885,-0.8885,-0.8885,-0.8885,-0.894,-0.2065,-0.2117,-0.2207,-0.2144,-0.1974,-0.1851,-0.1718,0.0,-0.1371,-0.1302,-0.1291,-0.13,-0.1313,-0.1301,-0.1319,-0.1441,-0.1542,-0.1641,0.0,0.0,0.0,0.0,0.0,0.0,0.0,0.0,0.0,0.0,0.0,0.0,0.0,-1.2651,-1.2759,-1.282,-1.2969,-1.3071,-1.3132,-1.3078,-1.2996,-1.2908,-1.2786,-1.2684,-1.2589,-1.2528,-1.2501,-1.2501,-1.2501,0.0,0.0,-1.2501,-1.2447,-1.2352,-1.2142,-1.2006,-1.1898,-1.1694,-1.1619,-1.1619,-1.1619,-1.1619,-1.1619,-1.1619,-1.1409,-1.1234,-1.1234,-1.0955,-1.0717,-1.0717,-1.0717,-1.0717,-1.0717,-1.0717,-1.0717,-1.0717,-1.0717,-1.0717,-1.0717,-1.0717,-1.0717,-1.0717,-1.0717,-1.0717,-1.0717,-1.0717,-1.067,-1.0514,-1.0371,-1.0222,-1.0004,-0.9856,-0.9822,-0.9822,-0.9822,-0.9795,-0.9741,-0.9659,-0.9557,-0.9435,-0.934,-0.9225,-0.9076,-0.9069,-0.9028,-0.8885,-0.8885,-0.8885,-0.8885,-0.8885,-0.8885,-0.8885,-0.8885,-0.8885,-0.2007,-0.2068,-0.2102,-0.205,-0.1955,-0.1838,0.0,0.0,-0.1372,-0.1306,-0.1294,-0.1296,-0.1296,-0.1281,-0.1329,-0.1408,-0.1463,-0.1557,-0.1792,0.0,0.0,0.0,0.0,0.0,0.0,0.0,0.0,0.0,0.0,0.0,0.0,-1.2603,-1.2684,-1.2725,-1.2834,-1.2915,-1.2963,-1.2915,-1.284,-1.2732,-1.2684,-1.2603,-1.2501,-1.2501,-1.2501,-1.2501,0.0,0.0,0.0,-1.2501,-1.242,-1.2277,-1.2121,-1.1965,-1.1816,-1.1674,-1.1619,-1.1619,-1.1619,-1.1619,-1.1619,-1.1619,-1.1409,-1.1234,-1.1234,-1.0955,-1.0717,-1.0717,-1.0717,-1.0717,-1.0717,-1.0717,-1.0717,-1.0717,-1.0717,-1.0717,-1.0717,-1.0717,-1.0717,-1.0717,-1.0717,-1.0717,-1.0717,-1.0717,-1.0683,-1.0575,-1.0432,-1.029,-1.0134,-0.9985,-0.9869,-0.9829,-0.9822,-0.9822,-0.9822,-0.9727,-0.9652,-0.9612,-0.951,-0.9381,-0.9282,-0.9275,-0.915,-0.9008,-0.9001,-0.8981,-0.8885,-0.8885,-0.8885,-0.8885,-0.8885,-0.8885,-0.1788,-0.1975,-0.2014,-0.1985,-0.1909,-0.1745,0.0,-0.1475,-0.1366,-0.1321,-0.1319,-0.1296,-0.1296,-0.1281,-0.1322,-0.1381,-0.1467,-0.1588,-0.177,0.0,0.0,0.0,0.0,0.0,0.0,0.0,0.0,0.0,0.0,0.0,0.0,-1.2501,-1.2576,-1.2725,-1.2732,-1.2807,-1.3043,-1.2807,-1.2732,-1.2725,-1.2576,-1.2501,-1.2501,-1.2501,-1.2501,0.0,0.0,0.0,0.0,-1.2501,-1.242,-1.2277,-1.2121,-1.1965,-1.1816,-1.1674,-1.1619,-1.1619,-1.1619,-1.1619,-1.1619,-1.1619,-1.1409,-1.1234,-1.1234,-1.0955,-1.0717,-1.0717,-1.0717,-1.0717,-1.0717,-1.0717,-1.0717,-1.0717,-1.0717,-1.0717,-1.0717,-1.0717,-1.0717,-1.0717,-1.0717,-1.0717,-1.0717,-1.0717,-1.0717,-1.0717,-1.0588,-1.0439,-1.0297,-1.0141,-0.993,-0.9836,-0.9822,-0.9822,-0.9822,-0.9822,-0.9761,-0.9618,-0.9605,-0.9537,-0.9388,-0.9381,-0.9306,-0.9207,-0.9207,-0.9083,-0.8885,-0.8885,-0.8885,-0.8885,-0.8885,-0.8885,-0.1268,-0.1319,-0.1354,-0.1318,-0.1272,-0.1161,-0.1136,-0.1108,-0.1127,-0.1111,-0.1199,-0.1296,-0.1296,-0.1305,-0.1318,-0.146,-0.1508,0.0,0.0,0.0,0.0,0.0,0.0,0.0,0.0,0.0,0.0,0.0,0.0,0.0,0.0,-1.2501,-1.2522,-1.2569,-1.2576,-1.2596,-1.2644,-1.2596,-1.2576,-1.2576,-1.2522,-1.2501,-1.2501,-1.2501,0.0,0.0,0.0,0.0,0.0,-1.24,-1.2271,-1.2121,-1.1965,-1.1816,-1.1681,-1.1633,-1.1619,-1.1619,-1.1619,-1.1619,-1.1619,-1.1619,-1.1409,-1.1234,-1.1234,-1.0955,-1.0717,-1.0717,-1.0717,-1.0717,-1.0717,-1.0717,-1.0717,-1.0717,-1.0717,-1.0717,-1.0717,-1.0717,-1.0717,-1.0717,-1.0717,-1.0717,-1.0717,-1.0717,-1.0717,-1.0717,-1.0588,-1.0473,-1.0432,-1.0202,-0.997,-0.9923,-0.9883,-0.9822,-0.9822,-0.9822,-0.9802,-0.9754,-0.9754,-0.9686,-0.9544,-0.9537,-0.9462,-0.9313,-0.9306,-0.9286,-0.9239,-0.9137,-0.9035,-0.8892,-0.9144,-0.9184,0.0,-0.1017,-0.0992,-0.0971,-0.094,-0.0903,-0.0859,-0.0945,-0.0979,-0.0985,-0.1159,-0.1296,-0.1296,-0.1306,-0.1314,-0.1393,-0.1487,0.0,0.0,0.0,0.0,0.0,0.0,0.0,0.0,0.0,0.0,0.0,0.0,0.0,0.0,0.0,-1.2501,-1.2501,-1.2501,-1.2501,-1.2501,-1.2501,-1.2501,-1.2501,-1.2501,-1.2501,-1.2501,-1.2501,0.0,0.0,0.0,0.0,0.0,-1.2325,-1.2162,-1.1965,-1.187,-1.1742,-1.1619,-1.1619,-1.1619,-1.1619,-1.1619,-1.1619,-1.1613,-1.1552,-1.1328,-1.107,-1.1016,-1.0867,-1.0717,-1.0717,-1.0717,-1.0717,-1.0717,-1.0717,-1.0717,-1.0717,-1.0717,-1.0717,-1.0717,-1.0717,-1.0717,-1.0717,-1.0717,-1.0717,-1.0717,-1.0717,-1.0717,-1.0717,-1.0636,-1.0555,-1.05,-1.0283,-1.0051,-0.9997,-0.9849,-0.9822,-0.9822,-0.9822,-0.9822,-0.9822,-0.9822,-0.9781,-0.9693,-0.9686,-0.9618,-0.9469,-0.9469,-0.9442,-0.9381,-0.9344,-0.9191,-0.911,-0.9293,-0.9334,0.0,-0.0848,0.0,0.0,-0.0848,-0.0818,-0.074,-0.0834,0.0,-0.098,-0.1117,-0.1258,-0.1302,-0.1286,-0.1317,-0.1318,-0.1438,0.0,0.0,0.0,0.0,0.0,0.0,0.0,0.0,0.0,0.0,0.0,0.0,0.0,0.0,0.0,-1.2347,-1.2501,-1.2501,-1.2501,-1.2501,-1.2501,-1.2501,-1.2501,-1.2501,-1.2501,-1.2501,-1.2501,0.0,0.0,0.0,0.0,0.0,-1.2264,-1.2088,-1.183,-1.1823,-1.1735,-1.1619,-1.1619,-1.1619,-1.1619,-1.1619,-1.1619,-1.1592,-1.143,-1.1185,-1.0853,-1.0765,-1.0717,-1.0717,-1.0717,-1.0717,-1.0717,-1.0717,-1.0717,-1.0717,-1.0717,-1.0717,-1.0717,-1.0717,-1.0717,-1.0717,-1.0717,-1.0717,-1.0717,-1.0717,-1.0717,-1.0717,-1.0717,-1.0717,-1.067,-1.0527,-1.0385,-1.0236,-1.0017,-0.9869,-0.9836,-0.9822,-0.9822,-0.9822,-0.9822,-0.9822,-0.9822,-0.9822,-0.9822,-0.9761,-0.9625,-0.9625,-0.9551,-0.9395,-0.9408,-0.9401,-0.9381,-0.9401,-0.9408,-0.0169,0.0,-0.0227,-0.0223,-0.0221,-0.0217,0.0,-0.0332,-0.0489,-0.0677,-0.0867,-0.1072,-0.1277,-0.1313,-0.1358,-0.1527,0.0,0.0,0.0,0.0,0.0,0.0,0.0,0.0,0.0,0.0,0.0,0.0,0.0,0.0,0.0,0.0,-1.1178,-1.2424,-1.2501,-1.2501,-1.2501,-1.2501,-1.2501,-1.2501,-1.2501,-1.2501,-1.2501,-1.2501,0.0,0.0,0.0,0.0,-1.2271,-1.2033,-1.1898,-1.1823,-1.1708,-1.1647,-1.1619,-1.1619,-1.1619,-1.1619,-1.1619,-1.1619,-1.1572,-1.1307,-1.1097,-1.0853,-1.0765,-1.0717,-1.0717,-1.0717,-1.0717,-1.0717,-1.0717,-1.0717,-1.0717,-1.0717,-1.0717,-1.0717,-1.0717,-1.0717,-1.0717,-1.0717,-1.0717,-1.0717,-1.0717,-1.0717,-1.0717,-1.0717,-1.0717,-1.0711,-1.067,-1.0534,-1.0385,-1.0243,-1.0086,-0.9883,-0.9829,-0.9822,-0.9822,-0.9822,-0.9822,-0.9822,-0.9822,-0.9822,-0.9802,-0.9774,-0.9774,-0.97,-0.9557,-0.9666,-0.9598,-0.9388,-0.9612,-0.9659,0.0,0.0,0.0,0.0,0.0,0.0,0.0,-0.0164,-0.0359,-0.0551,0.0,0.0,0.0,0.0,0.0,0.0,0.0,0.0,0.0,0.0,0.0,0.0,0.0,0.0,0.0,0.0,0.0,0.0,0.0,0.0,0.0,0.0,-1.0785,-1.2424,-1.2501,-1.2501,-1.2501,-1.2501,-1.2501,-1.2501,-1.2501,-1.2501,-1.2501,-1.2501,-1.2467,0.0,0.0,0.0,-1.2067,-1.1898,-1.1789,-1.1728,-1.1647,-1.1619,-1.1619,-1.1619,-1.1619,-1.1619,-1.1619,-1.1531,-1.1369,-1.1138,-1.0962,-1.0759,-1.0744,-1.0717,-1.0717,-1.0717,-1.0717,-1.0717,-1.0717,-1.0717,-1.0717,-1.0717,-1.0717,-1.0717,-1.0717,-1.0717,-1.0717,-1.0717,-1.0717,-1.0717,-1.0717,-1.0717,-1.0717,-1.0717,-1.0717,-1.0717,-1.0717,-1.0588,-1.046,-1.0385,-1.0181,-1.0019,-0.9869,-0.9863,-0.9822,-0.9822,-0.9822,-0.9822,-0.9822,-0.9822,-0.9822,-0.9822,-0.9822,-0.9781,-0.9707,-0.9781,-0.9741,-0.9585,-0.9747,-0.9781,0.0,0.0,0.0,0.0,0.0,0.0,0.0,0.0,0.0,0.0,0.0,0.0,0.0,0.0,0.0,0.0,0.0,0.0,0.0,0.0,0.0,0.0,0.0,0.0,0.0,0.0,0.0,0.0,0.0,0.0,0.0,0.0,0.0,-1.203,-1.2114,-1.2269,-1.2501,-1.2501,-1.2501,-1.2501,-1.2501,-1.2488,-1.2467,-1.2467,-1.2393,0.0,0.0,0.0,-1.183,-1.1809,-1.1728,-1.1619,-1.1619,-1.1619,-1.1619,-1.1619,-1.1619,-1.1613,-1.1592,-1.1389,-1.1111,-1.0989,-1.0779,-1.0717,-1.0717,-1.0717,-1.0717,-1.0717,-1.0717,-1.0717,-1.0717,-1.0717,-1.0717,-1.0717,-1.0717,-1.0717,-1.0717,-1.0717,-1.0717,-1.0717,-1.0717,-1.0717,-1.0717,-1.0717,-1.0717,-1.0717,-1.0717,-1.0717,-1.0717,-1.0609,-1.0521,-1.0493,-1.027,-1.01,-0.999,-0.9869,-0.9842,-0.9822,-0.9822,-0.9822,-0.9822,-0.9822,-0.9822,-0.9822,-0.9822,-0.9822,-0.9822,-0.9822,-0.9822,-0.9822,-0.9822,-0.9822,0.0,0.0,0.0,0.0,0.0,0.0,0.0,-0.0042,0.0,0.0,0.0,0.0,0.0,0.0,0.0,0.0,0.0,0.0,0.0,0.0,0.0,0.0,0.0,0.0,0.0,0.0,0.0,0.0,0.0,0.0,0.0,0.0,0.0,-1.0319,-1.0397,-1.1095,-1.2501,-1.2501,-1.2501,-1.2501,-1.2501,-1.244,-1.2325,-1.2325,-1.2237,0.0,0.0,-1.1877,-1.1823,-1.1701,-1.164,-1.1619,-1.1619,-1.1619,-1.1619,-1.1619,-1.1619,-1.1599,-1.147,-1.1233,-1.0907,-1.0887,-1.0779,-1.0717,-1.0717,-1.0717,-1.0717,-1.0717,-1.0717,-1.0717,-1.0717,-1.0717,-1.0717,-1.0717,-1.0717,-1.0717,-1.0717,-1.0717,-1.0717,-1.0717,-1.0717,-1.0717,-1.0717,-1.0717,-1.0717,-1.0717,-1.0717,-1.0717,-1.0717,-1.0697,-1.0636,-1.0507,-1.0453,-1.0324,-1.0011,-0.9963,-0.9896,-0.9829,-0.9822,-0.9822,-0.9822,-0.9822,-0.9822,-0.9822,-0.9822,-0.9822,-0.9822,-0.9822,-0.9822,-0.9822,-0.9822,-0.9822,0.0,0.0,0.0,0.0,-0.009,-0.0232,-0.023,-0.0313,-0.0481,0.0,0.0,0.0,0.0,0.0,0.0,0.0,0.0,0.0,0.0,0.0,0.0,0.0,0.0,0.0,0.0,0.0,0.0,0.0,0.0,0.0,0.0,0.0,0.0,0.0,-0.9427,-1.0193,-1.0954,-1.1878,-1.2305,-1.2386,-1.2386,-1.2311,-1.2169,-1.2169,-1.2081,-1.1932,0.0,-1.1789,-1.1708,-1.1647,-1.1619,-1.1619,-1.1619,-1.1619,-1.1619,-1.1619,-1.1565,-1.147,-1.1321,-1.1131,-1.0867,-1.0853,-1.0778,-1.0717,-1.0717,-1.0717,-1.0717,-1.0717,-1.0717,-1.0717,-1.0717,-1.0717,-1.0717,-1.0717,-1.0717,-1.0717,-1.0717,-1.0717,-1.0717,-1.0717,-1.0717,-1.0717,-1.0717,-1.0717,-1.0717,-1.0717,-1.0717,-1.0717,-1.0717,-1.0717,-1.0697,-1.0622,-1.0541,-1.0439,-1.0304,-1.0215,-1.0073,-0.9836,-0.9822,-0.9822,-0.9822,-0.9822,-0.9822,-0.9822,-0.9822,-0.9822,-0.9822,-0.9822,-0.9822,-0.9822,-0.9822,-0.9822,0.0,0.0,0.0,0.0,-0.0141,-0.0341,-0.0396,-0.0575,-0.079,0.0,0.0,0.0,0.0,0.0,0.0,0.0,0.0,0.0,0.0,0.0,0.0,0.0,0.0,0.0,0.0,0.0,0.0,0.0,0.0,0.0,0.0,0.0,0.0,0.0,-0.799,-0.8965,-0.9719,-1.0927,-1.1815,-1.2237,-1.2237,-1.2155,-1.2006,-1.2006,-1.1925,-1.1782,-1.1782,-1.1721,-1.1619,-1.1619,-1.1619,-1.1619,-1.1619,-1.1619,-1.1613,-1.1579,-1.147,-1.1314,-1.1165,-1.1016,-1.0806,-1.0758,-1.0717,-1.0717,-1.0717,-1.0717,-1.0717,-1.0717,-1.0717,-1.0717,-1.0717,-1.0717,-1.0717,-1.0717,-1.0717,-1.0717,-1.0717,-1.0717,-1.0717,-1.0717,-1.0717,-1.0717,-1.0717,-1.0717,-1.0717,-1.0717,-1.0717,-1.0717,-1.0717,-1.0717,-1.0717,-1.0717,-1.0616,-1.0527,-1.0493,-1.0365,-1.0161,-0.989,-0.9842,-0.9822,-0.9822,-0.9822,-0.9822,-0.9822,-0.9822,-0.9822,-0.9822,-0.9822,-0.9822,-0.9822,-0.9822,-0.9822,0.0,0.0,0.0,0.0,0.0,-0.0095,-0.0407,-0.0509,-0.0607,-0.0944,0.0,0.0,0.0,0.0,0.0,0.0,0.0,0.0,0.0,0.0,0.0,0.0,0.0,0.0,0.0,0.0,0.0,0.0,0.0,0.0,0.0,0.0,0.0,0.0,0.0,-0.6709,-0.9644,-0.9794,-1.0628,-1.2081,-1.2081,-1.1999,-1.1843,-1.1843,-1.1769,-1.1633,-1.1633,-1.1626,-1.1619,-1.1619,-1.1619,-1.1619,-1.1619,-1.1619,-1.1599,-1.1457,-1.1307,-1.1158,-1.1016,-1.0799,-1.0731,-1.0724,-1.0717,-1.0717,-1.0717,-1.0717,-1.0717,-1.0717,-1.0717,-1.0717,-1.0717,-1.0717,-1.0717,-1.0717,-1.0717,-1.0717,-1.0717,-1.0717,-1.0717,-1.0717,-1.0717,-1.0717,-1.0717,-1.0717,-1.0717,-1.0717,-1.0717,-1.0717,-1.0717,-1.0717,-1.0717,-1.0717,-1.0711,-1.0649,-1.0507,-1.0365,-1.0209,-0.9984,-0.9835,-0.9822,-0.9822,-0.9822,-0.9822,-0.9822,-0.9822,-0.9822,-0.9822,-0.9822,-0.9822,-0.9822,-0.9822,-0.9822,0.0,0.0,0.0,0.0,0.0,-0.0149,-0.0687,-0.0907,-0.108,-0.1483,-0.1618,0.0,0.0,0.0,0.0,0.0,0.0,0.0,0.0,0.0,0.0,0.0,0.0,0.0,0.0,0.0,0.0,0.0,0.0,0.0,0.0,0.0,0.0,0.0,0.0,-0.5385,-0.6562,-0.7512,-0.8831,-1.0383,-1.143,-1.1843,-1.1701,-1.1701,-1.1674,-1.1619,-1.1619,-1.1619,-1.1619,-1.1619,-1.1619,-1.1613,-1.1511,-1.1477,-1.1457,-1.1307,-1.1158,-1.1023,-1.09,-1.0779,-1.0717,-1.0717,-1.0717,-1.0717,-1.0717,-1.0717,-1.0717,-1.0717,-1.0717,-1.0717,-1.0717,-1.0717,-1.0717,-1.0717,-1.0717,-1.0717,-1.0717,-1.0717,-1.0717,-1.0717,-1.0717,-1.0717,-1.0717,-1.0717,-1.0717,-1.0717,-1.0717,-1.0717,-1.0717,-1.0717,-1.0717,-1.0717,-1.0717,-1.0697,-1.0636,-1.0493,-1.0385,-1.0331,-1.01,-0.9862,-0.9822,-0.9822,-0.9822,-0.9822,-0.9822,-0.9822,-0.9822,-0.9822,-0.9822,-0.9822,-0.9822,-0.9822,0.0,0.0,0.0,0.0,0.0,0.0,-0.0718,-0.1064,-0.1311,-0.1694,-0.1874,0.0,0.0,0.0,0.0,0.0,0.0,0.0,0.0,0.0,0.0,0.0,0.0,0.0,0.0,0.0,0.0,0.0,0.0,0.0,0.0,0.0,0.0,0.0,0.0,-0.4221,-0.4729,-0.5742,-0.7042,-0.8564,-0.9736,-1.0759,-1.1619,-1.1619,-1.1619,-1.1619,-1.1619,-1.1619,-1.1613,-1.1565,-1.1518,-1.1463,-1.1362,-1.1321,-1.1301,-1.1151,-1.1029,-1.0806,-1.0348,-1.013,-1.0047,-1.0047,-1.0047,-1.0114,-1.0585,-1.0717,-1.0717,-1.0717,-1.0717,-1.0717,-1.0717,-1.0717,-1.0717,-1.0717,-1.0717,-1.0717,-1.0717,-1.0717,-1.0717,-1.0717,-1.0717,-1.0717,-1.0717,-1.0717,-1.0717,-1.0717,-1.0717,-1.0717,-1.0717,-1.0717,-1.0717,-1.0717,-1.0717,-1.0717,-1.0717,-1.0622,-1.0541,-1.0493,-1.0304,-1.01,-0.9903,-0.9849,-0.9822,-0.9822,-0.9822,-0.9822,-0.9822,-0.9822,-0.9822,-0.9822,-0.9822,-0.9822,0.0,0.0,0.0,0.0,0.0,0.0,-0.0405,-0.0825,-0.1195,-0.1439,0.0,-0.1996,-0.2117,0.0,0.0,0.0,0.0,0.0,0.0,0.0,0.0,0.0,0.0,0.0,0.0,0.0,0.0,0.0,0.0,0.0,0.0,0.0,0.0,0.0,0.0,0.0,-0.4657,-0.4657,-0.5452,-0.697,-0.697,-0.8564,-1.1548,-1.1548,-1.1548,-1.1548,-1.1548,-1.1548,-1.1606,-1.145,-1.1301,-1.1234,-1.1158,-1.1158,-1.1145,-1.0934,-1.088,-1.065,-0.9085,-0.8573,-0.8573,-0.8573,-0.864,-0.8906,-1.0253,-1.0717,-1.0717,-1.0717,-1.0717,-1.0717,-1.0717,-1.0717,-1.0717,-1.0717,-1.0717,-1.0717,-1.0717,-1.0717,-1.0717,-1.0717,-1.0717,-1.0717,-1.0717,-1.0717,-1.0717,-1.0717,-1.0717,-1.0717,-1.0717,-1.0717,-1.0717,-1.0717,-1.0717,-1.0717,-1.0717,-1.0717,-1.0656,-1.0507,-1.0493,-1.0358,-0.9997,-0.9842,-0.9822,-0.9822,-0.9822,-0.9822,-0.9822,-0.9822,-0.9822,-0.9822,-0.9822,-0.9822,0.0,0.0,0.0,0.0,0.0,0.0,0.0,-0.0423,0.0,0.0,0.0,0.0,0.0,0.0,0.0,0.0,0.0,0.0,0.0,0.0,0.0,0.0,0.0,0.0,0.0,0.0,0.0,0.0,0.0,0.0,0.0,0.0,0.0,0.0,0.0,0.0,-0.3022,-0.3022,-0.3826,-0.538,-0.538,-0.6395,-0.8348,-0.8348,-0.8348,-0.8343,-0.8341,-0.8881,-0.9942,-1.0868,-1.1275,-1.1082,-0.9942,-0.9496,-0.9342,-0.82,-0.7751,-0.7679,-0.7178,-0.7702,-0.8573,-0.8573,-0.9244,-1.018,-1.0585,-1.0717,-1.0717,-1.0717,-1.0717,-1.0717,-1.0717,-1.0717,-1.0717,-1.0717,-1.0717,-1.0717,-1.0717,-1.0717,-1.0717,-1.0717,-1.0717,-1.0717,-1.0717,-1.0717,-1.0717,-1.0717,-1.0717,-1.0717,-1.0717,-1.0717,-1.0717,-1.0717,-1.0717,-1.0717,-1.0717,-1.0717,-1.0704,-1.0656,-1.0555,-1.0358,-0.9997,-0.9943,-0.9869,-0.9822,-0.9822,-0.9822,-0.9822,-0.9822,-0.9822,-0.9822,-0.9822,-0.9822,0.0,0.0,0.0,0.0,0.0,0.0,0.0,0.0,0.0,0.0,0.0,0.0,0.0,0.0,0.0,0.0,0.0,0.0,0.0,0.0,0.0,0.0,0.0,0.0,0.0,0.0,0.0,0.0,0.0,0.0,0.0,0.0,0.0,0.0,0.0,0.0,-0.2273,-0.2273,-0.2779,-0.3729,-0.3729,-0.4228,-0.5155,-0.6403,-0.6972,-0.6935,-0.6952,-0.7397,-0.8194,-0.9027,-0.9382,-0.9189,-0.8236,-0.7868,-0.7728,-0.6786,-0.6431,-0.6297,-0.5767,-0.6502,-0.7636,-0.7102,-0.824,-0.9782,-0.9178,-0.9377,-0.9715,-0.9178,-0.8972,-0.9111,-0.9709,-0.9848,-0.9981,-1.0585,-1.0717,-1.0717,-1.0717,-1.0717,-1.0717,-1.0717,-1.0717,-1.0717,-1.0717,-1.0717,-1.0717,-1.0717,-1.0717,-1.0717,-1.0717,-1.0717,-1.0717,-1.0717,-1.0717,-1.0717,-1.0717,-1.0717,-1.0717,-1.0717,-1.0636,-1.0473,-1.0236,-1.0051,-0.9943,-0.9856,-0.9849,-0.9822,-0.9822,-0.9822,-0.9822,-0.9822,-0.9822,-0.9822,0.0,0.0,0.0,0.0,0.0,0.0,0.0,0.0,0.0,0.0,0.0,0.0,0.0,0.0,0.0,0.0,0.0,0.0,0.0,0.0,0.0,0.0,0.0,0.0,0.0,0.0,0.0,0.0,0.0,0.0,0.0,0.0,0.0,0.0,0.0,-0.2169,-0.2171,-0.2171,-0.2173,0.0,-0.2175,-0.2174,-0.2313,-0.5167,-0.65,-0.6488,-0.6627,-0.6574,-0.6489,-0.6626,-0.6576,-0.6364,-0.6231,-0.6235,-0.6164,-0.603,-0.6034,-0.5834,-0.4565,-0.5034,-0.5967,-0.4699,-0.6172,-0.8169,-0.6831,-0.7369,-0.8102,-0.6769,-0.6431,-0.6698,-0.8035,-0.8374,-0.8706,-0.9981,-1.0518,-1.0717,-1.0717,-1.0717,-1.0717,-1.0717,-1.0717,-1.0717,-1.0717,-1.0717,-1.0717,-1.0717,-1.0717,-1.0717,-1.0717,-1.0717,-1.0717,-1.0717,-1.0717,-1.0717,-1.0717,-1.0717,-1.0717,-1.0717,-1.0717,-1.0656,-1.0521,-1.0229,-1.0004,-0.9984,-0.9897,-0.9822,-0.9822,-0.9822,-0.9822,-0.9822,-0.9822,-0.9822,0.0,0.0,0.0,0.0,0.0,0.0,0.0,0.0,0.0,0.0,0.0,0.0,0.0,0.0,0.0,0.0,0.0,0.0,0.0,0.0,0.0,0.0,0.0,0.0,0.0,0.0,0.0,0.0,0.0,0.0,0.0,0.0,0.0,0.0,0.0,-0.2185,-0.221,-0.221,-0.2222,0.0,-0.2175,-0.2233,-0.2211,-0.2869,-0.3213,-0.3241,-0.4409,-0.4851,-0.4922,-0.5994,-0.6451,-0.6297,-0.5168,-0.4769,-0.4635,-0.3495,-0.3094,-0.3094,-0.2759,-0.3564,-0.4699,-0.4367,-0.5436,-0.6831,-0.6498,-0.6631,-0.6831,-0.6498,-0.6431,-0.6498,-0.6765,-0.6902,-0.6969,-0.7236,-0.9039,-1.0717,-1.0717,-1.0717,-1.0717,-1.0717,-1.0717,-1.0717,-1.0717,-1.0717,-1.0717,-1.0717,-1.0717,-1.0717,-1.0717,-1.0717,-1.0717,-1.0717,-1.0717,-1.0717,-1.0717,-1.0717,-1.0717,-1.0717,-1.0717,-1.0704,-1.067,-1.0385,-1.0175,-0.999,-0.9897,-0.9822,-0.9822,-0.9822,-0.9822,-0.9822,-0.9822,-0.9822,0.0,0.0,0.0,0.0,0.0,0.0,0.0,0.0,0.0,0.0,0.0,0.0,0.0,0.0,0.0,0.0,0.0,0.0,0.0,0.0,0.0,0.0,0.0,0.0,0.0,0.0,0.0,0.0,0.0,0.0,0.0,0.0,0.0,0.0,-0.1885,-0.2027,-0.2178,-0.2178,-0.2187,-0.2202,-0.2202,-0.2193,-0.2178,-0.2195,-0.2193,-0.2247,-0.2993,-0.3318,-0.3362,-0.4096,-0.4364,-0.4297,-0.3562,-0.3295,-0.3228,-0.249,-0.2223,-0.2223,-0.2223,-0.3094,-0.4166,-0.3497,-0.4699,-0.6164,-0.483,-0.4833,-0.5235,-0.4565,-0.4364,-0.4565,-0.5232,-0.5366,-0.5566,-0.6231,-0.7569,-0.864,-0.864,-0.9178,-0.9715,-0.9715,-1.0246,-1.0717,-1.0717,-1.0717,-1.0717,-1.0717,-1.0717,-1.0717,-1.0717,-1.0717,-1.0717,-1.0717,-1.0717,-1.0717,-1.0717,-1.0717,-1.0717,-1.0717,-1.0717,-1.0717,-1.0717,-1.05,-1.031,-1.0161,-1.0012,-0.9897,-0.9822,-0.9822,-0.9822,-0.9822,-0.9822,-0.9822,0.0,0.0,0.0,0.0,0.0,0.0,0.0,0.0,0.0,0.0,0.0,0.0,0.0,0.0,0.0,0.0,0.0,0.0,0.0,0.0,0.0,0.0,0.0,0.0,0.0,0.0,0.0,0.0,0.0,0.0,0.0,0.0,-0.1212,-0.1481,-0.1481,-0.1683,-0.2087,-0.2087,-0.2154,-0.2223,-0.2223,-0.2223,-0.2223,-0.2223,-0.2223,-0.2223,-0.2223,-0.2223,-0.2223,-0.2223,-0.2223,-0.2223,-0.2223,-0.2223,-0.2223,-0.2223,-0.2223,-0.2223,-0.2223,-0.2961,-0.3765,-0.2558,-0.3763,-0.5232,-0.2892,-0.3026,-0.3698,-0.2558,-0.2223,-0.249,-0.3631,-0.3964,-0.4233,-0.5366,-0.57,-0.5834,-0.6297,-0.7369,-0.8235,-0.8235,-0.9178,-1.0047,-1.0319,-1.0319,-1.0452,-1.0651,-1.0717,-1.0717,-1.0717,-1.0717,-1.0717,-1.0717,-1.0717,-1.0717,-1.0717,-1.0717,-1.0717,-1.0717,-1.0717,-1.0717,-1.0717,-1.0602,-1.0453,-1.0283,-1.0127,-0.9909,-0.9822,-0.9822,-0.9822,-0.9822,-0.9822,-0.9822,0.0,0.0,0.0,0.0,0.0,0.0,0.0,0.0,0.0,0.0,0.0,0.0,0.0,0.0,0.0,0.0,0.0,0.0,0.0,0.0,0.0,0.0,0.0,0.0,0.0,0.0,0.0,0.0,0.0,0.0,0.0,-0.0943,-0.1144,-0.1144,-0.1144,-0.1346,-0.1683,-0.1683,-0.1885,-0.2223,-0.2223,-0.2223,-0.2223,-0.2223,-0.2223,-0.2223,-0.2223,-0.2223,-0.2223,-0.2223,-0.2223,-0.2223,-0.2223,-0.2223,-0.2223,-0.2223,-0.2223,-0.2223,-0.2223,-0.2356,-0.2423,-0.2289,-0.2423,-0.269,-0.2289,-0.2356,-0.2423,-0.2221,-0.2223,-0.2223,-0.2423,-0.249,-0.2558,-0.2692,-0.2758,-0.3427,-0.5897,-0.6564,-0.6698,-0.6698,-0.6831,-0.7369,-0.864,-0.8906,-0.931,-1.0518,-1.0717,-1.0717,-1.0717,-1.0717,-1.0717,-1.0717,-1.0717,-1.0717,-1.0717,-1.0717,-1.0717,-1.0717,-1.0717,-1.0717,-1.0717,-1.0704,-1.0561,-1.0283,-1.0127,-0.9909,-0.9822,-0.9822,-0.9822,-0.9822,-0.9822,-0.9822,0.0,0.0,0.0,0.0,0.0,0.0,0.0,0.0,0.0,0.0,0.0,0.0,0.0,0.0,0.0,0.0,0.0,0.0,0.0,0.0,0.0,0.0,0.0,0.0,0.0,0.0,0.0,0.0,0.0,0.0,-0.0202,-0.0404,-0.0539,-0.0741,-0.0741,-0.0943,-0.1346,-0.1346,-0.1414,-0.1616,-0.1616,-0.1616,-0.1616,-0.1616,-0.1818,-0.2223,-0.2223,-0.2223,-0.2223,-0.2223,-0.2223,-0.2155,-0.1952,-0.1885,-0.1885,-0.1885,-0.1885,-0.1885,-0.1885,-0.1885,-0.1818,-0.1616,-0.1616,-0.1616,-0.1616,-0.1616,-0.1616,-0.1616,-0.1616,-0.1616,-0.1616,-0.1616,-0.1616,-0.1818,-0.1885,-0.2289,-0.3763,-0.4699,-0.5432,-0.6231,-0.6431,-0.6631,-0.7236,-0.7369,-0.7569,-0.8169,-0.8972,-0.951,-0.951,-1.0187,-1.0717,-1.0717,-1.0717,-1.0717,-1.0717,-1.0717,-1.0717,-1.0717,-1.0717,-1.0717,-1.0717,-1.0717,-1.0616,-1.0405,-1.0256,-1.0059,-0.9822,-0.9822,-0.9822,-0.9822,-0.9822,-0.9822,0.0,0.0,0.0,0.0,0.0,0.0,0.0,0.0,0.0,0.0,0.0,0.0,0.0,0.0,0.0,0.0,0.0,0.0,0.0,0.0,0.0,0.0,0.0,0.0,0.0,0.0,0.0,0.0,0.0,0.0,0.0,0.0,-0.0135,-0.0337,-0.0404,-0.0539,-0.0943,-0.1077,-0.1077,-0.1077,-0.1077,-0.1077,-0.1077,-0.1077,-0.1414,-0.1952,-0.1952,-0.1952,-0.1952,-0.1952,-0.1952,-0.1885,-0.1616,-0.1481,-0.1481,-0.1481,-0.1481,-0.1481,-0.1481,-0.1481,-0.1414,-0.1212,-0.1077,-0.1077,-0.1077,-0.1077,-0.1077,-0.1077,-0.1077,-0.1077,-0.1077,-0.1077,-0.1144,-0.1414,-0.1548,-0.1683,-0.2087,-0.3026,-0.4099,-0.5098,-0.5366,-0.5432,-0.5834,-0.5834,-0.5967,-0.6364,-0.7369,-0.8035,-0.8035,-0.931,-1.018,-1.018,-1.0518,-1.0717,-1.0717,-1.0717,-1.0717,-1.0717,-1.0717,-1.0717,-1.0717,-1.0717,-1.0649,-1.0493,-1.0351,-1.0148,-0.9876,-0.9842,-0.9822,-0.9822,-0.9822,-0.9822,0.0,0.0,0.0,0.0,0.0,0.0,0.0,0.0,0.0,0.0,0.0,0.0,0.0,0.0,0.0,0.0,0.0,0.0,0.0,0.0,0.0,0.0,0.0,0.0,0.0,0.0,0.0,0.0,0.0,0.0,0.0,0.0,0.0,0.0,0.0,-0.0202,-0.0539,-0.0943,-0.1077,-0.1077,-0.1077,-0.1077,-0.1077,-0.1077,-0.1144,-0.1144,-0.1144,-0.1144,-0.1144,-0.1144,-0.1144,-0.1144,-0.1144,-0.1144,-0.1144,-0.1144,-0.1144,-0.1144,-0.1144,-0.1144,-0.1144,-0.1077,-0.1077,-0.1077,-0.1077,-0.1077,-0.1077,-0.1077,-0.1077,-0.1077,-0.1077,-0.1077,-0.1077,-0.1144,-0.1346,-0.1683,-0.2087,-0.2289,-0.2356,-0.2423,-0.2423,-0.2825,-0.4166,-0.4434,-0.4833,-0.6168,-0.6431,-0.6498,-0.6498,-0.7769,-0.8706,-0.8706,-0.9915,-1.0717,-1.0717,-1.0717,-1.0717,-1.0717,-1.0717,-1.0717,-1.0717,-1.0717,-1.0649,-1.0493,-1.0351,-1.0202,-0.9977,-0.989,-0.9822,-0.9822,-0.9822,-0.9822,0.0,0.0,0.0,0.0,0.0,0.0,0.0,0.0,0.0,0.0,0.0,0.0,0.0,0.0,0.0,0.0,0.0,0.0,0.0,0.0,0.0,0.0,0.0,0.0,0.0,0.0,0.0,0.0,0.0,0.0,0.0,0.0,0.0,0.0,0.0,-0.0067,-0.0202,-0.0337,-0.0404,-0.0404,-0.0404,-0.0404,-0.0404,-0.0404,-0.0404,-0.0404,-0.0404,-0.0673,-0.1077,-0.1077,-0.1077,-0.1077,-0.0808,-0.0741,-0.0741,-0.0741,-0.0741,-0.0741,-0.0741,-0.0741,-0.0673,-0.0471,-0.0404,-0.0404,-0.0404,-0.0404,-0.0404,-0.0404,-0.0404,-0.0404,-0.0404,-0.0404,-0.0539,-0.101,-0.1548,-0.2019,-0.2154,-0.2223,-0.2223,-0.2223,-0.2223,-0.2356,-0.2894,-0.2961,-0.3094,-0.3629,-0.4498,-0.5034,-0.5034,-0.6301,-0.7569,-0.8507,-0.9045,-0.9715,-1.0651,-1.0717,-1.0717,-1.0717,-1.0717,-1.0717,-1.0717,-1.0717,-1.0697,-1.0636,-1.0493,-1.0297,-0.9984,-0.9835,-0.9822,-0.9822,-0.9822,-0.9822,0.0,0.0,0.0,0.0,0.0,0.0,0.0,0.0,0.0,0.0,0.0,0.0,0.0,0.0,0.0,0.0,0.0,0.0,0.0,0.0,0.0,0.0,0.0,0.0,0.0,0.0,0.0,0.0,0.0,0.0,0.0,0.0,0.0,0.0,0.0,0.0,0.0,0.0,0.0,0.0,0.0,0.0,0.0,0.0,0.0,0.0,0.0,-0.0269,-0.0741,-0.0741,-0.0741,-0.0673,-0.0404,-0.0337,-0.0337,-0.0337,-0.0337,-0.0337,-0.0337,-0.0337,-0.0269,-0.0067,0.0,0.0,0.0,0.0,0.0,0.0,0.0,0.0,0.0,-0.0067,-0.0337,-0.0943,-0.1548,-0.2019,-0.2154,-0.2223,-0.2223,-0.2223,-0.2223,-0.2223,-0.2223,-0.2223,-0.2223,-0.2223,-0.3026,-0.3564,-0.3564,-0.4833,-0.6101,-0.704,-0.7569,-0.824,-0.9178,-0.9709,-0.9981,-0.9981,-1.0452,-1.0717,-1.0717,-1.0717,-1.0717,-1.0717,-1.0568,-1.0392,-1.0195,-0.9998,-0.9869,-0.9822,-0.9822,-0.9849,0.0,0.0,0.0,0.0,0.0,0.0,0.0,0.0,0.0,0.0,0.0,0.0,0.0,0.0,0.0,0.0,0.0,0.0,0.0,0.0,0.0,0.0,0.0,0.0,0.0,0.0,0.0,0.0,0.0,0.0,0.0,0.0,0.0,0.0,0.0,0.0,0.0,0.0,0.0,0.0,0.0,0.0,0.0,0.0,0.0,0.0,0.0,0.0,0.0,0.0,0.0,0.0,0.0,0.0,0.0,0.0,0.0,0.0,0.0,0.0,0.0,0.0,0.0,0.0,0.0,0.0,0.0,0.0,0.0,0.0,0.0,-0.0269,-0.0606,-0.101,-0.1346,-0.1683,-0.2087,-0.2155,-0.2155,-0.2223,-0.2223,-0.2223,-0.2223,-0.2223,-0.2223,-0.2223,-0.2223,-0.2223,-0.2223,-0.3362,-0.4233,-0.43,-0.5499,-0.6364,-0.6364,-0.7702,-0.8573,-0.8573,-0.9915,-1.0651,-1.0717,-1.0717,-1.0717,-1.0717,-1.0575,-1.0493,-1.0493,-1.0195,-0.9916,-0.9836,-0.9836,-0.9849,0.0,0.0,0.0,0.0,0.0,0.0,0.0,0.0,0.0,0.0,0.0,0.0,0.0,0.0,0.0,0.0,0.0,0.0,0.0,0.0,0.0,0.0,0.0,0.0,0.0,0.0,0.0,0.0,0.0,0.0,0.0,0.0,0.0,0.0,0.0,0.0,0.0,0.0,0.0,0.0,0.0,0.0,0.0,0.0,0.0,0.0,0.0,0.0,0.0,0.0,0.0,0.0,0.0,0.0,0.0,0.0,0.0,0.0,0.0,0.0,0.0,0.0,0.0,0.0,0.0,0.0,0.0,0.0,0.0,0.0,0.0,-0.0269,-0.0539,-0.0673,-0.0943,-0.1346,-0.1683,-0.175,-0.1885,-0.2154,-0.2223,-0.2223,-0.2223,-0.2223,-0.2223,-0.2223,-0.2223,-0.2223,-0.2223,-0.2558,-0.3161,-0.4166,-0.4635,-0.5302,-0.6297,-0.6769,-0.7436,-0.8507,-0.8978,-0.9643,-1.0651,-1.0717,-1.0717,-1.0717,-1.0677,-1.0602,-1.0493,-1.0304,-1.0195,-1.0154,-1.0154,-0.9601,0.0,0.0,0.0,0.0,0.0,0.0,0.0,0.0,0.0,0.0,0.0,0.0,0.0,0.0,0.0,0.0,0.0,0.0,0.0,0.0,0.0,0.0,0.0,0.0,0.0,0.0,0.0,0.0,0.0,0.0,0.0,0.0,0.0,0.0,0.0,0.0,0.0,0.0,0.0,0.0,0.0,0.0,0.0,0.0,0.0,0.0,0.0,0.0,0.0,0.0,0.0,0.0,0.0,0.0,0.0,0.0,0.0,0.0,0.0,0.0,0.0,0.0,0.0,0.0,0.0,0.0,0.0,0.0,0.0,0.0,0.0,-0.0269,-0.0471,-0.0471,-0.0808,-0.1144,-0.1346,-0.1414,-0.1548,-0.2087,-0.2223,-0.2223,-0.2223,-0.2223,-0.2223,-0.2223,-0.2223,-0.2223,-0.2223,-0.2223,-0.249,-0.3362,-0.343,-0.3763,-0.4565,-0.5165,-0.59,-0.6769,-0.7369,-0.8307,-0.9782,-0.9848,-1.0114,-1.0717,-1.0717,-1.0677,-1.0588,-1.0439,-1.0018,-0.9379,-1.0082,-0.9267,0.0,0.0,0.0,0.0,0.0,0.0,0.0,0.0,0.0,0.0,0.0,0.0,0.0,0.0,0.0,0.0,0.0,0.0,0.0,0.0,0.0,0.0,0.0,0.0,0.0,0.0,0.0,0.0,0.0,0.0,0.0,0.0,0.0,0.0,0.0,0.0,0.0,0.0,0.0,0.0,0.0,0.0,0.0,0.0,0.0,0.0,0.0,0.0,0.0,0.0,0.0,0.0,0.0,0.0,0.0,0.0,0.0,0.0,0.0,0.0,0.0,0.0,0.0,0.0,0.0,0.0,0.0,0.0,0.0,0.0,0.0,-0.0202,-0.0471,-0.0471,-0.0741,-0.101,-0.101,-0.101,-0.1212,-0.1952,-0.2087,-0.2154,-0.2154,-0.2154,-0.2223,-0.2223,-0.2223,-0.2223,-0.2223,-0.2223,-0.2223,-0.2223,-0.2223,-0.2223,-0.2223,-0.3362,-0.4166,-0.43,-0.5499,-0.6836,-0.8307,-0.8374,-0.9045,-1.0452,-1.0651,-1.0651,-1.0452,-1.032,-0.9663,-0.8392,-0.954,-0.8677,0.0,0.0,0.0,0.0,0.0,0.0,0.0,0.0,0.0,0.0,0.0,0.0,0.0,0.0,0.0,0.0,0.0,0.0,0.0,0.0,0.0,0.0,0.0,0.0,0.0,0.0,0.0,0.0,0.0,0.0,0.0,0.0,0.0,0.0,0.0,0.0,0.0,0.0,0.0,0.0,0.0,0.0,0.0,0.0,0.0,0.0,0.0,0.0,0.0,0.0,0.0,0.0,0.0,0.0,0.0,0.0,0.0,0.0,0.0,0.0,0.0,0.0,0.0,0.0,0.0,0.0,0.0,0.0,0.0,0.0,0.0,-0.0067,-0.0067,-0.0067,-0.0135,-0.0269,-0.0539,-0.0606,-0.0741,-0.1212,-0.1548,-0.175,-0.175,-0.1952,-0.2223,-0.2223,-0.2223,-0.2223,-0.2223,-0.2223,-0.2223,-0.2223,-0.2223,-0.2223,-0.2223,-0.2423,-0.3094,-0.4233,-0.4568,-0.5369,-0.6769,-0.6831,-0.7503,-0.8972,-1.0114,-1.0114,-0.9045,-0.895,-0.939,-1.0169,-0.8127,-0.6872,0.0,0.0,0.0,0.0,0.0,0.0,0.0,0.0,0.0,0.0,0.0,0.0,0.0,0.0,0.0,0.0,0.0,0.0,0.0,0.0,0.0,0.0,0.0,0.0,0.0,0.0,0.0,0.0,0.0,0.0,0.0,0.0,0.0,0.0,0.0,0.0,0.0,0.0,0.0,0.0,0.0,0.0,0.0,0.0,0.0,0.0,0.0,0.0,0.0,0.0,0.0,0.0,0.0,0.0,0.0,0.0,0.0,0.0,0.0,0.0,0.0,0.0,0.0,0.0,0.0,0.0,0.0,0.0,0.0,0.0,0.0,0.0,0.0,0.0,0.0,-0.0067,-0.0202,-0.0269,-0.0337,-0.0539,-0.0808,-0.1144,-0.1346,-0.1683,-0.1885,-0.1885,-0.2087,-0.2223,-0.2223,-0.2223,-0.2223,-0.2223,-0.2223,-0.2223,-0.2223,-0.2223,-0.249,-0.3228,-0.3228,-0.3897,-0.5302,-0.5369,-0.6034,-0.7503,-0.8169,-0.8235,-0.7503,-0.6769,-0.684,-0.7507,-0.6769,-0.5633,0.0,0.0,0.0,0.0,0.0,0.0317,0.0,0.0,0.0,0.0,0.0,0.0,0.0,0.0,0.0,0.0,0.0,0.0,0.0,0.0,0.0,0.0,0.0,0.0,0.0,0.0,0.0,0.0,0.0,0.0,0.0,0.0,0.0,0.0,0.0,0.0,0.0,0.0,0.0,0.0,0.0,0.0,0.0,0.0,0.0,0.0,0.0,0.0,0.0,0.0,0.0,0.0,0.0,0.0,0.0,0.0,0.0,0.0,0.0,0.0,0.0,0.0,0.0,0.0,0.0,0.0,0.0,0.0,0.0,0.0,0.0,0.0,0.0,0.0,0.0,0.0,0.0,0.0,0.0,0.0,-0.0202,-0.0539,-0.0943,-0.1279,-0.1548,-0.1616,-0.1885,-0.2087,-0.2223,-0.2223,-0.2223,-0.2223,-0.2223,-0.2223,-0.2223,-0.2223,-0.2223,-0.2223,-0.2223,-0.2692,-0.3833,-0.4166,-0.4833,-0.5967,-0.6231,-0.6297,-0.5967,-0.4833,-0.4434,-0.4699,-0.5299,-0.4498,0.0,0.0,0.0,0.0,0.1695,0.0,0.0,0.0,0.0,0.0,0.0,0.0,0.0,0.0,0.0,0.0,0.0,0.0,0.0,0.0,0.0,0.0,0.0,0.0,0.0,0.0,0.0,0.0,0.0,0.0,0.0,0.0,0.0,0.0,0.0,0.0,0.0,0.0,0.0,0.0,0.0,0.0,0.0,0.0,0.0,0.0,0.0,0.0,0.0,0.0,0.0,0.0,0.0,0.0,0.0,0.0,0.0,0.0,0.0,0.0,0.0,0.0,0.0,0.0,0.0,0.0,0.0,0.0,0.0,0.0,0.0,0.0,0.0,0.0,0.0,0.0,0.0,0.0,0.0,0.0,0.0,-0.0135,-0.0539,-0.0875,-0.1279,-0.1548,-0.1616,-0.1818,-0.2154,-0.2223,-0.2223,-0.2223,-0.2223,-0.2223,-0.2223,-0.2223,-0.2223,-0.2223,-0.2223,-0.2289,-0.2423,-0.3631,-0.4367,-0.4568,-0.5767,-0.5767,-0.4568,-0.4367,-0.4967,-0.6101,-0.3763,-0.3161,0.0,0.0,0.0,0.0,0.0,0.0,0.0,0.0,0.0,0.0,0.0,0.0,0.0,0.0,0.0,0.0,0.0,0.0,0.0,0.0,0.0,0.0,0.0,0.0,0.0,0.0,0.0,0.0,0.0,0.0,0.0,0.0,0.0,0.0,0.0,0.0,0.0,0.0,0.0,0.0,0.0,0.0,0.0,0.0,0.0,0.0,0.0,0.0,0.0,0.0,0.0,0.0,0.0,0.0,0.0,0.0,0.0,0.0,0.0,0.0,0.0,0.0,0.0,0.0,0.0,0.0,0.0,0.0,0.0,0.0,0.0,0.0,0.0,0.0,0.0,0.0,0.0,0.0,0.0,0.0,0.0,-0.0067,-0.0202,-0.0539,-0.0808,-0.0943,-0.1144,-0.1414,-0.1818,-0.1885,-0.1952,-0.2155,-0.2223,-0.2223,-0.2223,-0.2223,-0.2223,-0.2223,-0.2223,-0.2223,-0.2223,-0.2759,-0.3094,-0.3094,-0.3629,-0.3696,-0.3094,-0.3094,-0.3362,-0.3962,-0.2758,-0.249,0.1653,0.0,0.0,0.0,0.0,0.0,0.0,0.0,0.0,0.0,0.0,0.0,0.0,0.0,0.0,0.0,0.0,0.0,0.0,0.0,0.0,0.0,0.0,0.0,0.0,0.0,0.0,0.0,0.0,0.0,0.0,0.0,0.0,0.0,0.0,0.0,0.0,0.0,0.0,0.0,0.0,0.0,0.0,0.0,0.0,0.0,0.0,0.0,0.0,0.0,0.0,0.0,0.0,0.0,0.0,0.0,0.0,0.0,0.0,0.0,0.0,0.0,0.0,0.0,0.0,0.0,0.0,0.0,0.0,0.0,0.0,0.0,0.0,0.0,0.0,0.0,0.0,0.0,0.0,0.0,0.0,0.0,0.0,-0.0202,-0.0404,-0.0471,-0.0741,-0.1077,-0.1414,-0.1481,-0.1616,-0.2019,-0.2019,-0.2087,-0.2223,-0.2223,-0.2223,-0.2223,-0.2223,-0.2223,-0.2223,-0.2223,-0.2223,-0.2223,-0.2223,-0.2223,-0.2223,-0.2223,-0.2223,-0.2223,-0.2223,-0.2223,0.0,0.0,0.0,0.3604,0.0,0.0,0.0,0.0,0.1353,0.0,0.0,0.0,0.0,0.0,0.0,0.0,0.0,0.0,0.0,0.0,0.0,0.0,0.0,0.0,0.0,0.0,0.0,0.0,0.0,0.0,0.0,0.0,0.0,0.0,0.0,0.0,0.0,0.0,0.0,0.0,0.0,0.0,0.0,0.0,0.0,0.0,0.0,0.0,0.0,0.0,0.0,0.0,0.0,0.0,0.0,0.0,0.0,0.0,0.0,0.0,0.0,0.0,0.0,0.0,0.0,0.0,0.0,0.0,0.0,0.0,0.0,0.0,0.0,0.0,0.0,0.0,0.0,0.0,0.0,0.0,0.0,0.0,0.0,0.0,-0.0135,-0.0471,-0.0539,-0.0673,-0.1077,-0.1144,-0.1212,-0.1616,-0.1616,-0.175,-0.2154,-0.2223,-0.2223,-0.2223,-0.2223,-0.2223,-0.2223,-0.2223,-0.2223,-0.2223,-0.2223,-0.2223,-0.2223,-0.2223,-0.2223,-0.2223,-0.2223,-0.2223,0.0,0.0,0.5814,0.3947,0.0,0.0,0.0,0.0,0.0,0.0,0.0,0.0,0.0,0.0,0.1045,0.1068,0.0474,0.0,0.0,0.0,0.0,0.0,0.0,0.0,0.0,0.0,0.0,0.0,0.0,0.0,0.0,0.0,0.0,0.0,0.0,0.0,0.0,0.0,0.0,0.0,0.0,0.0,0.0,0.0,0.0,0.0,0.0,0.0,0.0,0.0,0.0,0.0,0.0,0.0,0.0,0.0,0.0,0.0,0.0,0.0,0.0,0.0,0.0,0.0,0.0,0.0,0.0,0.0,0.0,0.0,0.0,0.0,0.0,0.0,0.0,0.0,0.0,0.0,0.0,0.0,0.0,0.0,0.0,0.0,-0.0067,-0.0135,-0.0202,-0.0269,-0.0673,-0.0673,-0.0875,-0.1212,-0.1279,-0.1414,-0.175,-0.2019,-0.2223,-0.2223,-0.2223,-0.2223,-0.2223,-0.2223,-0.2223,-0.2223,-0.2223,-0.2223,-0.2223,-0.2223,-0.2223,-0.2223,-0.2223,-0.2223,0.5217,0.5683,0.0,0.4709,0.4552,0.0,0.3814,0.0,0.0,0.0,0.0,0.0,0.0,0.0,0.2108,0.2156,0.1231,0.0372,0.0,0.0,0.0,0.0,0.0,0.0,0.0,0.0,0.0,0.0,0.0,0.0,0.0,0.0,0.0,0.0,0.0,0.0,0.0,0.0,0.0,0.0,0.0,0.0,0.0,0.0,0.0,0.0,0.0,0.0,0.0,0.0,0.0,0.0,0.0,0.0,0.0,0.0,0.0,0.0,0.0,0.0,0.0,0.0,0.0,0.0,0.0,0.0,0.0,0.0,0.0,0.0,0.0,0.0,0.0,0.0,0.0,0.0,0.0,0.0,0.0,0.0,0.0,0.0,0.0,0.0,0.0,0.0,0.0,-0.0067,-0.0269,-0.0337,-0.0471,-0.0875,-0.0875,-0.1077,-0.1548,-0.1818,-0.2019,-0.2223,-0.2223,-0.2223,-0.2223,-0.2223,-0.2223,-0.2223,-0.2223,-0.2223,-0.2223,-0.2223,-0.2223,-0.2223,-0.2223,-0.2223]}]]